[[{"header":{"parameterUnit":"m.s-1","parameterCategory":1,"la1":30.6,"la2":29.2853,"lo1":-89.7004,"lo2":-87.6739,"dy":0.0162,"dx":0.0183,"nx":112,"ny":82,"refTime":"2024-06-23T12:00:00:Z","depth":0,"parameterNumber":2,"parameterNumberName":"U-component_of_WINDS"},"data":[0.0,0.0,0.0,0.0,0.0,0.0,0.0,0.0,0.0,0.0,0.0,0.0,0.0,0.0,0.0,0.0,0.0,0.0,0.0,0.0,0.0,0.0,0.0,0.0,0.0,0.0,0.0,0.0,0.0,0.0,0.0,0.0,0.0,0.0,0.0,0.0,0.0,0.0,0.0,0.0,0.0,0.0,0.0,0.0,0.0,0.0,0.0,0.0,0.0,0.0,0.0,0.0,0.0,0.0,0.0,0.0,0.0,0.0,0.0,0.0,0.0,0.0,0.0,0.0,0.0,0.0,0.0,0.0,0.0,0.0,0.0,0.0,0.0,0.0,0.0,0.0,0.0,0.0,0.0,0.0,0.0,0.0,0.0,0.0,0.0,0.0,0.0,0.0,0.0,0.0,0.0,-0.3675,-0.4063,-0.4269,-0.4197,-0.4167,-0.3932,-0.3418,0.0,0.0,0.0,0.0,0.0,0.0,0.0,0.0,0.0,0.0,0.0,0.0,0.0,0.0,0.0,0.0,0.0,0.0,0.0,0.0,0.0,0.0,0.0,0.0,0.0,0.0,0.0,0.0,0.0,0.0,0.0,0.0,0.0,0.0,0.0,0.0,0.0,0.0,0.0,0.0,0.0,0.0,0.0,0.0,0.0,0.0,0.0,0.0,0.0,0.0,0.0,0.0,0.0,0.0,0.0,0.0,0.0,0.0,0.0,0.0,0.0,0.0,0.0,0.0,0.0,0.0,0.0,0.0,0.0,0.0,0.0,0.0,0.0,0.0,0.0,0.0,0.0,0.0,0.0,0.0,0.0,0.0,0.0,0.0,0.0,0.0,0.0,0.0,0.0,0.0,0.0,0.0,0.0,0.0,0.0,0.0,0.0,0.0,0.0,0.0,0.0,0.0,0.0,0.0,-0.3593,-0.4028,-0.4214,-0.4293,-0.4281,-0.4142,-0.3891,-0.3503,0.0,0.0,0.0,0.0,0.0,0.0,0.0,0.0,0.0,0.0,0.0,0.0,0.0,0.0,0.0,0.0,0.0,0.0,0.0,0.0,0.0,0.0,0.0,0.0,0.0,0.0,0.0,0.0,0.0,0.0,0.0,0.0,0.0,0.0,0.0,0.0,0.0,0.0,0.0,0.0,0.0,0.0,0.0,0.0,0.0,0.0,0.0,0.0,0.0,0.0,0.0,0.0,0.0,0.0,0.0,0.0,0.0,0.0,0.0,0.0,0.0,0.0,0.0,0.0,0.0,0.0,0.0,0.0,0.0,0.0,0.0,0.0,0.0,0.0,0.0,0.0,0.0,0.0,0.0,0.0,0.0,0.0,0.0,0.0,0.0,0.0,0.0,0.0,0.0,0.0,0.0,0.0,0.0,0.0,0.0,0.0,0.0,0.0,0.0,0.0,0.0,0.0,0.0,-0.3277,-0.3724,-0.4185,-0.4275,-0.43,-0.43,-0.4136,-0.3883,-0.3524,-0.3396,0.0,0.0,0.0,0.0,0.0,0.0,0.0,0.0,0.0,0.0,0.0,0.0,0.0,0.0,0.0,0.0,0.0,0.0,0.0,0.0,0.0,0.0,0.0,0.0,0.0,0.0,0.0,0.0,0.0,0.0,0.0,0.0,0.0,0.0,0.0,0.0,0.0,0.0,0.0,0.0,0.0,0.0,0.0,0.0,0.0,0.0,0.0,0.0,0.0,0.0,0.0,0.0,0.0,0.0,0.0,0.0,0.0,0.0,0.0,0.0,0.0,0.0,0.0,0.0,0.0,0.0,0.0,0.0,0.0,0.0,0.0,0.0,0.0,0.0,0.0,0.0,0.0,0.0,0.0,0.0,0.0,0.0,0.0,0.0,0.0,0.0,0.0,0.0,0.0,0.0,0.0,0.0,0.0,0.0,0.0,0.0,0.0,0.0,0.0,0.0,0.0,0.0,-0.348,-0.3879,-0.4287,-0.4312,-0.4308,-0.433,-0.411,-0.3836,-0.352,-0.3312,0.0,0.0,0.0,0.0,0.0,0.0,0.0,0.0,0.0,0.0,0.0,0.0,0.0,0.0,0.0,0.0,0.0,0.0,0.0,0.0,0.0,0.0,0.0,0.0,0.0,0.0,0.0,0.0,0.0,0.0,0.0,0.0,0.0,0.0,0.0,0.0,0.0,0.0,0.0,0.0,0.0,0.0,0.0,0.0,0.0,0.0,0.0,0.0,0.0,0.0,0.0,0.0,0.0,0.0,0.0,0.0,0.0,0.0,0.0,0.0,0.0,0.0,0.0,0.0,0.0,0.0,0.0,0.0,0.0,0.0,0.0,0.0,0.0,0.0,0.0,0.0,0.0,0.0,0.0,0.0,0.0,0.0,0.0,0.0,0.0,0.0,0.0,0.0,0.0,0.0,0.0,0.0,0.0,0.0,0.0,0.0,0.0,0.0,0.0,0.0,0.0,0.0,-0.3565,-0.4114,-0.4395,-0.4349,-0.4334,-0.4418,-0.403,-0.3701,-0.3511,-0.3186,0.0,0.0,0.0,0.0,0.0,0.0,0.0,0.0,0.0,0.0,0.0,0.0,0.0,0.0,0.0,0.0,0.0,0.0,0.0,0.0,0.0,0.0,0.0,0.0,0.0,0.0,0.0,0.0,0.0,0.0,0.0,0.0,0.0,0.0,0.0,0.0,0.0,0.0,0.0,0.0,0.0,0.0,0.0,0.0,0.0,0.0,0.0,0.0,0.0,0.0,0.0,0.0,0.0,0.0,0.0,0.0,0.0,0.0,0.0,0.0,0.0,0.0,0.0,0.0,0.0,0.0,0.0,0.0,0.0,0.0,0.0,0.0,0.0,0.0,0.0,0.0,0.0,0.0,0.0,0.0,0.0,0.0,0.0,0.0,0.0,0.0,0.0,0.0,0.0,0.0,0.0,0.0,0.0,0.0,0.0,0.0,0.0,0.0,0.0,0.0,0.0,0.0,-0.3526,-0.4075,0.0,-0.4404,-0.4398,-0.4432,-0.4126,-0.381,-0.3518,0.0,0.0,0.0,0.0,0.0,0.0,0.0,0.0,0.0,0.0,0.0,0.0,0.0,0.0,0.0,0.0,0.0,0.0,0.0,0.0,0.0,0.0,0.0,0.0,0.0,0.0,0.0,0.0,0.0,0.0,0.0,0.0,0.0,0.0,0.0,0.0,0.0,0.0,0.0,0.0,0.0,0.0,0.0,0.0,0.0,0.0,0.0,0.0,0.0,0.0,0.0,0.0,0.0,0.0,0.0,0.0,0.0,0.0,0.0,0.0,0.0,0.0,0.0,0.0,0.0,0.0,0.0,0.0,0.0,0.0,0.0,0.0,0.0,0.0,0.0,0.0,0.0,0.0,0.0,0.0,0.0,0.0,0.0,0.0,0.0,0.0,0.0,0.0,0.0,0.0,0.0,0.0,0.0,0.0,0.0,0.0,0.0,0.0,0.0,0.0,0.0,0.0,-0.2651,-0.3252,-0.371,0.0,-0.3896,-0.3891,-0.3917,-0.3696,-0.3396,-0.3295,0.0,0.0,0.0,0.0,0.0,0.0,0.0,0.0,0.0,0.0,0.0,0.0,0.0,0.0,0.0,0.0,0.0,0.0,0.0,0.0,0.0,0.0,0.0,0.0,0.0,0.0,0.0,0.0,0.0,0.0,0.0,0.0,0.0,0.0,0.0,0.0,0.0,0.0,0.0,0.0,0.0,0.0,0.0,0.0,0.0,0.0,0.0,0.0,0.0,0.0,0.0,0.0,0.0,0.0,0.0,0.0,0.0,0.0,0.0,0.0,0.0,0.0,0.0,0.0,0.0,0.0,0.0,0.0,0.0,0.0,0.0,0.0,0.0,0.0,0.0,0.0,0.0,0.0,0.0,0.0,0.0,0.0,0.0,0.0,0.0,0.0,0.0,0.0,0.0,0.0,0.0,0.0,0.0,0.0,0.0,0.0,0.0,0.0,0.0,0.0,0.0,0.0,-0.1951,-0.2647,-0.3097,-0.3037,-0.2903,-0.2891,-0.2949,-0.2665,-0.2546,0.0,0.0,0.0,0.0,0.0,0.0,0.0,0.0,0.0,0.0,0.0,0.0,0.0,0.0,0.0,0.0,0.0,0.0,0.0,0.0,0.0,0.0,0.0,0.0,0.0,0.0,0.0,0.0,0.0,0.0,0.0,0.0,0.0,0.0,0.0,0.0,0.0,0.0,0.0,0.0,0.0,0.0,0.0,0.0,0.0,0.0,0.0,0.0,0.0,0.0,0.0,0.0,0.0,0.0,0.0,0.0,0.0,0.0,0.0,0.0,0.0,0.0,0.0,0.0,0.0,0.0,0.0,0.0,0.0,0.0,0.0,0.0,0.0,0.0,0.0,0.0,0.0,0.0,0.0,0.0,0.0,0.0,0.0,0.0,0.0,0.0,0.0,0.0,0.0,0.0,0.0,0.0,0.0,0.0,0.0,0.0,0.0,0.0,0.0,0.0,0.0,0.0,0.0,-0.2514,-0.2963,-0.3258,-0.3391,-0.3193,-0.3076,-0.2955,-0.2731,-0.2576,-0.249,0.0,0.0,0.0,0.0,0.0,0.0,0.0,0.0,0.0,0.0,0.0,0.0,0.0,0.0,0.0,0.0,0.0,0.0,0.0,0.0,0.0,0.0,0.0,0.0,0.0,0.0,0.0,0.0,0.0,0.0,0.0,0.0,0.0,0.0,0.0,0.0,0.0,0.0,0.0,0.0,0.0,0.0,0.0,0.0,0.0,0.0,0.0,0.0,0.0,0.0,0.0,0.0,0.0,0.0,0.0,0.0,0.0,0.0,0.0,0.0,0.0,0.0,0.0,0.0,0.0,0.0,0.0,0.0,0.0,0.0,0.0,0.0,0.0,0.0,0.0,0.0,0.0,0.0,0.0,0.0,0.0,0.0,0.0,0.0,0.0,0.0,0.0,0.0,0.0,0.0,0.0,0.0,0.0,0.0,0.0,0.0,0.0,0.0,0.0,0.0,0.0,0.0,-0.217,-0.2585,-0.2843,-0.274,-0.2552,-0.2435,-0.2386,-0.2238,-0.2136,-0.2054,0.0,0.0,0.0,0.0,0.0,0.0,0.0,0.0,0.0,0.0,0.0,0.0,0.0,0.0,0.0,0.0,0.0,0.0,0.0,0.0,0.0,0.0,0.0,0.0,0.0,0.0,0.0,0.0,0.0,0.0,0.0,0.0,0.0,0.0,0.0,0.0,0.0,0.0,0.0,0.0,0.0,0.0,0.0,0.0,0.0,0.0,0.0,0.0,0.0,0.0,0.0,0.0,0.0,0.0,0.0,0.0,0.0,0.0,0.0,0.0,0.0,0.0,0.0,0.0,0.0,0.0,0.0,0.0,0.0,0.0,0.0,0.0,0.0,0.0,0.0,0.0,0.0,0.0,0.0,0.0,0.0,0.0,0.0,0.0,0.0,0.0,0.0,0.0,0.0,0.0,0.0,0.0,0.0,0.0,0.0,0.0,0.0,0.0,0.0,0.0,0.0,0.0,-0.1359,-0.1836,-0.202,-0.1671,-0.1576,-0.1564,-0.1533,-0.1426,-0.139,-0.1558,0.0,0.0,0.0,0.0,0.0,0.0,0.0,0.0,0.0,0.0,0.0,0.0,0.0,0.0,0.0,0.0,0.0,0.0,0.0,0.0,0.0,0.0,0.0,0.0,0.0,0.0,0.0,0.0,0.0,0.0,0.0,0.0,0.0,0.0,0.0,0.0,0.0,0.0,0.0,0.0,0.0,0.0,0.0,0.0,0.0,0.0,0.0,0.0,0.0,0.0,0.0,0.0,0.0,0.0,0.0,0.0,0.0,0.0,0.0,0.0,-0.2189,0.0,0.0,0.0,0.0,0.0,0.0,0.0,0.0,0.0,0.0,0.0,0.0,0.0,0.0,0.0,0.0,0.0,0.0,0.0,0.0,0.0,0.0,0.0,0.0,0.0,0.0,0.0,0.0,0.0,0.0,0.0,0.0,0.0,0.0,0.0,0.0,0.0,0.0,0.0,0.0,0.0,-0.182,-0.187,-0.1934,-0.1902,-0.1708,-0.1595,-0.1564,-0.1495,-0.1401,-0.1361,-0.1311,0.0,0.0,0.0,0.0,0.0,0.0,0.0,0.0,0.0,0.0,0.0,0.0,0.0,0.0,0.0,0.0,0.0,0.0,0.0,0.0,0.0,0.0,0.0,0.0,0.0,0.0,0.0,0.0,0.0,0.0,0.0,0.0,0.0,0.0,0.0,0.0,0.0,0.0,0.0,0.0,0.0,0.0,0.0,0.0,0.0,0.0,0.0,0.0,0.0,0.0,0.0,0.0,0.0,0.0,0.0,0.0,0.0,0.0,0.0,0.0,-0.2294,0.0,0.0,0.0,0.0,0.0,0.0,0.0,0.0,0.0,0.0,0.0,0.0,0.0,0.0,0.0,0.0,0.0,0.0,0.0,0.0,0.0,0.0,0.0,0.0,0.0,0.0,0.0,0.0,0.0,0.0,0.0,0.0,0.0,0.0,0.0,0.0,0.0,0.0,0.0,0.0,-0.169,-0.1896,-0.2054,-0.1813,-0.1718,-0.1605,-0.1574,-0.1515,-0.1436,-0.1331,-0.1256,0.0,0.0,0.0,0.0,0.0,0.0,0.0,0.0,0.0,0.0,0.0,0.0,0.0,0.0,0.0,0.0,0.0,0.0,0.0,0.0,0.0,0.0,0.0,0.0,0.0,0.0,0.0,0.0,0.0,0.0,0.0,0.0,0.0,0.0,0.0,0.0,0.0,0.0,0.0,0.0,0.0,0.0,0.0,0.0,0.0,0.0,0.0,0.0,0.0,0.0,0.0,0.0,0.0,-0.2818,-0.298,-0.318,-0.3091,-0.3119,-0.3245,-0.2893,-0.268,-0.2634,0.0,0.0,0.0,0.0,0.0,0.0,0.0,0.0,0.0,0.0,0.0,0.0,0.0,0.0,0.0,0.0,0.0,0.0,0.0,0.0,0.0,0.0,0.0,0.0,0.0,-0.1868,-0.176,0.0,0.0,0.0,0.0,0.0,0.0,0.0,0.0,0.0,0.0,0.0,0.0,-0.1478,-0.1927,-0.2075,-0.1613,-0.1617,-0.1607,-0.1581,-0.1528,-0.1461,-0.1376,-0.1341,-0.1221,0.0,0.0,0.0,0.0,0.0,0.0,0.0,0.0,0.0,0.0,0.0,0.0,0.0,0.0,0.0,0.0,0.0,0.0,0.0,0.0,0.0,0.0,0.0,0.0,0.0,0.0,0.0,0.0,0.0,0.0,0.0,0.0,-0.2008,-0.2263,0.0,0.0,0.0,0.0,0.0,0.0,0.0,0.0,0.0,0.0,0.0,0.0,0.0,-0.2981,-0.3437,-0.32,-0.3134,-0.3359,-0.3421,-0.3427,-0.3492,-0.3493,-0.3497,-0.3503,-0.3463,0.0,-0.2835,-0.2804,0.0,0.0,0.0,0.0,0.0,0.0,0.0,0.0,0.0,0.0,0.0,0.0,0.0,0.0,0.0,0.0,0.0,0.0,0.0,0.0,0.0,0.0,-0.2188,-0.1971,-0.2062,-0.2048,0.0,-0.1643,-0.1565,-0.1791,-0.1784,0.0,0.0,0.0,0.0,0.0,0.0,0.0,-0.2017,-0.198,-0.1879,-0.1613,-0.1617,-0.1615,-0.1611,-0.1579,-0.1532,-0.1468,-0.1376,-0.1293,-0.1301,-0.123,0.0,0.0,0.0,0.0,0.0,0.0,0.0,0.0,0.0,0.0,0.0,0.0,0.0,0.0,0.0,0.0,0.0,0.0,0.0,0.0,0.0,0.0,0.0,0.0,0.0,0.0,0.0,0.0,0.0,-0.1902,-0.2199,-0.2421,-0.2427,-0.234,0.0,0.0,0.0,0.0,0.0,0.0,0.0,0.0,0.0,-0.3542,-0.3282,-0.3286,-0.3577,-0.3429,-0.3502,-0.3592,-0.3561,-0.3631,-0.3689,-0.3689,-0.3689,-0.3689,-0.3689,-0.355,-0.3313,-0.3144,-0.2971,-0.2797,0.0,0.0,0.0,0.0,-0.2674,-0.2703,-0.2898,-0.2921,0.0,-0.2839,0.0,0.0,0.0,0.0,0.0,0.0,0.0,0.0,0.0,0.0,-0.23,-0.2332,-0.2237,-0.213,-0.2012,-0.1897,-0.1755,0.0,-0.1989,-0.2003,-0.1698,0.0,0.0,0.0,0.0,-0.2074,-0.1997,-0.2022,-0.1903,-0.1615,-0.1617,-0.1617,-0.1617,-0.1589,-0.156,-0.1534,-0.1446,-0.1378,-0.1334,-0.128,-0.1235,0.0,0.0,0.0,0.0,0.0,0.0,0.0,0.0,0.0,0.0,0.0,0.0,0.0,0.0,0.0,0.0,0.0,0.0,0.0,0.0,0.0,0.0,0.0,0.0,0.0,0.0,0.0,0.0,-0.2134,-0.2373,-0.2485,-0.2563,-0.2519,0.0,0.0,0.0,0.0,0.0,0.0,-0.3106,-0.3197,-0.337,-0.375,-0.3477,-0.3467,-0.3744,-0.3634,-0.3672,-0.3748,-0.3763,-0.3801,-0.386,-0.386,-0.386,-0.386,-0.3843,-0.3804,-0.3728,-0.3456,-0.3274,-0.3146,-0.2967,-0.2917,-0.2951,-0.3011,-0.3025,-0.3046,-0.3283,-0.3297,-0.3194,-0.3104,0.0,-0.2912,-0.2744,0.0,0.0,0.0,0.0,-0.2863,-0.2715,-0.2605,-0.2577,-0.2541,-0.2451,-0.2344,-0.2344,-0.2295,-0.209,0.0,-0.2059,-0.2181,-0.1691,0.0,0.0,0.0,0.0,-0.21,-0.1968,-0.1963,-0.1921,-0.1617,-0.1617,-0.1617,-0.1617,-0.1596,-0.158,-0.1572,-0.15,-0.1444,-0.1414,-0.1306,-0.1283,-0.1264,0.0,0.0,0.0,0.0,0.0,0.0,0.0,0.0,0.0,0.0,0.0,0.0,0.0,0.0,0.0,0.0,0.0,0.0,0.0,0.0,0.0,0.0,0.0,0.0,0.0,0.0,0.0,0.0,0.0,-0.2572,-0.2857,0.0,0.0,0.0,0.0,-0.2922,-0.3433,-0.3647,-0.318,-0.3611,-0.3961,-0.4108,-0.3716,-0.3746,-0.4223,-0.3876,-0.3819,-0.3937,-0.3991,-0.4049,-0.4108,-0.4108,-0.4108,-0.4105,-0.4046,-0.3989,-0.3922,-0.3733,-0.3583,-0.3473,-0.3461,-0.3425,-0.3388,-0.3444,-0.3432,-0.3395,-0.3463,-0.3448,-0.3398,-0.3391,-0.327,-0.3135,-0.318,-0.3115,0.0,0.0,-0.3245,-0.3206,-0.3059,-0.2973,-0.2871,-0.2663,-0.2558,-0.2558,-0.2558,-0.2553,-0.2417,0.0,-0.1919,-0.1833,-0.1783,0.0,-0.2001,-0.1861,-0.2001,-0.2157,-0.1949,-0.1996,-0.1921,-0.1617,-0.1617,-0.1617,-0.1617,-0.1615,-0.1602,-0.1573,-0.154,-0.1508,-0.1478,-0.1389,-0.1311,-0.1327,-0.1241,0.0,0.0,0.0,0.0,0.0,0.0,0.0,0.0,0.0,0.0,0.0,0.0,0.0,0.0,0.0,0.0,0.0,0.0,0.0,0.0,0.0,0.0,0.0,0.0,0.0,0.0,0.0,0.0,-0.2823,-0.2973,0.0,0.0,-0.3059,-0.3157,-0.2927,-0.3344,-0.3595,-0.3765,-0.3815,-0.3917,-0.4326,-0.3987,-0.3914,-0.4121,-0.3997,-0.4021,-0.4063,-0.4083,-0.4105,-0.4125,-0.4125,-0.4125,-0.4124,-0.4102,-0.4082,-0.4059,-0.3993,-0.385,-0.3668,-0.3628,-0.3601,-0.3586,-0.3606,-0.3601,-0.3593,-0.3651,-0.3632,-0.3576,-0.3538,-0.3454,-0.3373,-0.3395,-0.3346,-0.3292,-0.3335,-0.339,-0.3331,-0.3138,-0.306,-0.3083,-0.2972,-0.2972,-0.2972,-0.2972,-0.2948,-0.2808,-0.224,-0.218,-0.2296,-0.2076,-0.2203,-0.2215,-0.212,-0.2095,-0.2069,-0.1998,-0.1812,-0.1718,-0.1617,-0.1617,-0.1617,-0.1617,-0.1617,-0.1604,-0.1574,-0.1543,-0.1513,-0.1482,-0.1395,-0.1328,-0.1287,-0.125,-0.1198,0.0,0.0,0.0,0.0,0.0,0.0,0.0,0.0,0.0,0.0,0.0,0.0,0.0,0.0,0.0,0.0,0.0,0.0,0.0,0.0,0.0,0.0,0.0,0.0,0.0,0.0,-0.3054,-0.304,-0.321,-0.3281,-0.3081,-0.33,-0.3406,-0.3033,-0.3436,-0.3768,-0.3913,-0.3819,-0.4004,-0.4253,-0.4171,-0.4094,-0.4155,-0.4157,-0.4166,-0.4187,-0.4187,-0.4187,-0.4187,-0.4187,-0.4187,-0.4185,-0.4165,-0.4157,-0.4155,-0.4134,-0.4031,-0.3886,-0.3845,-0.3816,-0.3798,-0.3798,-0.3774,-0.3743,-0.3762,-0.3743,-0.3702,-0.3661,-0.3621,-0.3589,-0.3589,-0.3563,-0.3533,-0.3533,-0.3559,-0.3589,-0.3367,-0.3281,-0.3306,-0.3306,-0.3306,-0.3301,-0.3282,-0.3251,-0.3222,-0.2761,-0.2598,-0.252,-0.22,-0.2351,-0.2472,-0.2353,-0.2211,-0.2161,-0.2161,-0.1945,-0.1733,-0.1733,-0.1622,-0.1617,-0.1617,-0.1708,-0.1697,-0.1588,-0.1731,-0.1695,-0.1684,-0.1586,-0.1516,-0.14,-0.1304,-0.1204,-0.1226,0.0,0.0,0.0,0.0,0.0,0.0,0.0,0.0,0.0,0.0,0.0,0.0,0.0,0.0,0.0,0.0,0.0,0.0,0.0,0.0,0.0,0.0,0.0,-0.2705,-0.304,-0.3303,-0.3228,-0.3398,-0.3485,-0.3431,-0.381,-0.3828,-0.33,-0.4004,-0.4101,-0.3661,-0.3968,-0.4127,-0.4128,-0.4131,-0.4159,-0.4218,-0.4219,-0.4248,-0.4308,-0.4308,-0.4308,-0.4308,-0.4308,-0.4308,-0.4304,-0.4245,-0.4219,-0.4215,-0.4155,-0.4131,-0.4131,-0.4127,-0.4089,-0.4037,-0.4037,-0.3965,-0.3857,-0.3798,-0.3777,-0.3775,-0.3775,-0.3774,-0.3773,-0.3773,-0.3771,-0.377,-0.377,-0.377,-0.377,-0.377,-0.377,-0.377,-0.377,-0.377,-0.3753,-0.3694,-0.3681,-0.3662,-0.3602,-0.306,-0.2563,-0.224,-0.2453,-0.256,-0.2558,-0.2558,0.0,-0.2558,-0.2309,-0.2075,-0.2074,-0.1839,-0.1618,-0.1617,-0.1788,-0.1783,-0.1612,-0.201,-0.215,-0.1905,-0.2069,-0.198,-0.1683,-0.1417,-0.1259,-0.1338,0.0,0.0,0.0,0.0,0.0,0.0,0.0,0.0,0.0,0.0,0.0,0.0,0.0,0.0,0.0,0.0,0.0,0.0,0.0,0.0,0.0,0.0,-0.2743,-0.2425,-0.3007,-0.3297,-0.2939,-0.3386,-0.3589,-0.3384,-0.3702,-0.3779,-0.359,-0.3869,-0.4037,-0.397,-0.3989,-0.4146,-0.4189,-0.4234,-0.4266,-0.4282,-0.4282,-0.429,-0.4308,-0.4308,-0.4308,-0.4308,-0.4308,-0.4308,-0.4307,-0.429,-0.4282,-0.4281,-0.4264,-0.4258,-0.4248,-0.4159,-0.4115,-0.4101,-0.4101,-0.4052,-0.3984,-0.3967,-0.3935,-0.3901,-0.3901,-0.3871,-0.3835,-0.3835,-0.3804,-0.377,-0.377,-0.377,-0.377,-0.377,-0.377,-0.377,-0.377,-0.377,-0.3764,-0.3748,-0.3744,-0.3725,-0.3321,-0.3399,-0.3242,-0.2946,-0.2498,-0.2379,-0.2563,-0.2237,0.0,-0.2558,-0.2334,-0.2104,-0.2077,-0.2168,-0.2151,-0.1922,-0.2111,-0.2183,-0.2137,-0.2196,-0.2262,-0.2148,-0.2173,-0.2114,-0.2068,-0.1722,-0.1586,0.0,0.0,0.0,0.0,0.0,0.0,0.0,0.0,0.0,0.0,0.0,0.0,0.0,0.0,0.0,0.0,0.0,0.0,0.0,0.0,0.0,0.0,-0.3015,-0.2987,-0.2692,-0.3139,-0.3493,-0.3231,-0.3551,-0.3747,-0.3681,-0.3863,-0.3923,-0.3853,-0.3984,-0.4138,-0.4198,-0.4202,-0.4218,-0.4253,-0.4289,-0.4308,-0.4308,-0.4308,-0.4308,-0.4308,-0.4308,-0.4308,-0.4308,-0.4308,-0.4308,0.0,-0.4308,-0.4308,-0.4308,-0.4308,-0.4308,0.0,0.0,0.0,0.0,0.0,-0.4104,-0.4072,-0.4072,-0.4052,-0.4021,-0.3995,-0.3962,-0.3928,-0.3906,-0.3873,-0.3845,-0.3845,-0.3845,-0.3845,-0.3845,-0.3845,-0.3845,-0.3845,-0.3845,-0.3838,-0.3812,-0.3807,-0.3789,-0.3494,-0.3599,0.0,-0.3255,-0.2998,-0.2863,-0.2945,-0.2721,-0.2613,-0.294,-0.2814,-0.2576,-0.2549,-0.2529,-0.25,-0.2251,-0.2332,0.0,0.0,0.0,-0.2457,-0.25,-0.2471,0.0,0.0,0.0,0.0,0.0,0.0,0.0,0.0,-0.2432,-0.2604,0.0,0.0,0.0,0.0,0.0,0.0,0.0,0.0,0.0,0.0,0.0,0.0,0.0,0.0,0.0,0.0,-0.3058,-0.3124,-0.3222,-0.3478,-0.3756,-0.3858,-0.3801,-0.3861,-0.4049,-0.4104,-0.4161,-0.4222,-0.4228,-0.4249,-0.4305,0.0,0.0,0.0,0.0,-0.4308,-0.4308,-0.4308,-0.4308,-0.4308,-0.4308,-0.4308,-0.4308,-0.4308,-0.4308,-0.4308,-0.4308,-0.4308,-0.4308,-0.4308,-0.4308,-0.4308,-0.4308,-0.4274,-0.4219,-0.4166,-0.4142,-0.4136,-0.4136,0.0,0.0,-0.4063,-0.4045,-0.4036,-0.3985,-0.3965,-0.3961,-0.3961,-0.3955,-0.3951,-0.3951,-0.3951,-0.3951,-0.3951,-0.3951,-0.3936,-0.3882,-0.3871,-0.3853,-0.3792,-0.3779,-0.3643,-0.3351,-0.3409,-0.3594,-0.3587,-0.3475,-0.3475,-0.3587,-0.3321,-0.307,-0.3066,0.0,0.0,-0.2605,-0.2557,-0.2428,-0.2123,-0.244,-0.275,-0.2981,-0.2801,-0.2523,-0.233,-0.2143,-0.1974,-0.201,-0.201,-0.2397,-0.3168,-0.2792,-0.2922,0.0,0.0,0.0,0.0,0.0,0.0,0.0,0.0,0.0,0.0,0.0,0.0,0.0,0.0,0.0,-0.3225,-0.3338,-0.3273,-0.3336,-0.342,-0.359,-0.3566,-0.3612,-0.3684,-0.417,-0.4192,-0.4224,-0.4285,-0.429,-0.4294,-0.4307,-0.4308,0.0,-0.4308,-0.4308,-0.4308,-0.4308,-0.4308,-0.4308,-0.4308,0.0,0.0,-0.4308,-0.4308,-0.4308,-0.4308,-0.4308,-0.4308,-0.4308,-0.4308,-0.4308,-0.4308,-0.4308,-0.43,-0.4289,-0.4277,-0.4241,-0.4199,-0.4199,-0.4166,-0.4124,-0.4112,-0.4108,-0.4106,-0.4094,-0.4057,0.0,-0.4019,-0.3985,-0.3951,-0.3951,-0.3951,-0.3951,-0.3951,-0.3951,-0.3947,-0.3935,-0.3933,-0.3916,-0.3854,-0.3842,-0.3823,-0.3762,-0.3469,-0.3301,-0.3256,-0.3029,-0.3029,-0.3587,-0.3353,-0.3108,-0.3069,-0.327,-0.3241,-0.2974,-0.3025,-0.3077,-0.293,-0.2965,-0.3019,-0.3105,-0.3053,-0.3057,-0.2912,-0.2717,-0.2624,-0.2537,-0.283,-0.3073,-0.3362,-0.3589,-0.4135,0.0,0.0,0.0,0.0,0.0,0.0,0.0,0.0,0.0,0.0,0.0,-0.2814,0.0,0.0,-0.32,-0.3343,-0.3391,-0.3516,-0.3692,-0.3648,-0.3553,-0.3502,-0.3692,-0.3892,-0.3947,-0.3978,-0.4007,-0.4035,-0.4038,-0.4172,-0.4308,-0.4308,-0.4308,-0.4308,-0.4308,-0.4308,-0.4308,-0.4308,-0.4308,-0.4308,-0.4308,-0.4308,-0.4308,-0.4308,-0.4308,-0.4308,-0.4308,-0.4308,-0.4308,-0.4172,-0.4038,-0.4038,-0.3768,-0.4037,-0.4308,-0.4308,-0.4288,-0.4262,-0.4262,-0.4243,-0.4211,-0.4181,-0.417,-0.4165,-0.4135,-0.4105,-0.408,-0.408,-0.406,-0.4031,-0.4,-0.3993,-0.3985,-0.3958,-0.3951,-0.3951,-0.3951,-0.3951,-0.3942,-0.3912,-0.3905,-0.3886,-0.3586,-0.3552,-0.3504,-0.319,-0.3179,-0.3284,-0.3366,-0.3362,-0.3352,-0.3326,-0.3432,-0.3518,-0.3242,-0.3187,-0.3132,-0.3075,-0.3044,-0.3016,-0.3187,-0.3013,-0.2914,-0.2787,-0.2711,-0.2725,-0.2826,-0.3157,-0.3715,-0.4302,-0.4536,-0.4724,0.0,0.0,0.0,0.0,0.0,0.0,0.0,0.0,-0.2762,-0.2805,-0.3179,-0.3564,-0.3264,-0.3297,-0.3432,-0.3428,-0.3409,-0.3489,-0.3918,-0.3719,-0.3609,-0.357,-0.3899,-0.4089,-0.3836,-0.3876,-0.3902,-0.3902,-0.3902,-0.4038,-0.4308,-0.4308,-0.4307,-0.4172,-0.4307,-0.4307,-0.4172,-0.4307,-0.4308,-0.4308,-0.4308,-0.4308,-0.4308,-0.4308,-0.4308,-0.4308,-0.4308,-0.4308,-0.4308,-0.4038,-0.3902,-0.3902,-0.3498,-0.3768,-0.4172,-0.4172,-0.4038,-0.4038,-0.4172,-0.4172,-0.4164,-0.4249,-0.4234,-0.4225,-0.4176,-0.4153,-0.4143,-0.4143,-0.4135,-0.4115,-0.4064,-0.4052,-0.4041,-0.3996,-0.3985,-0.3981,-0.397,-0.3966,-0.3963,-0.3952,-0.3951,-0.3812,-0.3521,-0.3755,-0.3716,-0.3248,-0.3464,-0.3558,-0.316,-0.3379,-0.3487,-0.3477,-0.3475,-0.3452,-0.3501,-0.3238,-0.3083,-0.3029,-0.3025,-0.3109,-0.3267,-0.3062,-0.2857,-0.255,-0.2691,-0.2816,-0.3232,-0.3595,-0.437,-0.5348,-0.5454,-0.5346,-0.1913,-0.2241,-0.2439,-0.2302,-0.2246,-0.2242,0.0,0.0,-0.2607,-0.2962,-0.294,-0.3004,-0.3172,-0.3119,-0.3077,-0.3421,-0.3238,-0.329,-0.3593,-0.3645,-0.3677,-0.3671,-0.3682,-0.3839,-0.4158,-0.4303,-0.4307,-0.4307,-0.4307,-0.4307,-0.4308,-0.4308,-0.4172,-0.3902,-0.4172,-0.4172,-0.3902,-0.4172,-0.4308,-0.4308,-0.4308,-0.4308,-0.4308,-0.4308,-0.4308,-0.4308,-0.4308,-0.4308,-0.4308,-0.4307,-0.4307,-0.4307,-0.4172,-0.4038,-0.3768,-0.3498,-0.3363,-0.3363,-0.3768,-0.3902,-0.3901,-0.4166,-0.4297,-0.4296,-0.4289,-0.4249,-0.4206,-0.4206,-0.4168,-0.4124,-0.4117,-0.4115,-0.4113,-0.4108,-0.4106,-0.4091,-0.4037,-0.4026,-0.401,-0.3961,-0.3951,-0.3948,-0.3819,-0.3817,-0.3776,-0.3304,-0.3523,-0.3619,-0.3216,-0.3209,-0.3191,-0.3143,-0.3138,-0.3228,-0.3501,-0.3491,-0.3462,-0.33,-0.3296,-0.3399,-0.3392,-0.3392,-0.3287,-0.3285,-0.3292,-0.3614,-0.4143,-0.468,-0.5363,-0.6098,-0.6531,-0.6637,-0.2019,-0.2246,0.0,0.0,-0.2484,-0.2663,-0.2603,-0.2873,-0.3144,-0.3245,-0.3335,-0.3403,-0.3306,-0.3114,-0.3047,0.0,-0.3293,-0.3341,-0.3909,-0.3937,-0.3952,-0.3952,-0.3952,-0.3842,-0.3628,-0.3902,-0.3902,-0.3633,-0.3902,-0.4038,-0.4038,-0.4038,-0.3902,-0.3768,-0.3902,-0.4053,-0.4086,-0.4224,-0.4376,-0.4409,-0.4409,-0.4254,-0.4088,-0.4088,-0.4069,-0.4038,-0.4038,-0.4172,-0.4307,-0.3902,-0.3632,-0.3632,-0.35,-0.3097,-0.2961,-0.3363,-0.3363,-0.3228,-0.3632,-0.3768,-0.3902,-0.4172,-0.4308,-0.4308,-0.4308,-0.429,-0.427,-0.427,-0.4251,-0.4224,-0.4188,-0.4179,-0.4169,-0.4134,-0.3997,-0.386,-0.3836,-0.3553,-0.3527,-0.3632,-0.3726,-0.3703,-0.3828,-0.3951,-0.3811,-0.3639,-0.3725,-0.3681,-0.3271,-0.3381,-0.3476,-0.3418,-0.3269,-0.324,-0.3552,-0.3549,-0.3525,-0.3465,-0.3462,-0.3447,-0.3414,-0.3199,-0.3199,-0.3199,-0.3337,-0.3784,-0.4322,-0.5017,-0.572,-0.6536,-0.6826,-0.6966,-0.2287,0.0,0.0,-0.2412,-0.2624,-0.2924,-0.2718,-0.3129,-0.356,-0.3486,-0.3679,-0.3618,-0.3376,-0.3042,0.0,-0.3272,-0.3195,-0.3376,-0.4098,-0.4228,-0.4217,-0.4217,-0.4071,-0.3819,-0.3339,-0.3624,-0.3633,-0.3363,-0.3498,-0.3633,-0.3768,-0.3768,-0.3775,-0.3789,-0.3926,-0.4089,-0.4284,-0.4422,-0.4442,-0.4482,-0.4482,-0.4321,-0.4006,-0.3991,-0.3964,-0.3924,-0.3908,-0.3902,-0.4172,-0.3498,-0.3228,-0.3228,-0.2961,-0.2693,-0.2424,-0.3231,-0.323,-0.296,-0.3498,-0.3632,-0.3633,-0.4038,-0.4172,-0.4308,-0.4172,-0.4172,-0.4172,-0.4038,-0.4038,-0.4028,-0.3987,-0.3975,-0.3965,-0.3924,-0.3652,-0.3518,-0.3505,-0.3218,-0.3063,-0.3305,-0.3389,-0.3478,-0.3727,-0.3837,-0.3826,-0.3951,-0.3913,-0.3742,-0.3325,-0.3542,-0.3635,-0.3591,-0.342,-0.3386,-0.3612,-0.3597,-0.3568,-0.3525,-0.3522,-0.3503,-0.3462,-0.3243,-0.3135,-0.3135,-0.3282,-0.374,-0.4508,-0.5031,-0.5857,-0.6763,-0.6992,-0.7159,0.0,0.0,-0.2731,-0.2475,-0.2589,-0.2701,-0.2741,-0.3057,-0.349,-0.3854,-0.3615,-0.3255,-0.3013,-0.2653,-0.2558,-0.3014,-0.3068,-0.3389,-0.4154,-0.4253,-0.4217,-0.4217,-0.3902,-0.3632,0.0,-0.3737,-0.3768,-0.3768,-0.3498,-0.3363,-0.3768,-0.3768,-0.3792,-0.3843,-0.4258,-0.4286,-0.3924,-0.4341,-0.4481,-0.4482,-0.4482,-0.4481,-0.4478,-0.4424,-0.4398,-0.4392,-0.3926,-0.3768,-0.3768,-0.3363,-0.3228,-0.3228,-0.3228,-0.2961,-0.2694,-0.2694,-0.2559,-0.2289,-0.296,-0.3228,-0.3228,-0.3633,-0.4038,-0.4172,-0.3902,-0.3768,-0.3768,-0.3363,-0.3228,-0.3228,-0.3227,-0.3226,-0.3226,-0.3225,-0.3224,-0.3213,-0.3172,-0.3162,-0.3148,-0.3103,-0.3058,-0.3154,-0.3407,-0.349,-0.358,-0.3828,-0.395,-0.3803,-0.338,-0.3329,-0.3296,-0.3294,-0.348,-0.3676,-0.3676,-0.3621,-0.3587,-0.3585,-0.3585,-0.3583,-0.3582,-0.3582,-0.3582,-0.3582,-0.3246,-0.3695,-0.4925,-0.5004,-0.573,-0.6883,-0.7225,-0.7394,0.0,0.0,-0.3529,-0.3264,-0.3634,-0.4008,-0.3909,-0.3826,-0.3854,-0.4096,-0.3556,-0.3036,-0.3036,-0.2687,-0.2608,-0.3212,-0.3274,-0.3352,-0.4151,-0.3988,-0.3807,-0.377,-0.3781,0.0,0.0,0.0,0.0,-0.3361,-0.3498,-0.3498,-0.3363,-0.3393,-0.3554,-0.3847,-0.4021,-0.4205,-0.4402,-0.4542,-0.4563,-0.4602,-0.4279,-0.412,-0.4118,-0.3923,-0.3899,-0.4037,-0.3706,-0.3683,-0.3818,-0.3108,-0.2828,-0.2828,-0.2828,-0.2828,-0.2694,-0.2961,-0.2827,-0.2559,-0.2828,-0.2828,-0.2962,-0.3229,-0.3498,-0.3498,-0.3498,-0.3363,-0.3363,-0.3228,-0.3228,-0.3228,-0.3228,-0.3228,-0.3228,-0.3228,-0.3095,-0.2824,-0.2811,-0.2655,-0.2502,-0.2752,-0.2717,-0.2818,-0.3203,-0.3417,-0.3622,-0.3833,-0.3951,-0.382,-0.38,-0.3503,-0.3469,-0.3709,-0.3538,-0.3504,-0.3739,-0.3719,-0.3709,-0.3709,-0.3709,-0.3691,-0.365,-0.3647,-0.3647,-0.3647,-0.3761,-0.4238,-0.5322,-0.558,-0.6292,-0.7346,-0.7466,-0.7638,0.0,-0.3868,-0.3969,-0.3881,-0.4242,-0.4579,-0.4457,-0.4317,-0.4173,-0.4388,-0.3677,-0.3137,-0.3156,-0.2698,-0.2514,-0.3274,-0.3223,-0.3312,-0.4011,-0.3988,-0.3807,-0.3513,-0.3522,0.0,0.0,0.0,0.0,-0.3225,-0.3229,-0.3236,-0.3252,-0.3281,-0.3586,-0.418,-0.4217,-0.4263,-0.4605,-0.4605,-0.4625,-0.4664,-0.4338,-0.4321,-0.4175,-0.3978,-0.3953,-0.4091,-0.3758,-0.3589,-0.357,-0.2996,-0.2706,-0.2559,-0.2559,-0.2559,-0.2558,-0.2827,-0.2692,-0.2559,-0.2694,-0.2694,-0.2694,-0.2961,-0.3095,-0.3228,-0.3095,-0.2961,-0.2961,-0.2826,-0.2961,-0.2961,-0.2826,-0.2961,-0.2961,-0.2826,-0.2692,-0.2559,-0.2559,-0.2273,-0.2258,-0.2391,-0.2495,-0.247,-0.2861,-0.3211,-0.3544,-0.3617,-0.3733,-0.3973,-0.3954,-0.3671,-0.3648,-0.3892,-0.3717,-0.3563,-0.3801,-0.3782,-0.377,-0.377,-0.4004,-0.4102,-0.4059,-0.4057,-0.4057,-0.4057,-0.3941,-0.431,-0.5409,-0.5674,-0.6398,-0.7466,-0.7706,-0.7763,-0.4426,-0.4277,-0.4128,-0.4272,-0.4457,-0.4455,-0.4332,-0.4514,-0.4671,-0.4473,-0.4065,-0.3515,0.0,0.0,-0.2513,-0.2962,-0.3047,-0.3275,-0.3734,-0.3989,-0.3824,0.0,0.0,0.0,0.0,0.0,0.0,-0.3091,0.0,-0.2574,-0.3294,-0.3299,-0.3756,-0.457,-0.4576,-0.4605,-0.4664,-0.4665,-0.4665,-0.4665,-0.4665,-0.4665,-0.4662,-0.4604,-0.4578,-0.4575,-0.4094,-0.3623,-0.3304,-0.2889,-0.2592,-0.2291,-0.2155,-0.2155,-0.2289,-0.2155,-0.2155,-0.2289,-0.2559,-0.2694,-0.2694,-0.2694,-0.2827,-0.3095,-0.2828,-0.2694,-0.2559,-0.2289,-0.2424,-0.2559,-0.2289,-0.2425,-0.2559,-0.2289,-0.2155,-0.2155,-0.2155,-0.2155,-0.2155,-0.2155,-0.2131,-0.2243,-0.2506,-0.3127,-0.3468,-0.3039,-0.3535,-0.3892,-0.3834,-0.3951,-0.3951,-0.3951,-0.3899,-0.3865,-0.3865,-0.3812,-0.3778,-0.3778,-0.4366,-0.4717,-0.4831,-0.4714,-0.4714,-0.4714,-0.3889,-0.4006,-0.5184,-0.5383,-0.6144,-0.7347,-0.7696,-0.7872,-0.5054,-0.5034,-0.5073,-0.5399,-0.542,-0.5402,-0.5339,-0.4863,-0.4485,-0.4516,-0.3817,-0.3185,-0.3401,0.0,0.0,-0.311,-0.3317,0.0,-0.3293,-0.3466,0.0,0.0,0.0,-0.2791,-0.2771,-0.2663,0.0,0.0,-0.2693,-0.2845,-0.3294,-0.3329,-0.3794,-0.4571,-0.4617,-0.4649,-0.4665,-0.4665,-0.4665,-0.4665,-0.4665,-0.4665,-0.4664,-0.4649,-0.4642,-0.4638,-0.415,-0.3978,-0.3817,-0.3051,-0.2745,-0.2596,-0.2299,-0.2289,-0.2559,-0.2289,-0.2424,-0.2559,-0.2424,-0.2289,-0.2289,-0.2289,-0.2424,-0.2423,-0.2289,-0.2289,-0.2289,-0.2289,-0.2289,-0.2289,-0.2155,-0.2289,-0.2289,-0.2155,-0.2155,-0.2155,-0.2155,-0.2155,-0.2155,-0.2155,-0.2148,-0.227,-0.251,-0.276,-0.287,-0.3087,-0.3462,-0.3684,-0.3591,-0.3826,-0.3951,-0.3951,-0.3936,-0.3928,-0.3928,-0.3913,-0.3905,-0.3905,-0.4025,-0.4367,-0.4794,-0.4792,-0.4792,-0.4792,-0.5029,-0.5296,-0.5718,-0.6228,-0.6972,-0.7704,-0.7856,-0.7872,-0.5484,-0.5548,-0.5538,-0.578,-0.5751,-0.5665,-0.5457,-0.4939,-0.4629,-0.4447,-0.3903,0.0,0.0,0.0,0.0,0.0,0.0,0.0,-0.314,-0.3335,-0.322,0.0,-0.2546,0.0,-0.2398,-0.2413,-0.2425,0.0,-0.2709,-0.2871,-0.3324,-0.351,-0.3984,-0.4612,-0.4646,-0.4665,-0.4665,-0.4665,-0.4665,-0.4665,-0.4665,-0.4665,-0.4665,-0.4665,-0.4665,-0.4662,0.0,-0.417,-0.4,-0.3358,-0.2902,-0.2745,-0.2302,-0.2289,-0.2425,-0.2289,-0.2289,-0.2425,-0.2289,-0.2155,-0.2155,-0.2155,-0.2155,-0.2155,-0.2155,-0.2155,-0.2155,-0.2155,-0.2289,-0.2424,-0.2424,-0.2558,-0.2558,-0.2424,-0.2424,-0.2424,-0.2289,-0.2155,-0.2155,-0.2155,-0.2155,-0.2283,-0.2399,-0.2528,-0.2649,-0.2611,-0.3254,-0.3614,-0.3409,-0.3629,-0.3854,-0.3706,-0.3826,-0.3951,-0.3951,-0.3951,-0.3951,-0.3951,-0.4195,-0.4666,-0.5233,-0.5231,-0.5473,-0.5716,-0.5837,-0.5981,-0.6399,-0.6766,-0.7258,-0.7872,-0.7872,-0.7872,-0.5696,-0.5782,-0.5796,-0.5784,-0.5702,-0.5531,-0.5171,-0.4941,-0.4696,-0.4322,0.0,0.0,-0.3579,0.0,-0.3033,-0.3438,0.0,-0.3137,-0.2994,-0.346,-0.3358,-0.2289,-0.2425,-0.2559,-0.2289,-0.2155,-0.2155,-0.2155,-0.2596,-0.3048,-0.3363,-0.3835,-0.4173,-0.4662,-0.4665,-0.4665,-0.4665,-0.4665,-0.4665,-0.4665,-0.4665,-0.4665,-0.4665,-0.4665,-0.4665,-0.4665,-0.4665,0.0,-0.4002,-0.3525,-0.3198,-0.2743,-0.2302,-0.2155,-0.2155,-0.2289,-0.2289,-0.2155,-0.2289,-0.2289,-0.2155,-0.2155,-0.2155,-0.2155,-0.2155,-0.2155,-0.2155,-0.2155,-0.2424,-0.2694,-0.2694,-0.2962,-0.3095,-0.2828,-0.2694,-0.2559,-0.2289,-0.2289,-0.2155,-0.2155,-0.2155,-0.2155,-0.2155,-0.2425,-0.2548,-0.2119,-0.3039,-0.3548,-0.3112,-0.3575,-0.3899,-0.3596,-0.3715,-0.3836,-0.3828,-0.3826,-0.3828,-0.3951,-0.4438,-0.5049,-0.5784,-0.5906,-0.6151,-0.6766,-0.6396,-0.6399,-0.6888,-0.7011,-0.738,-0.7872,-0.7872,-0.788,-0.5635,-0.5778,-0.5876,-0.58,-0.5655,-0.5437,-0.5077,-0.48,0.0,0.0,0.0,-0.3966,-0.3637,-0.3733,0.0,-0.3413,0.0,0.0,0.0,0.0,-0.2925,0.0,0.0,0.0,0.0,0.0,0.0,0.0,0.0,-0.3357,-0.3364,-0.3835,-0.4173,-0.4662,-0.4665,-0.4665,-0.4665,-0.4665,-0.4665,-0.4665,-0.4665,-0.4665,-0.4665,-0.4665,-0.4665,-0.4665,-0.4665,0.0,-0.4002,-0.3525,-0.3199,-0.2747,-0.2302,-0.2155,-0.2289,-0.2559,-0.2425,-0.2289,-0.2559,-0.2424,-0.2155,-0.2155,-0.2155,-0.2155,-0.2155,-0.2155,-0.2155,-0.2155,-0.2289,-0.2289,-0.2694,-0.2694,-0.2828,-0.3095,-0.2961,-0.2694,-0.2559,-0.2424,-0.2155,-0.2155,-0.2155,-0.2155,-0.2155,-0.2289,-0.2288,-0.2148,-0.2816,-0.32,-0.2764,-0.3501,-0.396,-0.3527,-0.3521,-0.3628,-0.3584,-0.358,-0.3703,-0.3828,-0.395,-0.4316,-0.5049,-0.5661,-0.5906,-0.6029,-0.7011,-0.738,-0.6888,-0.7503,-0.7747,-0.7872,-0.7872,-0.7926,-0.5678,-0.578,-0.5825,-0.5733,-0.5539,-0.5251,-0.4796,0.0,0.0,0.0,0.0,-0.3816,-0.379,0.0,0.0,0.0,0.0,0.0,0.0,0.0,0.0,0.0,0.0,0.0,0.0,0.0,0.0,0.0,0.0,-0.3365,-0.3365,-0.4002,-0.449,-0.4664,-0.4665,-0.4665,-0.4665,-0.4665,-0.4665,-0.4665,-0.4665,-0.4665,-0.4665,-0.4665,-0.4665,-0.4662,-0.4488,0.0,-0.4,-0.3358,-0.3042,-0.2747,-0.2302,-0.2289,-0.2425,-0.2694,-0.2559,-0.2559,-0.2827,-0.2692,-0.2289,-0.2424,-0.2289,-0.2155,-0.2155,-0.2155,-0.2155,-0.2155,-0.2155,-0.2289,-0.2827,-0.2961,-0.2961,-0.3229,-0.2827,-0.2425,-0.2425,-0.2289,-0.2155,-0.2155,-0.2289,-0.2425,-0.2425,-0.2558,-0.2692,-0.2692,-0.3229,-0.349,-0.32,-0.384,-0.4055,-0.3582,-0.3701,-0.3818,-0.3791,-0.3762,-0.3869,-0.3995,-0.3966,-0.4195,-0.4926,-0.517,-0.5661,-0.6399,-0.7011,-0.738,-0.738,-0.7747,-0.7905,-0.7967,-0.7967,-0.8032,-0.5655,-0.5723,-0.5725,-0.5616,-0.54,-0.5073,-0.453,-0.4183,0.0,0.0,-0.3602,-0.363,-0.3936,0.0,0.0,0.0,0.0,0.0,0.0,0.0,0.0,0.0,0.0,0.0,0.0,0.0,0.0,0.0,0.0,0.0,-0.3674,-0.4324,-0.4665,-0.4665,-0.4665,-0.4665,-0.4665,-0.4665,-0.4665,-0.4665,-0.4665,-0.4665,-0.4664,-0.4651,-0.4501,-0.4498,-0.4011,0.0,0.0,-0.3049,-0.2743,-0.2599,-0.2299,-0.2424,-0.2694,-0.2828,-0.2828,-0.2694,-0.3095,-0.2826,-0.2289,-0.2559,-0.2424,-0.2155,-0.2155,-0.2155,-0.2155,-0.2155,-0.2155,-0.2289,-0.296,-0.3095,-0.3095,-0.3095,-0.2692,-0.2289,-0.2155,-0.2155,-0.2155,-0.2155,-0.2424,-0.2559,-0.2694,-0.2962,-0.3095,-0.3228,-0.3498,-0.3768,-0.3768,-0.4038,-0.4138,-0.3782,-0.3892,-0.401,-0.3998,-0.3953,-0.3927,-0.4055,-0.4,-0.4213,-0.4703,-0.4812,-0.5416,-0.6396,-0.6664,-0.7047,-0.7787,-0.7565,-0.7624,-0.7966,-0.7966,-0.7904,-0.5414,-0.5535,-0.5616,-0.5447,-0.5261,-0.4979,-0.4436,0.0,0.0,0.0,-0.3498,-0.3493,-0.3868,-0.3949,0.0,0.0,0.0,0.0,0.0,0.0,0.0,0.0,0.0,0.0,0.0,0.0,0.0,0.0,0.0,0.0,-0.4494,-0.4658,-0.4665,-0.4665,-0.4665,-0.4665,-0.4665,-0.4665,-0.4665,-0.4665,-0.4665,-0.4665,-0.4662,-0.4321,-0.4013,-0.401,-0.3674,0.0,0.0,-0.2889,-0.2593,-0.2294,-0.2156,-0.2424,-0.2694,-0.3095,-0.2961,-0.2694,-0.3095,-0.2826,-0.2155,-0.2289,-0.2289,-0.2155,-0.2155,-0.2155,-0.2155,-0.2155,-0.2155,-0.2289,-0.296,-0.2961,-0.2694,-0.2694,-0.2694,-0.2559,-0.2289,-0.2155,-0.2155,-0.2155,-0.2289,-0.2289,-0.2694,-0.2694,-0.2828,-0.3095,-0.3498,-0.3768,-0.3768,-0.4038,-0.4303,-0.4292,-0.3975,-0.3662,-0.3613,-0.3604,-0.3731,-0.4117,-0.406,-0.4026,-0.4026,-0.4591,-0.4925,-0.5047,-0.5739,-0.6406,-0.7159,-0.6622,-0.6671,-0.7321,-0.7321,-0.7379,-0.5337,-0.5469,-0.5533,-0.5412,-0.5202,-0.4885,-0.4346,0.0,0.0,-0.3544,-0.3331,-0.3255,-0.3585,-0.3633,-0.3595,-0.3287,-0.3372,-0.3375,0.0,0.0,0.0,0.0,0.0,0.0,0.0,0.0,0.0,0.0,0.0,0.0,-0.384,-0.4162,-0.4165,-0.3988,-0.4163,-0.4164,-0.3987,-0.3987,-0.3987,-0.3987,-0.3987,-0.3987,-0.3844,-0.3683,-0.3675,-0.3672,-0.3206,0.0,0.0,-0.2589,-0.2301,-0.2155,-0.2424,-0.2693,-0.2961,-0.3095,-0.3095,-0.2961,-0.3095,-0.2826,-0.2289,-0.2424,-0.2424,-0.2155,-0.2155,-0.2155,-0.2155,-0.2155,-0.2155,-0.2289,-0.296,-0.3095,-0.2961,-0.2961,-0.2693,-0.2424,-0.2289,-0.2155,-0.2289,-0.2425,-0.2692,-0.2961,-0.323,-0.35,-0.3769,-0.3902,-0.4038,-0.4038,-0.4038,-0.4172,-0.4308,-0.4308,-0.4151,-0.3994,-0.3971,-0.3938,-0.405,-0.418,-0.4123,-0.4089,-0.4089,-0.4319,-0.4557,-0.5063,-0.5345,-0.5743,-0.6506,-0.6289,-0.6337,-0.6651,-0.6651,-0.6705,-0.5153,-0.5302,-0.5369,-0.5282,-0.5055,-0.4726,0.0,0.0,-0.3593,-0.3415,-0.3232,-0.3105,-0.3334,-0.3349,-0.3248,-0.2998,-0.3072,-0.315,-0.3089,0.0,0.0,0.0,0.0,0.0,0.0,0.0,0.0,0.0,0.0,0.0,0.0,-0.3369,-0.3526,-0.3365,-0.3679,-0.3681,-0.3365,-0.3365,-0.3365,-0.3365,-0.3365,-0.3365,-0.3364,-0.3212,-0.3206,-0.3204,-0.2749,0.0,0.0,-0.2299,-0.2289,-0.2424,-0.2559,-0.2962,-0.3363,-0.3228,-0.3228,-0.3228,-0.3095,-0.2692,-0.2289,-0.2559,-0.2559,-0.2424,-0.2424,-0.2423,-0.2289,-0.2289,-0.2558,-0.2692,-0.2961,-0.3094,-0.3094,-0.296,-0.2558,-0.2155,-0.2155,-0.2289,-0.2424,-0.2694,-0.2961,-0.3363,-0.3768,-0.4038,-0.4172,-0.4308,-0.4308,-0.4308,-0.4308,-0.4308,-0.4308,-0.4308,-0.4308,-0.4308,-0.4308,-0.4268,-0.4243,-0.4243,-0.4187,-0.4153,-0.4153,-0.4135,-0.4383,-0.4767,-0.4788,-0.5187,-0.5831,-0.5728,-0.5769,-0.6091,-0.6091,-0.6125,-0.4792,-0.4973,-0.509,-0.5,-0.4773,-0.4481,0.0,-0.3912,-0.3659,-0.3264,-0.3152,-0.3117,-0.3209,-0.3092,-0.2971,-0.2991,-0.3071,-0.3065,-0.3089,0.0,0.0,0.0,0.0,0.0,0.0,0.0,0.0,0.0,0.0,0.0,0.0,-0.2594,-0.3045,-0.3364,-0.3365,-0.3365,-0.3365,-0.3365,-0.3365,-0.3365,-0.3365,-0.3365,-0.3363,-0.3045,-0.2751,0.0,0.0,0.0,0.0,-0.2155,-0.2424,-0.2694,-0.2694,-0.3097,-0.3768,-0.3363,-0.3228,-0.3095,-0.2828,-0.2425,-0.2289,-0.2559,-0.2694,-0.2694,-0.3095,-0.2961,-0.2694,-0.2694,-0.3231,-0.3633,-0.2828,-0.2961,-0.3095,-0.2423,-0.2155,-0.2155,-0.2155,-0.2425,-0.2694,-0.2694,-0.2961,-0.3363,-0.3768,-0.3768,-0.3902,-0.4307,-0.4308,-0.4308,-0.4308,-0.4308,-0.4308,-0.4308,-0.4308,-0.4308,-0.4308,-0.4307,-0.4307,-0.4307,-0.4249,-0.4215,-0.4215,-0.4158,-0.4125,-0.4125,-0.4185,-0.461,-0.5267,-0.4675,-0.4708,-0.5379,-0.5379,-0.5781,-0.4334,-0.4512,-0.4516,-0.4181,-0.3904,-0.3763,-0.328,-0.3127,-0.3017,-0.2909,-0.2716,-0.2603,-0.2667,-0.2557,-0.2518,-0.2659,-0.2773,0.0,0.0,0.0,0.0,0.0,0.0,0.0,0.0,0.0,0.0,0.0,0.0,0.0,0.0,-0.2299,-0.2445,-0.2592,-0.2891,-0.2893,-0.2592,-0.2592,-0.2592,-0.2592,-0.2592,-0.2592,-0.2592,-0.2445,0.0,0.0,0.0,0.0,0.0,-0.2155,-0.2289,-0.2424,-0.2827,-0.3229,-0.3363,-0.3228,-0.3228,-0.3094,-0.2558,-0.2289,-0.2155,-0.2289,-0.2424,-0.2424,-0.2423,-0.2827,-0.2961,-0.2828,-0.3231,-0.3633,-0.2828,-0.2961,-0.3095,-0.2693,-0.2424,-0.2289,-0.2559,-0.2559,-0.2828,-0.3366,-0.3499,-0.3768,-0.4038,-0.4172,-0.4172,-0.4308,-0.4308,-0.4308,-0.4308,-0.4308,-0.4308,-0.4308,-0.4308,-0.4308,-0.4308,-0.4308,-0.4308,-0.4308,-0.4289,-0.4279,-0.4279,-0.426,-0.4249,-0.4249,-0.4268,-0.4411,-0.4678,-0.4433,-0.4442,-0.471,-0.471,-0.471,0.0,-0.421,-0.4214,-0.3793,-0.3558,-0.3364,-0.2963,-0.2867,-0.2729,-0.2492,-0.2426,-0.2411,-0.2238,-0.2206,-0.223,-0.2463,-0.259,0.0,0.0,0.0,0.0,0.0,0.0,0.0,0.0,0.0,0.0,0.0,0.0,0.0,0.0,-0.2155,-0.2155,-0.2155,-0.2581,-0.2582,-0.2155,-0.2289,-0.2289,-0.2155,-0.2289,-0.2289,-0.2155,-0.2423,0.0,0.0,0.0,0.0,0.0,-0.2155,-0.2289,-0.2424,-0.2827,-0.3095,-0.3228,-0.3095,-0.2961,-0.2961,-0.2424,-0.2155,-0.2155,-0.2289,-0.2424,-0.2558,-0.2558,-0.2826,-0.3229,-0.3097,-0.3499,-0.3633,-0.2828,-0.2828,-0.2961,-0.2558,-0.2289,-0.2289,-0.2425,-0.2559,-0.2828,-0.3498,-0.3633,-0.3902,-0.4307,-0.4308,-0.4308,-0.4308,-0.4308,-0.4308,-0.4308,-0.4308,-0.4308,-0.4308,-0.4308,-0.4308,-0.4308,-0.4308,-0.4308,-0.4308,-0.4308,-0.4308,-0.4308,-0.4308,-0.4308,-0.4308,-0.4308,-0.4308,-0.4308,-0.4308,-0.4308,-0.4308,-0.4308,-0.4308,0.0,-0.3925,-0.3941,-0.3775,-0.3516,-0.3286,-0.2987,-0.2911,0.0,-0.2119,-0.2332,-0.2449,-0.1948,-0.2058,-0.2208,-0.2356,-0.2515,0.0,0.0,0.0,0.0,0.0,0.0,0.0,0.0,0.0,0.0,0.0,0.0,0.0,0.0,-0.2155,-0.2155,-0.2155,-0.2559,-0.2559,-0.2289,-0.2559,-0.2559,-0.2289,-0.2559,-0.2559,-0.2289,-0.296,-0.2826,0.0,0.0,0.0,0.0,-0.2155,-0.2424,-0.2694,-0.2694,-0.2827,-0.3094,-0.2828,-0.2694,-0.2694,-0.2289,-0.2155,-0.2289,-0.2559,-0.2827,-0.3095,-0.3095,-0.3228,-0.3228,-0.3633,-0.3768,-0.3633,-0.2828,-0.2694,-0.2559,-0.2289,-0.2289,-0.2289,-0.2289,-0.2558,-0.2828,-0.3229,-0.3632,-0.3902,-0.4307,-0.4308,-0.4308,-0.4308,-0.4308,-0.4308,-0.4308,-0.4308,-0.4308,-0.4308,-0.4308,-0.4308,-0.4308,-0.4308,-0.4308,-0.4308,-0.4308,-0.4308,-0.4308,-0.4308,-0.4308,-0.4308,-0.4308,-0.4308,-0.4308,-0.4308,-0.4308,-0.4308,-0.4308,-0.4308,-0.2929,0.0,-0.3065,-0.2686,-0.249,-0.2281,0.0,-0.2098,-0.2131,0.0,0.0,-0.2244,-0.2167,-0.2175,-0.2353,-0.2748,0.0,0.0,0.0,0.0,0.0,0.0,0.0,0.0,0.0,0.0,0.0,0.0,0.0,0.0,0.0,-0.2289,-0.2155,-0.2155,-0.2559,-0.2694,-0.2559,-0.2424,-0.2424,-0.2559,-0.2694,-0.2694,-0.2559,-0.296,-0.3094,0.0,0.0,0.0,-0.2559,-0.2289,-0.2289,-0.2289,-0.2559,-0.2694,-0.2828,-0.2694,-0.2694,-0.2694,-0.2289,-0.2155,-0.2155,-0.2289,-0.2424,-0.2424,-0.2693,-0.2961,-0.3229,-0.2962,-0.3096,-0.3229,-0.2558,-0.2559,-0.2694,-0.2559,-0.2559,-0.2694,-0.3365,-0.3499,-0.3633,-0.4037,-0.4172,-0.4172,-0.4308,-0.4308,-0.4308,-0.4308,-0.4308,-0.4308,-0.4308,-0.4308,-0.4308,-0.4308,-0.4308,-0.4308,-0.4308,-0.4308,-0.4308,-0.4308,-0.4308,-0.4308,-0.4308,-0.4308,-0.4308,-0.4308,-0.4308,-0.4308,-0.4308,-0.4308,-0.4308,-0.4308,-0.4308,-0.4308,-0.2577,-0.2707,-0.2823,-0.2427,-0.2255,-0.2197,-0.2004,0.0,0.0,0.0,0.0,0.0,-0.2148,0.0,0.0,0.0,0.0,0.0,0.0,0.0,0.0,0.0,0.0,0.0,0.0,0.0,0.0,0.0,0.0,0.0,0.0,-0.2289,-0.2155,-0.2155,-0.2424,-0.2425,-0.2425,-0.2425,-0.2425,-0.2425,-0.2694,-0.2559,-0.2425,-0.296,-0.3095,0.0,0.0,0.0,-0.2425,-0.2289,-0.2155,-0.2155,-0.2424,-0.2425,-0.2425,-0.2425,-0.2425,-0.2425,-0.2289,-0.2155,-0.2155,-0.2155,-0.2289,-0.2425,-0.2694,-0.2961,-0.3095,-0.2828,-0.2828,-0.2827,-0.2289,-0.2425,-0.2694,-0.2559,-0.2693,-0.2961,-0.3231,-0.3365,-0.3632,-0.4038,-0.4038,-0.4172,-0.4307,-0.4308,-0.4308,-0.4308,-0.4308,-0.4308,-0.4308,-0.4308,-0.4308,-0.4308,-0.4308,-0.4308,-0.4308,-0.4308,-0.4308,-0.4308,-0.4308,-0.4308,-0.4308,-0.4308,-0.4308,-0.4308,-0.4308,-0.4308,-0.4308,-0.4308,-0.4308,-0.4308,-0.4308,-0.4308,-0.2455,-0.2627,-0.2724,-0.2461,-0.2426,-0.2436,-0.2224,0.0,0.0,0.0,0.0,0.0,0.0,0.0,0.0,0.0,0.0,0.0,0.0,0.0,0.0,0.0,0.0,0.0,0.0,0.0,0.0,0.0,0.0,0.0,0.0,-0.2289,-0.2155,-0.2155,-0.2155,-0.2155,-0.2155,-0.2425,-0.2559,-0.2289,-0.2559,-0.2559,-0.2289,-0.296,-0.2826,-0.2424,0.0,0.0,-0.2289,-0.2155,-0.2155,-0.2155,-0.2155,-0.2155,-0.2155,-0.2155,-0.2155,-0.2155,-0.2289,-0.2289,-0.2289,-0.2289,-0.2558,-0.2828,-0.2828,-0.2961,-0.3095,-0.2828,-0.2828,-0.2693,-0.2423,-0.2558,-0.2693,-0.2558,-0.2826,-0.3229,-0.2962,-0.323,-0.3498,-0.3768,-0.3902,-0.3902,-0.4307,-0.4308,-0.4308,-0.4308,-0.4308,-0.4308,-0.4308,-0.4308,-0.4308,-0.4308,-0.4308,-0.4308,-0.4308,-0.4308,-0.4308,-0.4308,-0.4308,-0.4308,-0.4308,-0.4308,-0.4308,-0.4308,-0.4308,-0.4308,-0.4308,-0.4308,-0.4308,-0.4308,-0.4308,-0.4308,-0.2165,-0.2161,-0.2177,-0.2186,-0.2223,-0.2215,-0.2102,0.0,0.0,0.0,0.0,0.0,0.0,0.0,0.0,0.0,0.0,0.0,0.0,0.0,0.0,0.0,0.0,0.0,0.0,0.0,0.0,0.0,0.0,0.0,0.0,-0.2289,-0.2155,-0.2155,-0.2155,-0.2155,-0.2155,-0.2289,-0.2424,-0.2559,-0.2694,-0.2694,-0.2694,-0.296,-0.3095,-0.3095,0.0,-0.2694,-0.2559,-0.2289,-0.2155,-0.2155,-0.2155,-0.2155,-0.2155,-0.2155,-0.2155,-0.2289,-0.2559,-0.2559,-0.2693,-0.296,-0.3095,-0.3095,-0.3095,-0.3095,-0.3228,-0.3095,-0.3095,-0.3095,-0.3095,-0.3095,-0.3229,-0.3499,-0.3633,-0.3768,-0.4038,-0.4038,-0.4172,-0.4172,-0.4172,-0.4307,-0.4308,-0.4308,-0.4308,-0.4308,-0.4308,-0.4308,-0.4308,-0.4308,-0.4308,-0.4308,-0.4308,-0.4308,-0.4308,-0.4308,-0.4308,-0.4308,-0.4308,-0.4308,-0.4308,-0.4308,-0.4308,-0.4308,-0.4308,-0.4308,-0.4308,-0.4308,-0.4308,-0.4308,-0.4308,-0.4308,-0.1956,-0.201,-0.2066,-0.1934,-0.2118,-0.2317,-0.2416,0.0,0.0,0.0,0.0,0.0,0.0,0.0,0.0,0.0,0.0,0.0,0.0,0.0,0.0,0.0,0.0,0.0,0.0,0.0,0.0,0.0,0.0,0.0,0.0,0.0,-0.2155,-0.2155,-0.2155,-0.2155,-0.2155,-0.2155,-0.2289,-0.2424,-0.2424,-0.2424,-0.2424,-0.2558,-0.2691,-0.2692,0.0,-0.2424,-0.2424,-0.2289,-0.2155,-0.2155,-0.2155,-0.2289,-0.2559,-0.2692,-0.2692,-0.2827,-0.2961,-0.2961,-0.2961,-0.3095,-0.3363,-0.3498,-0.3498,-0.3632,-0.3768,-0.3768,-0.3498,-0.3228,-0.3228,-0.3363,-0.3498,-0.3231,-0.3635,-0.4038,-0.3768,-0.4038,-0.4308,-0.4308,-0.4308,-0.4308,-0.4308,-0.4308,-0.4308,-0.4308,-0.4308,-0.4308,-0.4308,-0.4308,-0.4308,-0.4308,-0.4308,-0.4308,-0.4308,-0.4308,-0.4308,-0.4308,-0.4308,-0.4308,-0.4308,-0.4308,-0.4308,-0.4308,-0.4308,-0.4308,-0.4308,-0.4308,-0.4308,-0.4308,-0.4308,-0.4308,-0.1849,-0.2003,-0.2096,-0.1998,0.0,-0.2392,-0.2598,0.0,0.0,0.0,0.0,0.0,0.0,0.0,0.0,0.0,0.0,0.0,0.0,0.0,0.0,0.0,0.0,0.0,0.0,0.0,0.0,0.0,0.0,0.0,0.0,0.0,-0.2423,-0.2423,-0.2423,-0.2423,-0.2423,-0.2423,-0.2423,-0.2289,-0.2289,-0.2289,-0.2289,-0.2289,-0.2289,-0.2155,-0.2423,-0.2424,-0.2289,-0.2423,-0.2423,-0.2423,-0.2423,-0.2558,-0.2828,-0.3095,-0.3228,-0.3228,-0.3362,-0.3363,-0.3363,-0.3498,-0.3633,-0.3902,-0.3902,-0.4038,-0.4308,-0.4308,-0.3902,-0.3498,-0.3363,-0.3632,-0.3768,-0.3097,-0.3635,-0.4172,-0.3632,-0.3902,-0.4308,-0.4172,-0.4172,-0.4172,-0.4172,-0.4172,-0.4172,-0.4308,-0.4308,-0.4308,-0.4308,-0.4308,-0.4308,-0.4308,-0.4308,-0.4308,-0.4308,-0.4308,-0.4308,-0.4308,-0.4308,-0.4308,-0.4308,-0.4308,-0.4308,-0.4308,-0.4308,-0.4308,-0.4308,-0.4308,-0.4308,-0.4308,-0.4308,-0.4308,-0.1999,-0.1966,-0.1918,-0.2285,-0.2344,0.0,-0.2322,0.0,0.0,0.0,0.0,0.0,0.0,0.0,0.0,0.0,0.0,0.0,0.0,0.0,0.0,0.0,0.0,0.0,0.0,0.0,0.0,0.0,0.0,0.0,0.0,0.0,0.0,-0.3094,-0.3094,-0.3094,-0.3094,-0.3094,-0.2961,-0.2694,-0.2289,-0.2424,-0.2694,-0.2694,-0.2559,-0.2289,-0.2826,-0.2961,-0.2694,-0.296,-0.3094,-0.3094,-0.3094,-0.3095,-0.3229,-0.3228,-0.3228,-0.3228,-0.3632,-0.3768,-0.3768,-0.4172,-0.4307,-0.4307,-0.4307,-0.4308,-0.4308,-0.4308,-0.4307,-0.4172,-0.3902,-0.4038,-0.4172,-0.3768,-0.4038,-0.4308,-0.4172,-0.4307,-0.4172,-0.3902,-0.3902,-0.3902,-0.3902,-0.3902,-0.3902,-0.4307,-0.4308,-0.4308,-0.4308,-0.4308,-0.4308,-0.4308,-0.4308,-0.4308,-0.4308,-0.4308,-0.4308,-0.4308,-0.4308,-0.4308,-0.4308,-0.4308,-0.4308,-0.4308,-0.4308,-0.4308,-0.4308,-0.4308,-0.4308,-0.4308,-0.4308,-0.4308,-0.188,-0.1986,-0.2095,-0.2122,0.0,0.0,0.0,0.0,0.0,0.0,0.0,0.0,0.0,0.0,0.0,0.0,0.0,0.0,0.0,0.0,0.0,0.0,0.0,0.0,0.0,0.0,0.0,0.0,0.0,0.0,0.0,0.0,0.0,-0.3228,-0.3228,-0.3228,-0.3228,-0.3228,-0.3229,-0.3366,-0.2961,-0.2826,-0.2961,-0.2961,-0.2961,-0.2826,-0.3094,-0.3094,-0.2961,-0.3095,-0.3228,-0.3228,-0.3498,-0.3632,-0.3632,-0.3768,-0.3902,-0.3902,-0.4038,-0.4172,-0.4172,-0.4307,-0.4308,-0.4308,-0.4308,-0.4308,-0.4308,-0.4308,-0.4308,-0.4307,-0.4172,-0.4172,-0.4172,-0.3902,-0.4038,-0.4307,-0.4038,-0.4172,-0.4172,-0.3902,-0.3768,-0.3768,-0.3498,-0.3632,-0.3902,-0.3902,-0.4172,-0.4308,-0.4308,-0.4308,-0.4308,-0.4308,-0.4308,-0.4308,-0.4308,-0.4308,-0.4308,-0.4308,-0.4308,-0.4308,-0.4308,-0.4308,-0.4308,-0.4308,-0.4308,-0.4308,-0.4308,-0.4308,-0.4308,-0.4308,-0.4308,-0.4308,-0.1794,-0.2045,-0.2192,0.0,0.0,0.0,0.0,0.0,0.0,0.0,0.0,0.0,0.0,0.0,0.0,0.0,0.0,0.0,0.0,0.0,0.0,0.0,0.0,0.0,0.0,0.0,0.0,0.0,0.0,0.0,0.0,0.0,0.0,0.0,-0.3498,-0.3498,-0.3498,-0.3498,-0.3633,-0.3902,-0.3633,-0.3498,-0.3363,-0.3363,-0.3362,-0.3228,-0.3498,-0.3498,-0.3363,-0.3498,-0.3498,-0.3632,-0.3902,-0.3902,-0.4038,-0.4172,-0.4308,-0.4308,-0.4308,-0.4308,-0.4308,-0.4308,-0.4308,-0.4308,-0.4308,-0.4308,-0.4308,-0.4308,-0.4308,-0.4308,-0.4308,-0.4308,-0.4172,-0.3902,-0.4038,-0.4172,-0.4038,-0.4172,-0.4172,-0.3902,-0.3633,-0.3498,-0.3228,-0.3365,-0.3499,-0.3632,-0.3902,-0.4172,-0.4172,-0.4172,-0.4308,-0.4308,-0.4308,-0.4441,-0.4575,-0.4442,-0.4441,-0.4575,-0.4442,-0.4308,-0.4308,-0.4308,-0.4308,-0.4308,-0.4308,-0.4308,-0.4308,-0.4308,-0.4308,-0.4308,-0.4308,-0.4308,-0.1971,-0.2105,0.0,0.0,0.0,0.0,0.0,0.0,0.0,0.0,0.0,0.0,0.0,0.0,0.0,0.0,0.0,0.0,0.0,0.0,0.0,0.0,0.0,0.0,0.0,0.0,0.0,0.0,0.0,0.0,0.0,0.0,0.0,0.0,-0.4308,-0.4308,-0.4308,-0.4308,-0.4308,-0.4308,-0.4308,-0.4172,-0.3768,-0.3768,-0.3632,-0.3228,-0.4038,-0.4172,-0.3768,-0.4172,-0.4308,-0.4308,-0.4308,-0.4308,-0.4308,-0.4308,-0.4308,-0.4308,-0.4308,-0.4308,-0.4308,-0.4308,-0.4308,-0.4308,-0.4308,-0.4308,-0.4308,-0.4308,-0.4308,-0.4308,-0.4308,-0.4308,-0.4172,-0.3902,-0.4038,-0.4308,-0.4308,-0.4308,-0.4172,-0.3902,-0.3498,-0.3228,-0.3228,-0.2962,-0.2828,-0.3095,-0.3498,-0.3768,-0.3768,-0.4038,-0.4308,-0.4308,-0.4308,-0.4575,-0.5381,-0.471,-0.4575,-0.5381,-0.471,-0.4308,-0.4308,-0.4308,-0.4308,-0.4308,-0.4308,-0.4308,-0.4308,-0.4308,-0.4308,-0.4308,-0.4308,-0.4308,-0.1849,-0.2132,0.0,0.0,0.0,0.0,0.0,0.0,0.0,0.0,0.0,0.0,0.0,0.0,0.0,0.0,0.0,0.0,0.0,0.0,0.0,0.0,0.0,0.0,0.0,0.0,0.0,0.0,0.0,0.0,0.0,0.0,0.0,0.0,-0.4151,-0.4308,-0.4308,-0.4308,-0.4308,-0.4308,-0.4308,-0.4307,-0.4172,-0.4172,-0.4038,-0.4038,-0.4172,-0.4307,-0.4172,-0.4307,-0.4308,-0.4308,-0.4308,-0.4308,-0.4308,-0.4308,-0.4308,-0.4308,-0.4308,-0.4308,-0.4308,-0.4308,-0.4308,-0.4308,-0.4308,-0.4308,-0.4308,-0.4308,-0.4308,-0.4308,-0.4308,-0.4308,-0.4308,-0.4172,-0.4172,-0.4308,-0.4308,-0.4308,-0.4172,-0.3902,-0.3498,-0.3094,-0.2827,-0.2828,-0.2694,-0.2828,-0.3096,-0.3363,-0.3363,-0.417,-0.444,-0.4037,-0.4575,-0.4978,-0.471,-0.4844,-0.5112,-0.5381,-0.5247,-0.4844,-0.4308,-0.4308,-0.4308,-0.4308,-0.4308,-0.4308,-0.4308,-0.4308,-0.4308,-0.4308,-0.4308,-0.4308,-0.1972,0.0,0.0,0.0,0.0,0.0,0.0,0.0,0.0,0.0,0.0,0.0,0.0,0.0,0.0,0.0,0.0,0.0,0.0,0.0,0.0,0.0,0.0,0.0,0.0,0.0,0.0,0.0,0.0,0.0,0.0,0.0,0.0,0.0,-0.3951,-0.397,-0.3839,-0.3839,-0.3839,-0.3839,-0.3839,-0.385,-0.4005,-0.4162,-0.4308,-0.4308,-0.4308,-0.4308,-0.4308,-0.4308,-0.4308,-0.4308,-0.4308,-0.4308,-0.4308,-0.4308,-0.4308,-0.4308,-0.4308,-0.4308,-0.4308,-0.4308,-0.4308,-0.4308,-0.4308,-0.4308,-0.4308,-0.4308,-0.4308,-0.4308,-0.4308,-0.4308,-0.4308,-0.4308,-0.4308,-0.4308,-0.4308,-0.4308,-0.4307,-0.4038,-0.3633,-0.3363,-0.3366,-0.2963,-0.2694,-0.2827,-0.323,-0.3363,-0.3228,-0.4035,-0.444,-0.417,-0.4841,-0.5243,-0.5512,-0.5647,-0.5915,-0.6182,-0.5915,-0.5515,-0.471,-0.4442,-0.4308,-0.4308,-0.4308,-0.4308,-0.4308,-0.4308,-0.4308,-0.4308,-0.4308,-0.4308,0.0,0.0,0.0,0.0,0.0,0.0,0.0,0.0,0.0,0.0,0.0,0.0,0.0,0.0,0.0,0.0,0.0,0.0,0.0,0.0,0.0,0.0,0.0,0.0,0.0,0.0,0.0,0.0,0.0,0.0,0.0,0.0,0.0,-0.3602,-0.3606,-0.3482,-0.3226,-0.3226,-0.3226,-0.3226,-0.3226,-0.3377,-0.3683,-0.4137,-0.4301,-0.4308,-0.4308,-0.4308,-0.4308,-0.4308,-0.4308,-0.4308,-0.4308,-0.4308,-0.4308,-0.4308,-0.4308,-0.4308,-0.4308,-0.4308,-0.4308,-0.4308,-0.4308,-0.4308,-0.4308,-0.4308,-0.4308,-0.4308,-0.4308,-0.4308,-0.4308,-0.4308,-0.4308,-0.4308,-0.4308,-0.4308,-0.4308,-0.4308,-0.4308,-0.4308,-0.4038,-0.3902,-0.4172,-0.35,-0.2962,-0.3228,-0.3632,-0.3767,-0.3362,-0.4037,-0.4574,-0.4841,-0.4973,-0.5642,-0.7247,-0.6851,-0.6851,-0.7514,-0.6851,-0.6183,-0.5647,-0.4844,-0.4307,-0.4308,-0.4308,-0.4308,-0.4308,-0.4308,-0.4308,-0.4308,-0.4308,-0.4308,0.0,0.0,0.0,0.0,0.0,0.0,0.0,0.0,0.0,0.0,0.0,0.0,0.0,0.0,0.0,0.0,0.0,0.0,0.0,0.0,0.0,0.0,0.0,0.0,0.0,0.0,0.0,0.0,0.0,0.0,0.0,0.0,0.0,-0.3551,-0.3845,-0.3997,-0.3868,-0.3868,-0.3868,0.0,-0.3868,-0.3745,-0.3627,-0.3812,-0.3994,-0.4308,-0.4308,-0.4308,-0.4308,-0.4308,-0.4308,-0.4308,-0.4308,-0.4308,-0.4308,-0.4308,-0.4308,-0.4308,-0.4308,-0.4308,-0.4308,-0.4308,-0.4308,-0.4308,-0.4308,-0.4308,-0.4308,-0.4308,-0.4308,-0.4308,-0.4308,-0.4308,-0.4308,-0.4308,-0.4308,-0.4308,-0.4308,-0.4308,-0.4308,-0.4308,-0.4038,-0.3768,-0.3902,-0.3768,-0.3633,-0.4033,-0.4167,-0.4167,-0.4033,-0.4973,-0.5377,-0.4841,-0.5778,-0.6447,-0.6313,-0.6849,-0.7381,-0.7514,-0.7381,-0.725,-0.7114,-0.578,-0.4844,-0.4308,-0.4308,-0.4308,-0.4308,-0.4308,-0.4308,-0.4308,-0.4308,-0.4308,0.0,0.0,0.0,0.0,0.0,0.0,0.0,0.0,0.0,0.0,0.0,0.0,0.0,0.0,0.0,0.0,0.0,0.0,0.0,0.0,0.0,0.0,0.0,0.0,0.0,0.0,0.0,0.0,0.0,0.0,0.0,-0.3607,-0.3623,-0.3497,-0.3648,-0.3789,-0.3535,-0.3535,-0.3535,-0.3535,-0.3535,-0.3548,-0.3576,-0.3499,-0.3681,-0.3997,-0.3997,-0.4146,-0.4308,-0.4308,-0.4308,-0.4308,-0.4308,-0.4308,-0.4308,-0.4308,-0.4308,-0.4308,-0.4308,-0.4308,-0.4308,-0.4308,-0.4308,-0.4308,-0.4308,-0.4308,-0.4308,-0.4308,-0.4308,-0.4308,-0.4308,-0.4308,-0.4308,-0.4308,-0.4308,-0.4308,-0.4308,-0.4441,-0.4574,-0.4574,-0.4574,-0.4574,-0.4841,-0.4707,-0.4572,-0.4301,-0.4571,-0.4705,-0.4301,-0.5108,-0.5512,-0.5376,-0.6046,-0.6583,-0.6985,-0.7519,-0.7786,-0.7786,-0.7786,-0.765,-0.725,-0.6583,-0.5781,-0.4844,-0.5112,-0.4978,-0.4308,-0.4305,-0.4305,-0.4308,-0.4308,-0.4308,0.0,0.0,0.0,0.0,0.0,0.0,0.0,0.0,0.0,0.0,0.0,0.0,0.0,0.0,0.0,0.0,0.0,0.0,0.0,0.0,0.0,0.0,0.0,0.0,0.0,0.0,0.0,0.0,0.0,0.0,-0.3812,-0.3821,-0.3826,-0.358,-0.358,-0.3455,-0.3208,-0.3208,-0.3208,-0.3208,-0.3085,-0.323,-0.3523,-0.3185,-0.3359,-0.3806,-0.3675,-0.3832,-0.4143,-0.4152,-0.4158,-0.4159,-0.4303,-0.4308,-0.4308,-0.4308,-0.4308,-0.4308,-0.4308,-0.4308,-0.4308,-0.4308,-0.4308,-0.4308,-0.4308,-0.4308,-0.4308,-0.4308,-0.4308,-0.4308,-0.4308,-0.4308,-0.4308,-0.4308,-0.4308,-0.4308,-0.4308,-0.4574,-0.4707,-0.4839,-0.5111,-0.5513,-0.5778,-0.5647,-0.5243,-0.4704,-0.5243,-0.5379,-0.4704,-0.5243,-0.5647,-0.5914,-0.6046,-0.6583,-0.7789,-0.7925,-0.8058,-0.8058,-0.8058,-0.7789,-0.7121,-0.7118,-0.6585,-0.5649,-0.6185,-0.5917,-0.4845,-0.4571,-0.4571,-0.471,-0.4711,-0.4845,0.0,0.0,0.0,0.0,0.0,0.0,0.0,0.0,0.0,0.0,0.0,0.0,0.0,0.0,0.0,0.0,0.0,0.0,0.0,0.0,0.0,0.0,0.0,0.0,0.0,0.0,0.0,0.0,0.0,0.0,-0.3507,-0.3799,-0.3828,-0.3828,-0.3826,-0.3826,-0.3826,-0.3826,-0.3826,-0.3826,-0.3579,-0.3459,-0.3467,-0.3101,-0.3402,-0.4009,-0.3749,-0.3624,-0.3634,-0.3811,-0.3831,-0.3836,-0.4152,-0.4308,-0.4308,-0.4308,-0.4308,-0.4308,-0.4308,-0.4308,-0.4308,-0.4308,-0.4308,-0.4308,-0.4308,-0.4308,-0.4308,-0.4308,-0.4308,-0.4308,-0.4308,-0.4308,-0.4308,-0.4308,-0.4308,-0.4308,-0.4308,-0.4307,-0.4441,-0.4707,-0.5111,-0.5513,-0.5778,-0.5912,-0.5914,-0.6183,-0.6319,-0.6319,-0.6183,-0.6319,-0.6319,-0.6453,-0.6719,-0.6985,-0.7118,-0.739,-0.7526,-0.7526,-0.7526,-0.7526,-0.7393,-0.7393,-0.7125,-0.6319,-0.6319,-0.6589,-0.6862,-0.5914,-0.5778,-0.6185,-0.6591,-0.6864,0.0,0.0,0.0,0.0,0.0,0.0,0.0,0.0,0.0,0.0,0.0,0.0,0.0,0.0,0.0,0.0,0.0,0.0,0.0,0.0,0.0,0.0,0.0,0.0,0.0,0.0,0.0,0.0,0.0,-0.357,-0.3331,-0.3474,-0.3487,-0.3366,-0.3366,-0.3366,-0.3366,-0.3518,-0.3673,-0.3951,-0.3826,-0.3703,-0.3703,-0.358,-0.3622,-0.3696,-0.3568,-0.3711,-0.3869,-0.3894,-0.3774,-0.3649,-0.41,-0.4123,-0.3993,-0.416,-0.4308,-0.4308,-0.4308,-0.4308,-0.4308,-0.4308,-0.4308,-0.4308,-0.4308,-0.4308,-0.4308,-0.4308,-0.4308,-0.4308,-0.4308,-0.4308,-0.4308,-0.4308,-0.4308,-0.4308,-0.4308,-0.4441,-0.4707,-0.5242,-0.5512,-0.578,-0.6183,-0.6183,-0.6317,-0.6453,-0.6453,-0.6453,-0.6453,-0.6453,-0.6453,-0.6453,-0.6585,-0.6853,-0.6985,-0.7121,-0.7254,-0.7254,-0.7254,-0.7254,-0.7254,-0.7254,-0.7121,-0.6853,-0.6989,-0.6723,-0.6189,-0.6725,-0.6589,-0.6182,-0.6589,-0.6725,0.0,0.0,0.0,0.0,0.0,0.0,0.0,0.0,0.0,0.0,0.0,0.0,0.0,0.0,0.0,0.0,0.0,0.0,0.0,0.0,0.0,0.0,0.0,0.0,0.0,0.0,0.0,0.0,0.0,-0.3512,-0.316,-0.329,-0.3179,-0.3061,-0.3061,-0.3061,-0.3061,-0.3216,-0.3383,-0.3804,-0.3804,-0.3813,-0.3951,-0.3951,-0.385,-0.364,-0.3515,-0.3663,-0.3954,-0.3969,-0.3848,-0.3595,-0.3909,-0.3931,-0.3675,-0.3994,-0.415,-0.4152,-0.4301,-0.4308,-0.4308,-0.4308,-0.4308,-0.4308,-0.4308,-0.4308,-0.4308,-0.4308,-0.4308,-0.4308,-0.4308,-0.4307,-0.4441,-0.4308,-0.4307,-0.4441,-0.4308,-0.4708,-0.5109,-0.5646,-0.5914,-0.6182,-0.6453,-0.6453,-0.6453,-0.6453,-0.6453,-0.6453,-0.6453,-0.6453,-0.6453,-0.6453,-0.6453,-0.6587,-0.6853,-0.6853,-0.6853,-0.6853,-0.6853,-0.6853,-0.6853,-0.6853,-0.6853,-0.6853,-0.7123,-0.6721,-0.5781,-0.7132,-0.74,-0.6449,-0.6719,-0.6853,0.0,0.0,0.0,0.0,0.0,0.0,0.0,0.0,0.0,0.0,0.0,0.0,0.0,0.0,0.0,0.0,0.0,0.0,0.0,0.0,0.0,0.0,0.0,0.0,0.0,0.0,0.0,0.0,0.0,-0.3106,-0.2876,-0.3152,-0.3297,-0.3297,-0.3297,-0.3297,-0.3297,-0.3063,-0.3089,-0.338,-0.338,-0.3651,-0.3951,-0.3951,-0.3952,-0.3832,-0.3584,-0.3461,-0.3591,-0.3519,-0.3539,-0.3544,-0.3594,-0.3613,-0.3619,-0.3672,-0.3693,-0.3832,-0.4152,-0.4308,-0.4308,-0.4308,-0.4308,-0.4308,-0.4308,-0.4308,-0.4308,-0.4308,-0.4308,-0.4308,-0.4308,-0.4574,-0.4707,-0.4441,-0.4574,-0.4707,-0.4307,-0.4844,-0.5381,-0.5381,-0.6051,-0.6453,-0.6453,-0.6453,-0.6453,-0.6453,-0.6453,-0.6453,-0.6453,-0.6453,-0.6453,-0.6453,-0.6453,-0.6453,-0.6587,-0.6587,-0.6587,-0.6587,-0.6587,-0.6587,-0.6587,-0.6587,-0.6587,-0.6587,-0.6587,-0.6721,-0.6985,-0.7257,-0.766,-0.7925,-0.8058,-0.8189,0.0,0.0,0.0,0.0,0.0,0.0,0.0,0.0,0.0,0.0,0.0,0.0,0.0,0.0,0.0,0.0,0.0,0.0,0.0,0.0,0.0,0.0,0.0,0.0,0.0,0.0,0.0,0.0,0.0,0.0,-0.3053,-0.307,-0.3082,-0.2969,-0.297,-0.2983,-0.3246,-0.3013,-0.3038,-0.3324,-0.4152,-0.4662,-0.4853,-0.5577,-0.6094,-0.6394,-0.5418,-0.4561,-0.3704,-0.3726,-0.361,-0.349,-0.3791,-0.3686,-0.3568,-0.3877,-0.3922,-0.4086,-0.4241,-0.4274,-0.4308,-0.4308,-0.4308,-0.4308,-0.4308,-0.4308,-0.4308,-0.4308,-0.4308,-0.4307,-0.4574,-0.4707,-0.4707,-0.4707,-0.4707,-0.4707,-0.4707,-0.4842,-0.4975,-0.4975,-0.5646,-0.6183,-0.6453,-0.6453,-0.6453,-0.6453,-0.6453,-0.6453,-0.6453,-0.6453,-0.6453,-0.6453,-0.6453,-0.6453,-0.6453,-0.6453,-0.6453,-0.6453,-0.6453,-0.6453,-0.6453,-0.6453,-0.6453,-0.6453,-0.6453,-0.6587,-0.6719,-0.6855,-0.6989,-0.7386,-0.7658,-0.7925,0.0,0.0,0.0,0.0,0.0,0.0,0.0,0.0,0.0,0.0,0.0,0.0,0.0,0.0,0.0,0.0,0.0,0.0,0.0,0.0,0.0,0.0,0.0,0.0,0.0,0.0,0.0,0.0,0.0,0.0,-0.3137,-0.3137,-0.3026,-0.2805,-0.2805,-0.2931,-0.3191,-0.2849,-0.2987,-0.3269,-0.4084,-0.4819,-0.5485,-0.6231,-0.712,-0.7799,-0.6987,-0.5784,-0.4562,-0.4073,-0.3826,-0.3706,-0.3742,-0.3757,-0.364,-0.4326,-0.4249,-0.4032,-0.4724,-0.4638,-0.4281,-0.43,-0.4308,-0.4308,-0.4308,-0.4441,-0.4441,-0.4441,-0.4575,-0.471,-0.4975,-0.4975,-0.4975,-0.5108,-0.5109,-0.4975,-0.4839,-0.4973,-0.5108,-0.5108,-0.5646,-0.6183,-0.6453,-0.6453,-0.6453,-0.6453,-0.6453,-0.6453,-0.6453,-0.6453,-0.6453,-0.6453,-0.6453,-0.6453,-0.6453,-0.6453,-0.6453,-0.6453,-0.6453,-0.6453,-0.6453,-0.6453,-0.6453,-0.6453,-0.6453,-0.6453,-0.6453,-0.6453,-0.6721,-0.6985,-0.739,-0.7791,0.0,0.0,0.0,0.0,0.0,0.0,0.0,0.0,0.0,0.0,0.0,0.0,0.0,0.0,0.0,0.0,0.0,0.0,0.0,0.0,0.0,0.0,0.0,0.0,0.0,0.0,0.0,0.0,0.0,-0.3082,-0.313,-0.3135,-0.3136,-0.3137,-0.3137,-0.3137,-0.3137,-0.2805,-0.2828,-0.3215,-0.3215,-0.4048,-0.5514,-0.572,-0.6478,-0.7674,-0.7799,-0.7243,-0.5902,-0.4562,-0.4073,-0.395,-0.3702,-0.3702,-0.383,-0.5131,-0.4786,-0.3802,-0.5591,-0.5389,-0.4226,-0.4285,-0.4307,-0.4308,-0.4308,-0.4574,-0.4839,-0.4839,-0.5111,-0.5381,-0.5381,-0.5381,-0.5513,-0.578,-0.5647,-0.5247,-0.4975,-0.5376,-0.5912,-0.5912,-0.6183,-0.6453,-0.6453,-0.6453,-0.6453,-0.6453,-0.6453,-0.6453,-0.6453,-0.6453,-0.6453,-0.6453,-0.6453,-0.6453,-0.6453,-0.6453,-0.6453,-0.6453,-0.6453,-0.6453,-0.6453,-0.6453,-0.6453,-0.6453,-0.6453,-0.6453,-0.6453,-0.6453,-0.6721,-0.6985,-0.739,-0.7925,-0.1251,0.0,0.0,0.0,0.0,0.0,0.0,0.0,0.0,0.0,0.0,0.0,0.0,0.0,0.0,0.0,0.0,0.0,0.0,0.0,0.0,0.0,0.0,0.0,0.0,0.0,0.0,0.0,-0.333,-0.3229,-0.3026,-0.3063,-0.3212,-0.3473,-0.325,-0.325,-0.3475,-0.3139,-0.3033,-0.316,-0.4061,-0.4777,-0.5311,-0.7059,-0.8165,-0.8614,-0.8872,-0.8926,-0.845,-0.7334,-0.6761,-0.6759,-0.6879,-0.6999,-0.7001,-0.7643,-0.7091,-0.6045,-0.6598,-0.5941,-0.4876,-0.4895,-0.5069,-0.5112,-0.5112,-0.5111,-0.5245,-0.5245,-0.5381,-0.5515,-0.5646,-0.578,-0.578,-0.5912,-0.5778,-0.578,-0.5644,-0.6048,-0.6183,-0.5647,-0.6049,-0.6453,-0.6453,-0.6453,-0.6453,-0.6453,-0.6453,-0.6453,-0.6453,-0.6453,-0.6453,-0.6453,-0.6453,-0.6453,-0.6453,-0.6453,-0.6453,-0.6453,-0.6453,-0.6453,-0.6453,-0.6453,-0.6453,-0.6453,-0.6453,-0.6453,-0.6453,-0.6453,-0.6587,-0.6587,-0.6987,-0.7388,-0.1362,0.0,0.0,0.0,0.0,0.0,0.0,0.0,0.0,0.0,0.0,0.0,0.0,0.0,0.0,0.0,0.0,0.0,0.0,0.0,0.0,0.0,0.0,0.0,0.0,0.0,0.0,-0.3162,-0.3163,-0.3173,-0.3197,-0.3229,-0.3382,-0.3548,-0.3328,-0.3338,-0.3587,-0.3362,-0.3362,-0.3362,-0.4147,-0.4839,-0.5447,-0.7072,-0.8391,-0.9512,-0.9778,-1.0233,-1.0776,-1.0035,-0.9141,-0.834,-0.8459,-0.8459,-0.8581,-0.931,-0.8873,-0.7838,-0.8386,-0.7494,-0.5947,-0.5982,-0.5663,-0.5333,-0.5333,-0.5487,-0.5647,-0.5647,-0.5781,-0.5917,-0.6049,-0.6182,-0.6182,-0.6182,-0.6182,-0.6182,-0.6182,-0.6317,-0.6319,-0.5917,-0.6185,-0.6453,-0.6453,-0.6453,-0.6453,-0.6453,-0.6453,-0.6453,-0.6453,-0.6453,-0.6453,-0.6453,-0.6453,-0.6453,-0.6453,-0.6453,-0.6453,-0.6453,-0.6453,-0.6453,-0.6453,-0.6453,-0.6453,-0.6453,-0.6453,-0.6453,-0.6453,-0.6453,-0.6587,-0.6719,-0.6851,-0.7254,-0.1563,-0.1662,0.0,0.0,0.0,0.0,-0.2222,-0.2207,0.0,0.0,0.0,0.0,0.0,0.0,0.0,0.0,0.0,0.0,0.0,0.0,0.0,0.0,0.0,0.0,0.0,-0.2522,-0.2642,-0.2893,-0.2793,-0.292,-0.3293,-0.3296,-0.3321,-0.3485,-0.3488,-0.3514,-0.3567,-0.3574,-0.3578,-0.3689,-0.3921,-0.4592,-0.5704,-0.624,-0.7641,-0.9694,-1.0074,-1.1045,-1.2147,-1.2425,-1.1224,-0.9185,-0.931,-0.9306,-0.9428,-1.0646,-1.0283,-0.9326,-1.0569,-0.9389,-0.7301,-0.7399,-0.6608,-0.5517,-0.5526,-0.5708,-0.59,-0.591,-0.6183,-0.6453,-0.6453,-0.6453,-0.6453,-0.6453,-0.6453,-0.6453,-0.6453,-0.6453,-0.6453,-0.6453,-0.6453,-0.6453,-0.6453,-0.6453,-0.6453,-0.6453,-0.6453,-0.6453,-0.6453,-0.6453,-0.6453,-0.6453,-0.6453,-0.6453,-0.6453,-0.6453,-0.6453,-0.6453,-0.6453,-0.6453,-0.6453,-0.6453,-0.6453,-0.6453,-0.6453,-0.6453,-0.6453,-0.6453,-0.6587,-0.6985,-0.6985,-0.7254,-0.1889,-0.1953,-0.2018,-0.1819,0.0,0.0,-0.1944,-0.1995,0.0,0.0,0.0,0.0,0.0,0.0,0.0,0.0,0.0,0.0,0.0,0.0,0.0,0.0,0.0,0.0,0.0,-0.3029,-0.2932,-0.284,-0.2437,-0.2457,-0.2918,-0.2816,-0.2945,-0.3427,-0.3428,-0.3435,-0.3447,-0.371,-0.3844,-0.3845,-0.4231,-0.448,-0.4814,-0.5835,-0.6405,-0.6746,-0.9342,-1.0455,-1.0626,-1.2423,-1.2667,-1.1985,-1.223,-1.235,-1.235,-1.2955,-1.223,-1.1148,-1.1425,-1.0541,-0.9287,-0.9312,-0.8534,-0.75,-0.7722,-0.6981,-0.6225,-0.6297,-0.6453,-0.6453,-0.6453,-0.6453,-0.6453,-0.6453,-0.6453,-0.6453,-0.6453,-0.6453,-0.6453,-0.6453,-0.6453,-0.6453,-0.6453,-0.6453,-0.6453,-0.6453,-0.6453,-0.6453,-0.6453,-0.6453,-0.6453,-0.6453,-0.6453,-0.6453,-0.6453,-0.6453,-0.6453,-0.6453,-0.6453,-0.6453,-0.6453,-0.6453,-0.6453,-0.6453,-0.6453,-0.6453,-0.6453,-0.6453,-0.6587,-0.6587,-0.6587,-0.6721,-0.2085,-0.213,-0.2191,-0.2026,0.0,0.0,0.0,0.0,0.0,0.0,0.0,0.0,0.0,0.0,0.0,0.0,0.0,0.0,0.0,0.0,0.0,0.0,0.0,0.0,0.0,-0.3213,-0.313,-0.2826,-0.2423,-0.2332,-0.2659,-0.2557,-0.2683,-0.3365,-0.3887,-0.4322,-0.4572,-0.4719,-0.4868,-0.491,-0.4735,-0.4666,-0.4706,-0.5487,-0.6044,-0.649,-0.8106,-0.9072,-0.972,-1.0795,-1.1608,-1.2226,-1.3163,-1.3444,-1.3449,-1.3688,-1.3324,-1.2719,-1.2719,-1.1809,-1.0656,-1.004,-0.9026,-0.7888,-0.7316,-0.6763,-0.6327,-0.6372,-0.6419,-0.6453,-0.6453,-0.6453,-0.6453,-0.6453,-0.6453,-0.6453,-0.6453,-0.6453,-0.6453,-0.6453,-0.6453,-0.6453,-0.6453,-0.6453,-0.6453,-0.6453,-0.6453,-0.6453,-0.6453,-0.6453,-0.6453,-0.6453,-0.6453,-0.6453,-0.6453,-0.6453,-0.6453,-0.6453,-0.6453,-0.6453,-0.6453,-0.6453,-0.6453,-0.6453,-0.6453,-0.6453,-0.6453,-0.6453,-0.6453,-0.6453,-0.6453,-0.6587,0.0,0.0,0.0,0.0,0.0,-0.2247,0.0,0.0,0.0,-0.229,0.0,0.0,0.0,0.0,0.0,0.0,0.0,0.0,0.0,0.0,0.0,0.0,0.0,0.0,0.0,-0.3031,-0.297,-0.2822,-0.2688,-0.2583,-0.252,-0.2723,-0.2945,-0.3404,-0.4325,-0.4971,-0.5463,-0.5693,-0.585,-0.5614,-0.5329,-0.5058,-0.502,-0.526,-0.5935,-0.6821,-0.7041,-0.7759,-0.8871,-0.9123,-0.9967,-1.1282,-1.2451,-1.3048,-1.3324,-1.308,-1.296,-1.296,-1.296,-1.2234,-1.114,-1.0169,-0.8925,-0.7791,-0.6426,-0.6163,-0.6294,-0.631,-0.637,-0.6431,-0.6449,-0.6453,-0.6453,-0.6453,-0.6453,-0.6453,-0.6453,-0.6453,-0.6453,-0.6453,-0.6453,-0.6453,-0.6453,-0.6453,-0.6453,-0.6453,-0.6453,-0.6453,-0.6453,-0.6453,-0.6453,-0.6453,-0.6453,-0.6453,-0.6453,-0.6453,-0.6453,-0.6453,-0.6453,-0.6453,-0.6453,-0.6453,-0.6453,-0.6453,-0.6453,-0.6453,-0.6453,-0.6453,-0.6453,-0.6453,-0.6453,-0.6587,0.0,0.0,0.0,0.0,-0.2485,0.0,0.0,0.0,-0.2177,-0.2049,0.0,0.0,0.0,0.0,0.0,0.0,0.0,0.0,0.0,0.0,0.0,0.0,0.0,0.0,0.0,0.0,-0.2575,-0.2808,-0.303,-0.3192,-0.3118,-0.383,-0.4135,-0.3945,-0.4046,-0.4149,-0.4158,-0.5453,-0.5714,-0.48,-0.6015,-0.6112,-0.5152,-0.5345,-0.5493,-0.5714,-0.6922,-0.7482,-0.7513,-0.897,-0.961,-0.9557,-0.9966,-1.0886,-1.1752,-1.0653,-1.029,-1.029,-1.029,-1.0169,-1.0048,-0.9805,-0.8925,-0.7791,-0.6426,-0.6121,-0.6212,-0.6294,-0.6325,-0.6351,-0.6433,-0.6453,-0.6453,-0.6453,-0.6453,-0.6453,-0.6453,-0.6453,-0.6453,-0.6453,-0.6453,-0.6453,-0.6453,-0.6453,-0.6453,-0.6453,-0.6453,-0.6453,-0.6453,-0.6453,-0.6453,-0.6453,-0.6453,-0.6453,-0.6453,-0.6453,-0.6453,-0.6453,-0.6453,-0.6453,-0.6453,-0.6453,-0.6453,-0.6453,-0.6453,-0.6453,-0.6453,-0.6453,-0.6453,-0.6453,-0.6453,-0.6453,0.0,0.0,0.0,0.0,0.0,0.0,-0.2245,0.0,-0.2147,0.0,0.0,0.0,0.0,0.0,0.0,0.0,0.0,0.0,0.0,0.0,0.0,0.0,0.0,0.0,0.0,0.0,0.0,0.0,0.0,-0.3358,-0.4173,-0.3939,-0.418,-0.4926,-0.4929,-0.5031,-0.5436,-0.5982,-0.6444,-0.6719,-0.6711,-0.6515,-0.6108,-0.6153,-0.5879,-0.5382,-0.6042,-0.6265,-0.6161,-0.687,-0.7601,-0.813,-0.755,-0.8645,-1.0524,-1.0013,-0.9805,-0.9805,-0.9805,-0.9805,-0.9684,-0.8952,-0.7771,-0.671,-0.6096,-0.6035,-0.6114,-0.6153,-0.6237,-0.6325,-0.6364,-0.6415,-0.6453,-0.6453,-0.6453,-0.6453,-0.6453,-0.6453,-0.6453,-0.6453,-0.6453,-0.6453,-0.6453,-0.6453,-0.6453,-0.6453,-0.6453,-0.6453,-0.6453,-0.6453,-0.6453,-0.6453,-0.6453,-0.6453,-0.6453,-0.6453,-0.6453,-0.6453,-0.6453,-0.6453,-0.6453,-0.6453,-0.6453,-0.6453,-0.6453,-0.6453,-0.6453,-0.6453,-0.6453,-0.6453,-0.6453,-0.6453,-0.3191,0.0,0.0,0.0,0.0,0.0,0.0,0.0,0.0,0.0,0.0,0.0,0.0,0.0,0.0,0.0,0.0,0.0,0.0,0.0,0.0,0.0,0.0,0.0,0.0,0.0,0.0,0.0,0.0,0.0,-0.4727,-0.4622,-0.4808,-0.5425,-0.5727,-0.5829,-0.5934,-0.6237,-0.6679,-0.7274,-0.7103,-0.7027,-0.6918,-0.7274,-0.6926,-0.6042,-0.6042,-0.5824,-0.5382,-0.5382,-0.5978,-0.6832,-0.584,-0.6756,-0.8592,-0.8726,-0.8681,-0.8711,-0.8711,-0.8711,-0.8593,-0.7617,-0.6646,-0.5916,-0.5916,-0.5963,-0.6021,-0.6045,-0.6163,-0.6286,-0.631,-0.6386,-0.6453,-0.6453,-0.6453,-0.6453,-0.6453,-0.6453,-0.6453,-0.6453,-0.6453,-0.6453,-0.6453,-0.6453,-0.6453,-0.6453,-0.6453,-0.6453,-0.6453,-0.6453,-0.6453,-0.6453,-0.6453,-0.6453,-0.6453,-0.6453,-0.6453,-0.6453,-0.6453,-0.6453,-0.6453,-0.6453,-0.6453,-0.6453,-0.6453,-0.6453,-0.6453,-0.6453,-0.6453,-0.6453,-0.6453,-0.6453,0.0,0.0,0.0,-0.252,0.0,0.0,0.0,0.0,-0.2377,0.0,0.0,0.0,0.0,0.0,-0.2198,-0.2082,0.0,0.0,0.0,0.0,0.0,0.0,0.0,0.0,0.0,0.0,0.0,0.0,0.0,0.0,-0.4628,-0.6275,-0.6579,-0.5233,-0.5937,-0.5834,-0.4834,-0.5834,-0.5937,-0.4939,-0.7065,-0.7811,-0.7323,-0.8408,-0.8438,-0.7578,-0.7578,-0.6702,-0.5382,-0.5382,-0.5384,-0.5506,-0.5475,-0.5565,-0.5775,-0.587,-0.5962,-0.6039,-0.6039,-0.6039,-0.6039,-0.5916,-0.5916,-0.5916,-0.5916,-0.5919,-0.5941,-0.6029,-0.6117,-0.6206,-0.6294,-0.6386,-0.6453,-0.6453,-0.6453,-0.6453,-0.6453,-0.6453,-0.6453,-0.6453,-0.6453,-0.6453,-0.6453,-0.6453,-0.6453,-0.6453,-0.6453,-0.6453,-0.6453,-0.6453,-0.6453,-0.6453,-0.6453,-0.6453,-0.6453,-0.6453,-0.6453,-0.6453,-0.6453,-0.6453,-0.6453,-0.6453,-0.6453,-0.6453,-0.6453,-0.6453,-0.6453,-0.6453,-0.6453,-0.6453,-0.6453,-0.6453,0.0,0.0,-0.4639,-0.3955,0.0,0.0,0.0,0.0,0.0,0.0,0.0,0.0,0.0,0.0,-0.2218,-0.2203,-0.2248,0.0,0.0,0.0,0.0,0.0,0.0,0.0,0.0,0.0,0.0,0.0,0.0,0.0,0.0,-0.567,-0.6149,-0.6991,-0.5894,-0.5534,-0.5837,-0.5534,-0.5534,-0.5837,-0.6676,-0.696,-0.6878,-0.8259,-0.8405,-0.7463,-0.7543,-0.736,-0.6813,-0.5824,-0.5382,-0.5386,-0.5412,-0.5478,-0.5571,-0.5725,-0.5839,-0.5916,-0.5916,-0.5916,-0.5916,-0.5916,-0.5916,-0.5916,-0.5916,-0.5916,-0.5923,-0.5955,-0.6027,-0.6117,-0.6202,-0.6294,-0.638,-0.6439,-0.6453,-0.6453,-0.6453,-0.6453,-0.6453,-0.6453,-0.6453,-0.6453,-0.6453,-0.6453,-0.6453,-0.6453,-0.6453,-0.6453,-0.6453,-0.6453,-0.6453,-0.6453,-0.6453,-0.6453,-0.6453,-0.6453,-0.6453,-0.6453,-0.6453,-0.6453,-0.6453,-0.6453,-0.6453,-0.6453,-0.6453,-0.6453,-0.6453,-0.6453,-0.6453,-0.6453,-0.6453,-0.6453,-0.6567,-0.6157,0.0,-0.491,-0.4595,0.0,-0.3062,0.0,0.0,0.0,0.0,0.0,0.0,0.0,0.0,-0.2505,-0.2492,0.0,0.0,0.0,0.0,0.0,0.0,0.0,0.0,0.0,-0.4241,-0.442,0.0,0.0,0.0,0.0,-0.604,-0.6921,-0.5973,-0.5634,-0.5834,-0.5135,-0.5135,-0.5834,-0.6234,-0.6497,-0.6813,-0.8233,-0.8594,-0.8148,-0.8234,-0.8084,-0.7578,-0.6591,-0.5822,-0.5382,-0.5382,-0.5433,-0.5524,-0.5678,-0.581,-0.5916,-0.5916,-0.5916,-0.5916,-0.5916,-0.5916,-0.5916,-0.5916,-0.5916,-0.5916,-0.5916,-0.5984,-0.6065,-0.6121,-0.6225,-0.6331,-0.639,-0.6429,-0.6453,-0.6453,-0.6453,-0.6453,-0.6453,-0.6453,-0.6453,-0.6453,-0.6453,-0.6453,-0.6453,-0.6453,-0.6453,-0.6453,-0.6453,-0.6453,-0.6453,-0.6453,-0.6453,-0.6453,-0.6453,-0.6453,-0.6453,-0.6453,-0.6453,-0.6453,-0.6453,-0.6453,-0.6453,-0.6453,-0.6453,-0.6453,-0.6453,-0.6453,-0.6453,-0.6453,-0.6453]},{"header":{"parameterUnit":"m.s-1","parameterCategory":1,"la1":30.6,"la2":29.2853,"lo1":-89.7004,"lo2":-87.6739,"dy":0.0162,"dx":0.0183,"nx":112,"ny":82,"refTime":"2024-06-23T12:00:00:Z","depth":0,"parameterNumber":3,"parameterNumberName":"V-component_of_WINDS"},"data":[0.0,0.0,0.0,0.0,0.0,0.0,0.0,0.0,0.0,0.0,0.0,0.0,0.0,0.0,0.0,0.0,0.0,0.0,0.0,0.0,0.0,0.0,0.0,0.0,0.0,0.0,0.0,0.0,0.0,0.0,0.0,0.0,0.0,0.0,0.0,0.0,0.0,0.0,0.0,0.0,0.0,0.0,0.0,0.0,0.0,0.0,0.0,0.0,0.0,0.0,0.0,0.0,0.0,0.0,0.0,0.0,0.0,0.0,0.0,0.0,0.0,0.0,0.0,0.0,0.0,0.0,0.0,0.0,0.0,0.0,0.0,0.0,0.0,0.0,0.0,0.0,0.0,0.0,0.0,0.0,0.0,0.0,0.0,0.0,0.0,0.0,0.0,0.0,0.0,0.0,0.0,-3.4964,-3.8654,-4.0616,-3.9936,-3.9645,-3.7411,-3.2516,0.0,0.0,0.0,0.0,0.0,0.0,0.0,0.0,0.0,0.0,0.0,0.0,0.0,0.0,0.0,0.0,0.0,0.0,0.0,0.0,0.0,0.0,0.0,0.0,0.0,0.0,0.0,0.0,0.0,0.0,0.0,0.0,0.0,0.0,0.0,0.0,0.0,0.0,0.0,0.0,0.0,0.0,0.0,0.0,0.0,0.0,0.0,0.0,0.0,0.0,0.0,0.0,0.0,0.0,0.0,0.0,0.0,0.0,0.0,0.0,0.0,0.0,0.0,0.0,0.0,0.0,0.0,0.0,0.0,0.0,0.0,0.0,0.0,0.0,0.0,0.0,0.0,0.0,0.0,0.0,0.0,0.0,0.0,0.0,0.0,0.0,0.0,0.0,0.0,0.0,0.0,0.0,0.0,0.0,0.0,0.0,0.0,0.0,0.0,0.0,0.0,0.0,0.0,0.0,-3.2812,-3.8324,-4.0092,-4.0849,-4.0733,-3.9412,-3.7023,-3.3332,0.0,0.0,0.0,0.0,0.0,0.0,0.0,0.0,0.0,0.0,0.0,0.0,0.0,0.0,0.0,0.0,0.0,0.0,0.0,0.0,0.0,0.0,0.0,0.0,0.0,0.0,0.0,0.0,0.0,0.0,0.0,0.0,0.0,0.0,0.0,0.0,0.0,0.0,0.0,0.0,0.0,0.0,0.0,0.0,0.0,0.0,0.0,0.0,0.0,0.0,0.0,0.0,0.0,0.0,0.0,0.0,0.0,0.0,0.0,0.0,0.0,0.0,0.0,0.0,0.0,0.0,0.0,0.0,0.0,0.0,0.0,0.0,0.0,0.0,0.0,0.0,0.0,0.0,0.0,0.0,0.0,0.0,0.0,0.0,0.0,0.0,0.0,0.0,0.0,0.0,0.0,0.0,0.0,0.0,0.0,0.0,0.0,0.0,0.0,0.0,0.0,0.0,0.0,-3.1844,-3.4703,-3.982,-4.0674,-4.0907,-4.0907,-3.9353,-3.6945,-3.3526,-3.0397,0.0,0.0,0.0,0.0,0.0,0.0,0.0,0.0,0.0,0.0,0.0,0.0,0.0,0.0,0.0,0.0,0.0,0.0,0.0,0.0,0.0,0.0,0.0,0.0,0.0,0.0,0.0,0.0,0.0,0.0,0.0,0.0,0.0,0.0,0.0,0.0,0.0,0.0,0.0,0.0,0.0,0.0,0.0,0.0,0.0,0.0,0.0,0.0,0.0,0.0,0.0,0.0,0.0,0.0,0.0,0.0,0.0,0.0,0.0,0.0,0.0,0.0,0.0,0.0,0.0,0.0,0.0,0.0,0.0,0.0,0.0,0.0,0.0,0.0,0.0,0.0,0.0,0.0,0.0,0.0,0.0,0.0,0.0,0.0,0.0,0.0,0.0,0.0,0.0,0.0,0.0,0.0,0.0,0.0,0.0,0.0,0.0,0.0,0.0,0.0,0.0,0.0,-3.5337,-3.6906,-4.0791,-4.1024,-4.0985,-4.1199,-3.9101,-3.6498,-3.3487,-2.964,0.0,0.0,0.0,0.0,0.0,0.0,0.0,0.0,0.0,0.0,0.0,0.0,0.0,0.0,0.0,0.0,0.0,0.0,0.0,0.0,0.0,0.0,0.0,0.0,0.0,0.0,0.0,0.0,0.0,0.0,0.0,0.0,0.0,0.0,0.0,0.0,0.0,0.0,0.0,0.0,0.0,0.0,0.0,0.0,0.0,0.0,0.0,0.0,0.0,0.0,0.0,0.0,0.0,0.0,0.0,0.0,0.0,0.0,0.0,0.0,0.0,0.0,0.0,0.0,0.0,0.0,0.0,0.0,0.0,0.0,0.0,0.0,0.0,0.0,0.0,0.0,0.0,0.0,0.0,0.0,0.0,0.0,0.0,0.0,0.0,0.0,0.0,0.0,0.0,0.0,0.0,0.0,0.0,0.0,0.0,0.0,0.0,0.0,0.0,0.0,0.0,0.0,-3.6192,-3.914,-4.182,-4.1374,-4.1238,-4.2034,-3.8343,-3.5216,-3.341,-2.8514,0.0,0.0,0.0,0.0,0.0,0.0,0.0,0.0,0.0,0.0,0.0,0.0,0.0,0.0,0.0,0.0,0.0,0.0,0.0,0.0,0.0,0.0,0.0,0.0,0.0,0.0,0.0,0.0,0.0,0.0,0.0,0.0,0.0,0.0,0.0,0.0,0.0,0.0,0.0,0.0,0.0,0.0,0.0,0.0,0.0,0.0,0.0,0.0,0.0,0.0,0.0,0.0,0.0,0.0,0.0,0.0,0.0,0.0,0.0,0.0,0.0,0.0,0.0,0.0,0.0,0.0,0.0,0.0,0.0,0.0,0.0,0.0,0.0,0.0,0.0,0.0,0.0,0.0,0.0,0.0,0.0,0.0,0.0,0.0,0.0,0.0,0.0,0.0,0.0,0.0,0.0,0.0,0.0,0.0,0.0,0.0,0.0,0.0,0.0,0.0,0.0,0.0,-3.5803,-3.8771,0.0,-4.1898,-4.184,-4.217,-3.9256,-3.6246,-3.3468,0.0,0.0,0.0,0.0,0.0,0.0,0.0,0.0,0.0,0.0,0.0,0.0,0.0,0.0,0.0,0.0,0.0,0.0,0.0,0.0,0.0,0.0,0.0,0.0,0.0,0.0,0.0,0.0,0.0,0.0,0.0,0.0,0.0,0.0,0.0,0.0,0.0,0.0,0.0,0.0,0.0,0.0,0.0,0.0,0.0,0.0,0.0,0.0,0.0,0.0,0.0,0.0,0.0,0.0,0.0,0.0,0.0,0.0,0.0,0.0,0.0,0.0,0.0,0.0,0.0,0.0,0.0,0.0,0.0,0.0,0.0,0.0,0.0,0.0,0.0,0.0,0.0,0.0,0.0,0.0,0.0,0.0,0.0,0.0,0.0,0.0,0.0,0.0,0.0,0.0,0.0,0.0,0.0,0.0,0.0,0.0,0.0,0.0,0.0,0.0,0.0,0.0,-3.2764,-3.6261,-3.9435,0.0,-4.2399,-4.2341,-4.2633,-3.928,-3.6091,-3.3451,0.0,0.0,0.0,0.0,0.0,0.0,0.0,0.0,0.0,0.0,0.0,0.0,0.0,0.0,0.0,0.0,0.0,0.0,0.0,0.0,0.0,0.0,0.0,0.0,0.0,0.0,0.0,0.0,0.0,0.0,0.0,0.0,0.0,0.0,0.0,0.0,0.0,0.0,0.0,0.0,0.0,0.0,0.0,0.0,0.0,0.0,0.0,0.0,0.0,0.0,0.0,0.0,0.0,0.0,0.0,0.0,0.0,0.0,0.0,0.0,0.0,0.0,0.0,0.0,0.0,0.0,0.0,0.0,0.0,0.0,0.0,0.0,0.0,0.0,0.0,0.0,0.0,0.0,0.0,0.0,0.0,0.0,0.0,0.0,0.0,0.0,0.0,0.0,0.0,0.0,0.0,0.0,0.0,0.0,0.0,0.0,0.0,0.0,0.0,0.0,0.0,0.0,-3.3087,-3.7857,-4.1682,-4.3429,-4.2851,-4.2676,-4.3533,-3.811,-3.4261,0.0,0.0,0.0,0.0,0.0,0.0,0.0,0.0,0.0,0.0,0.0,0.0,0.0,0.0,0.0,0.0,0.0,0.0,0.0,0.0,0.0,0.0,0.0,0.0,0.0,0.0,0.0,0.0,0.0,0.0,0.0,0.0,0.0,0.0,0.0,0.0,0.0,0.0,0.0,0.0,0.0,0.0,0.0,0.0,0.0,0.0,0.0,0.0,0.0,0.0,0.0,0.0,0.0,0.0,0.0,0.0,0.0,0.0,0.0,0.0,0.0,0.0,0.0,0.0,0.0,0.0,0.0,0.0,0.0,0.0,0.0,0.0,0.0,0.0,0.0,0.0,0.0,0.0,0.0,0.0,0.0,0.0,0.0,0.0,0.0,0.0,0.0,0.0,0.0,0.0,0.0,0.0,0.0,0.0,0.0,0.0,0.0,0.0,0.0,0.0,0.0,0.0,0.0,-3.3832,-3.8734,-4.259,-4.4323,-4.4279,-4.3994,-4.363,-4.0318,-3.6844,-3.3501,0.0,0.0,0.0,0.0,0.0,0.0,0.0,0.0,0.0,0.0,0.0,0.0,0.0,0.0,0.0,0.0,0.0,0.0,0.0,0.0,0.0,0.0,0.0,0.0,0.0,0.0,0.0,0.0,0.0,0.0,0.0,0.0,0.0,0.0,0.0,0.0,0.0,0.0,0.0,0.0,0.0,0.0,0.0,0.0,0.0,0.0,0.0,0.0,0.0,0.0,0.0,0.0,0.0,0.0,0.0,0.0,0.0,0.0,0.0,0.0,0.0,0.0,0.0,0.0,0.0,0.0,0.0,0.0,0.0,0.0,0.0,0.0,0.0,0.0,0.0,0.0,0.0,0.0,0.0,0.0,0.0,0.0,0.0,0.0,0.0,0.0,0.0,0.0,0.0,0.0,0.0,0.0,0.0,0.0,0.0,0.0,0.0,0.0,0.0,0.0,0.0,0.0,-3.4248,-3.9447,-4.3383,-4.4799,-4.4947,-4.4601,-4.3704,-4.0994,-3.7615,-3.3589,0.0,0.0,0.0,0.0,0.0,0.0,0.0,0.0,0.0,0.0,0.0,0.0,0.0,0.0,0.0,0.0,0.0,0.0,0.0,0.0,0.0,0.0,0.0,0.0,0.0,0.0,0.0,0.0,0.0,0.0,0.0,0.0,0.0,0.0,0.0,0.0,0.0,0.0,0.0,0.0,0.0,0.0,0.0,0.0,0.0,0.0,0.0,0.0,0.0,0.0,0.0,0.0,0.0,0.0,0.0,0.0,0.0,0.0,0.0,0.0,0.0,0.0,0.0,0.0,0.0,0.0,0.0,0.0,0.0,0.0,0.0,0.0,0.0,0.0,0.0,0.0,0.0,0.0,0.0,0.0,0.0,0.0,0.0,0.0,0.0,0.0,0.0,0.0,0.0,0.0,0.0,0.0,0.0,0.0,0.0,0.0,0.0,0.0,0.0,0.0,0.0,0.0,-3.4583,-4.0055,-4.4055,-4.5028,-4.5129,-4.4777,-4.3899,-4.0834,-3.7474,-3.3988,0.0,0.0,0.0,0.0,0.0,0.0,0.0,0.0,0.0,0.0,0.0,0.0,0.0,0.0,0.0,0.0,0.0,0.0,0.0,0.0,0.0,0.0,0.0,0.0,0.0,0.0,0.0,0.0,0.0,0.0,0.0,0.0,0.0,0.0,0.0,0.0,0.0,0.0,0.0,0.0,0.0,0.0,0.0,0.0,0.0,0.0,0.0,0.0,0.0,0.0,0.0,0.0,0.0,0.0,0.0,0.0,0.0,0.0,0.0,0.0,-3.0351,0.0,0.0,0.0,0.0,0.0,0.0,0.0,0.0,0.0,0.0,0.0,0.0,0.0,0.0,0.0,0.0,0.0,0.0,0.0,0.0,0.0,0.0,0.0,0.0,0.0,0.0,0.0,0.0,0.0,0.0,0.0,0.0,0.0,0.0,0.0,0.0,0.0,0.0,0.0,0.0,0.0,-3.6243,-4.0777,-4.4294,-4.5859,-4.6023,-4.5675,-4.4797,-4.2806,-4.0112,-3.6674,-3.1613,0.0,0.0,0.0,0.0,0.0,0.0,0.0,0.0,0.0,0.0,0.0,0.0,0.0,0.0,0.0,0.0,0.0,0.0,0.0,0.0,0.0,0.0,0.0,0.0,0.0,0.0,0.0,0.0,0.0,0.0,0.0,0.0,0.0,0.0,0.0,0.0,0.0,0.0,0.0,0.0,0.0,0.0,0.0,0.0,0.0,0.0,0.0,0.0,0.0,0.0,0.0,0.0,0.0,0.0,0.0,0.0,0.0,0.0,0.0,0.0,-3.281,0.0,0.0,0.0,0.0,0.0,0.0,0.0,0.0,0.0,0.0,0.0,0.0,0.0,0.0,0.0,0.0,0.0,0.0,0.0,0.0,0.0,0.0,0.0,0.0,0.0,0.0,0.0,0.0,0.0,0.0,0.0,0.0,0.0,0.0,0.0,0.0,0.0,0.0,0.0,0.0,-3.6856,-4.1363,-4.4797,-4.6156,-4.6296,-4.5948,-4.507,-4.3391,-4.1127,-3.8102,-3.3844,0.0,0.0,0.0,0.0,0.0,0.0,0.0,0.0,0.0,0.0,0.0,0.0,0.0,0.0,0.0,0.0,0.0,0.0,0.0,0.0,0.0,0.0,0.0,0.0,0.0,0.0,0.0,0.0,0.0,0.0,0.0,0.0,0.0,0.0,0.0,0.0,0.0,0.0,0.0,0.0,0.0,0.0,0.0,0.0,0.0,0.0,0.0,0.0,0.0,0.0,0.0,0.0,0.0,-4.0292,-4.1318,-4.2792,-4.2857,-4.3247,-4.3669,-4.0111,-3.8324,-3.7662,0.0,0.0,0.0,0.0,0.0,0.0,0.0,0.0,0.0,0.0,0.0,0.0,0.0,0.0,0.0,0.0,0.0,0.0,0.0,0.0,0.0,0.0,0.0,0.0,0.0,-3.8881,-3.8397,0.0,0.0,0.0,0.0,0.0,0.0,0.0,0.0,0.0,0.0,0.0,0.0,-3.7608,-4.2026,-4.5265,-4.6202,-4.63,-4.6007,-4.5285,-4.3762,-4.183,-3.9409,-3.6147,-3.2907,0.0,0.0,0.0,0.0,0.0,0.0,0.0,0.0,0.0,0.0,0.0,0.0,0.0,0.0,0.0,0.0,0.0,0.0,0.0,0.0,0.0,0.0,0.0,0.0,0.0,0.0,0.0,0.0,0.0,0.0,0.0,0.0,-2.7838,-2.9581,0.0,0.0,0.0,0.0,0.0,0.0,0.0,0.0,0.0,0.0,0.0,0.0,0.0,-3.7871,-4.0303,-4.1831,-4.3461,-4.5207,-4.7435,-4.9001,-4.9937,-4.9956,-5.0014,-5.0092,-4.9527,0.0,-4.0545,-4.0097,0.0,0.0,0.0,0.0,0.0,0.0,0.0,0.0,0.0,0.0,0.0,0.0,0.0,0.0,0.0,0.0,0.0,0.0,0.0,0.0,0.0,0.0,-4.3578,-4.2982,-4.2919,-4.2646,0.0,-3.762,-3.4144,-3.2803,-3.1414,0.0,0.0,0.0,0.0,0.0,0.0,0.0,-4.0164,-4.3177,-4.5312,-4.6202,-4.63,-4.6241,-4.6144,-4.5226,-4.3879,-4.2025,-3.939,-3.7028,-3.5073,-3.1304,0.0,0.0,0.0,0.0,0.0,0.0,0.0,0.0,0.0,0.0,0.0,0.0,0.0,0.0,0.0,0.0,0.0,0.0,0.0,0.0,0.0,0.0,0.0,0.0,0.0,0.0,0.0,0.0,0.0,-2.7199,-3.0487,-3.0764,-3.1724,-3.1495,0.0,0.0,0.0,0.0,0.0,0.0,0.0,0.0,0.0,-4.2626,-4.2902,-4.4214,-4.6758,-4.7552,-4.8565,-4.9812,-5.093,-5.1924,-5.2762,-5.2762,-5.2762,-5.2762,-5.2762,-5.0774,-4.7384,-4.4968,-4.2494,-4.0,0.0,0.0,0.0,0.0,-3.8246,-3.8656,-4.1442,-4.1773,0.0,-3.937,0.0,0.0,0.0,0.0,0.0,0.0,0.0,0.0,0.0,0.0,-4.5802,-4.6426,-4.6567,-4.6455,-4.6089,-4.3455,-4.0196,0.0,-3.643,-3.5275,-3.1106,0.0,0.0,0.0,0.0,-3.9575,-4.1573,-4.4114,-4.5878,-4.6261,-4.63,-4.63,-4.63,-4.55,-4.468,-4.3918,-4.142,-3.9449,-3.8199,-3.4488,-3.1421,0.0,0.0,0.0,0.0,0.0,0.0,0.0,0.0,0.0,0.0,0.0,0.0,0.0,0.0,0.0,0.0,0.0,0.0,0.0,0.0,0.0,0.0,0.0,0.0,0.0,0.0,0.0,0.0,-3.0511,-3.2903,-3.2483,-3.4495,-3.4929,0.0,0.0,0.0,0.0,0.0,0.0,-4.0604,-4.1792,-4.4051,-4.7646,-4.8215,-4.9586,-5.1916,-5.1963,-5.2508,-5.3599,-5.3814,-5.4359,-5.5197,-5.5197,-5.5197,-5.5197,-5.4963,-5.4398,-5.3307,-4.943,-4.6819,-4.4988,-4.2435,-4.1714,-4.2202,-4.3059,-4.3254,-4.3565,-4.6956,-4.715,-4.567,-4.4384,0.0,-4.1637,-3.924,0.0,0.0,0.0,0.0,-4.2266,-4.439,-4.5883,-4.7195,-4.8488,-4.8806,-4.8791,-4.8791,-4.7777,-4.5597,0.0,-4.1003,-3.994,-3.5213,0.0,0.0,0.0,0.0,-4.1822,-4.2924,-4.4957,-4.6308,-4.63,-4.63,-4.63,-4.63,-4.5714,-4.5246,-4.5012,-4.2962,-4.1361,-4.0503,-3.7399,-3.4566,-3.2182,0.0,0.0,0.0,0.0,0.0,0.0,0.0,0.0,0.0,0.0,0.0,0.0,0.0,0.0,0.0,0.0,0.0,0.0,0.0,0.0,0.0,0.0,0.0,0.0,0.0,0.0,0.0,0.0,0.0,-3.6785,-3.8449,0.0,0.0,0.0,0.0,-3.9325,-4.2439,-4.5087,-4.6943,-4.8596,-5.0333,-5.2202,-5.1526,-5.1935,-5.3662,-5.3747,-5.4613,-5.6308,-5.7068,-5.7905,-5.8743,-5.8743,-5.8743,-5.8704,-5.7866,-5.7048,-5.6093,-5.3385,-5.1242,-4.9664,-4.9488,-4.8982,-4.8456,-4.9255,-4.9079,-4.8553,-4.9527,-4.9313,-4.8592,-4.8495,-4.6761,-4.4832,-4.5475,-4.454,0.0,0.0,-4.641,-4.7333,-4.8282,-4.86,-4.8685,-4.8775,-4.88,-4.88,-4.88,-4.8722,-4.8123,0.0,-4.3962,-4.1972,-4.084,0.0,-3.9852,-4.0602,-4.1651,-4.2954,-4.4645,-4.5718,-4.6308,-4.63,-4.63,-4.63,-4.63,-4.6261,-4.587,-4.5051,-4.4094,-4.3177,-4.2318,-3.978,-3.7555,-3.5776,-3.1577,0.0,0.0,0.0,0.0,0.0,0.0,0.0,0.0,0.0,0.0,0.0,0.0,0.0,0.0,0.0,0.0,0.0,0.0,0.0,0.0,0.0,0.0,0.0,0.0,0.0,0.0,0.0,0.0,-4.037,-4.2513,0.0,0.0,-4.2409,-4.3773,-4.465,-4.6364,-4.8382,-5.0661,-5.1343,-5.2706,-5.4967,-5.5286,-5.5976,-5.7137,-5.7165,-5.7496,-5.81,-5.8392,-5.8704,-5.8996,-5.8996,-5.8996,-5.8977,-5.8665,-5.8373,-5.8042,-5.7107,-5.5061,-5.245,-5.1885,-5.1495,-5.1281,-5.1573,-5.1495,-5.1378,-5.2216,-5.1943,-5.1145,-5.0599,-4.9391,-4.8241,-4.8553,-4.7852,-4.7072,-4.7696,-4.8475,-4.9184,-4.9529,-5.0024,-5.0413,-5.0401,-5.0401,-5.0401,-5.0401,-4.9991,-4.9451,-4.8855,-4.7548,-4.5724,-4.3212,-4.387,-4.4104,-4.2212,-4.3621,-4.5128,-4.5757,-4.6117,-4.6296,-4.63,-4.63,-4.63,-4.63,-4.63,-4.5929,-4.507,-4.4172,-4.3313,-4.2435,-3.9956,-3.8043,-3.6852,-3.3688,-3.0504,0.0,0.0,0.0,0.0,0.0,0.0,0.0,0.0,0.0,0.0,0.0,0.0,0.0,0.0,0.0,0.0,0.0,0.0,0.0,0.0,0.0,0.0,0.0,0.0,0.0,0.0,-4.2351,-4.3468,-4.5903,-4.6917,-4.5482,-4.7189,-4.8709,-4.9595,-5.0723,-5.2247,-5.4253,-5.4613,-5.552,-5.7225,-5.7838,-5.8548,-5.9425,-5.9445,-5.9581,-5.9873,-5.9873,-5.9873,-5.9873,-5.9873,-5.9873,-5.9854,-5.9561,-5.9445,-5.9425,-5.9113,-5.7652,-5.5567,-5.4983,-5.4574,-5.432,-5.432,-5.397,-5.3522,-5.3794,-5.3522,-5.2937,-5.2353,-5.1787,-5.132,-5.132,-5.095,-5.0521,-5.0521,-5.0891,-5.132,-5.1374,-5.1791,-5.218,-5.218,-5.218,-5.2102,-5.181,-5.1323,-5.0855,-5.0569,-4.958,-4.8078,-4.5806,-4.6816,-4.7162,-4.4899,-4.6041,-4.7138,-4.7138,-4.6893,-4.6706,-4.6706,-4.6456,-4.63,-4.63,-4.6023,-4.573,-4.546,-4.4067,-4.3131,-4.2857,-4.0379,-3.8583,-3.7728,-3.5152,-3.2439,-2.9564,0.0,0.0,0.0,0.0,0.0,0.0,0.0,0.0,0.0,0.0,0.0,0.0,0.0,0.0,0.0,0.0,0.0,0.0,0.0,0.0,0.0,0.0,0.0,-3.9928,-4.2156,-4.4448,-4.6157,-4.8592,-4.9839,-4.906,-5.1265,-5.3085,-5.3962,-5.552,-5.6864,-5.7794,-5.8577,-5.9016,-5.9035,-5.9074,-5.9484,-6.0321,-6.0341,-6.075,-6.1607,-6.1607,-6.1607,-6.1607,-6.1607,-6.1607,-6.1549,-6.0711,-6.0341,-6.0282,-5.9425,-5.9074,-5.9074,-5.9016,-5.847,-5.773,-5.773,-5.6697,-5.5158,-5.432,-5.4009,-5.3989,-5.3989,-5.397,-5.395,-5.395,-5.3931,-5.3911,-5.3911,-5.3911,-5.3911,-5.3911,-5.3911,-5.3911,-5.3911,-5.3911,-5.3677,-5.282,-5.2645,-5.2372,-5.1515,-5.0024,-4.8898,-4.8855,-4.8845,-4.8839,-4.88,-4.88,0.0,-4.88,-4.8069,-4.7533,-4.7494,-4.68,-4.6339,-4.63,-4.5512,-4.5375,-4.6163,-4.3841,-4.2817,-4.363,-4.1198,-3.9423,-3.8557,-3.6066,-3.3941,-3.2257,0.0,0.0,0.0,0.0,0.0,0.0,0.0,0.0,0.0,0.0,0.0,0.0,0.0,0.0,0.0,0.0,0.0,0.0,0.0,0.0,0.0,0.0,-4.3292,-4.2705,-4.5878,-4.8677,-4.9835,-5.1666,-5.2984,-5.3408,-5.466,-5.579,-5.6664,-5.7115,-5.773,-5.8616,-5.8888,-5.9289,-5.9912,-6.0555,-6.1003,-6.1237,-6.1237,-6.1354,-6.1607,-6.1607,-6.1607,-6.1607,-6.1607,-6.1607,-6.1588,-6.1354,-6.1237,-6.1218,-6.0984,-6.0886,-6.075,-5.9484,-5.8841,-5.8646,-5.8646,-5.7944,-5.697,-5.6736,-5.6269,-5.5782,-5.5782,-5.5353,-5.4846,-5.4846,-5.4398,-5.3911,-5.3911,-5.3911,-5.3911,-5.3911,-5.3911,-5.3911,-5.3911,-5.3911,-5.3833,-5.3599,-5.3541,-5.3268,-5.2414,-5.1861,-5.1167,-4.9952,-4.9742,-4.9533,-4.8898,-4.8796,0.0,-4.88,-4.8596,-4.8196,-4.7572,-4.7294,-4.6923,-4.6347,-4.6045,-4.5455,-4.448,-4.3734,-4.3163,-4.2778,-4.1466,-4.0335,-3.9457,-3.7558,-3.6332,0.0,0.0,0.0,0.0,0.0,0.0,0.0,0.0,0.0,0.0,0.0,0.0,0.0,0.0,0.0,0.0,0.0,0.0,0.0,0.0,0.0,0.0,-4.4507,-4.7151,-4.7404,-4.9549,-5.1561,-5.2831,-5.418,-5.5322,-5.6168,-5.7037,-5.7914,-5.878,-5.881,-5.9172,-6.0029,-6.0088,-6.0321,-6.0828,-6.1334,-6.1607,-6.1607,-6.1607,-6.1607,-6.1607,-6.1607,-6.1607,-6.1607,-6.1607,-6.1607,0.0,-6.1607,-6.1607,-6.1607,-6.1607,-6.1607,0.0,0.0,0.0,0.0,0.0,-5.8685,-5.8237,-5.8237,-5.7944,-5.7496,-5.7126,-5.6658,-5.6171,-5.586,-5.5392,-5.4983,-5.4983,-5.4983,-5.4983,-5.4983,-5.4983,-5.4983,-5.4983,-5.4983,-5.4885,-5.4515,-5.4437,-5.4184,-5.3303,-5.314,0.0,-5.1381,-5.083,-5.0426,-4.9933,-4.9848,-4.9853,-4.9855,-4.9549,-4.9151,-4.8644,-4.8254,-4.7708,-4.686,-4.6426,0.0,0.0,0.0,-4.327,-4.2387,-4.19,0.0,0.0,0.0,0.0,0.0,0.0,0.0,0.0,-3.7108,-3.7233,0.0,0.0,0.0,0.0,0.0,0.0,0.0,0.0,0.0,0.0,0.0,0.0,0.0,0.0,0.0,0.0,-4.8263,-5.1076,-5.2675,-5.307,-5.3716,-5.5178,-5.6121,-5.6998,-5.7905,-5.8685,-5.9503,-6.038,-6.0458,-6.0769,-6.1568,0.0,0.0,0.0,0.0,-6.1607,-6.1607,-6.1607,-6.1607,-6.1607,-6.1607,-6.1607,-6.1607,-6.1607,-6.1607,-6.1607,-6.1607,-6.1607,-6.1607,-6.1607,-6.1607,-6.1607,-6.1607,-6.112,-6.0341,-5.9581,-5.923,-5.9152,-5.9152,0.0,0.0,-5.81,-5.7847,-5.7711,-5.699,-5.6697,-5.6639,-5.6639,-5.6561,-5.6503,-5.6503,-5.6503,-5.6503,-5.6503,-5.6503,-5.6288,-5.5509,-5.5353,-5.51,-5.4223,-5.4048,-5.3783,-5.2902,-5.2017,-5.1398,-5.13,-5.1308,-5.1308,-5.13,-5.0672,-5.0199,-5.0121,0.0,0.0,-4.7722,-4.6844,-4.6323,-4.6299,-4.4699,-4.3409,-4.263,-4.274,-4.2777,-4.2671,-4.268,-4.306,-4.3841,-4.3841,-4.3899,-4.3929,-3.9922,-3.9325,0.0,0.0,0.0,0.0,0.0,0.0,0.0,0.0,0.0,0.0,0.0,0.0,0.0,0.0,0.0,-4.7606,-5.0926,-5.3513,-5.4546,-5.5911,-5.6664,-5.6293,-5.7014,-5.8145,-5.9639,-5.9951,-6.0399,-6.1276,-6.1354,-6.1412,-6.1588,-6.1607,0.0,-6.1607,-6.1607,-6.1607,-6.1607,-6.1607,-6.1607,-6.1607,0.0,0.0,-6.1607,-6.1607,-6.1607,-6.1607,-6.1607,-6.1607,-6.1607,-6.1607,-6.1607,-6.1607,-6.1607,-6.149,-6.1334,-6.1159,-6.0653,-6.0049,-6.0049,-5.9581,-5.8977,-5.8802,-5.8743,-5.8724,-5.8548,-5.8022,0.0,-5.7477,-5.699,-5.6503,-5.6503,-5.6503,-5.6503,-5.6503,-5.6503,-5.6444,-5.6269,-5.6249,-5.5996,-5.5119,-5.4944,-5.4671,-5.3794,-5.2933,-5.2102,-5.1401,-5.1356,-5.1356,-5.13,-5.116,-5.0823,-5.018,-4.9893,-4.9445,-4.862,-4.7756,-4.695,-4.6255,-4.5235,-4.4566,-4.4403,-4.5072,-4.5131,-4.4436,-4.4429,-4.4493,-4.4674,-4.4676,-4.5365,-4.6617,-4.4367,-4.3946,0.0,0.0,0.0,0.0,0.0,0.0,0.0,0.0,0.0,0.0,0.0,-4.1545,0.0,0.0,-4.8821,-5.1004,-5.3525,-5.5494,-5.6324,-5.758,-5.8094,-5.7256,-5.8281,-5.9384,-6.0222,-6.069,-6.1138,-6.1567,-6.1606,-6.1597,-6.1607,-6.1607,-6.1607,-6.1607,-6.1607,-6.1607,-6.1607,-6.1607,-6.1607,-6.1607,-6.1607,-6.1607,-6.1607,-6.1607,-6.1607,-6.1607,-6.1607,-6.1607,-6.1607,-6.1597,-6.1606,-6.1606,-6.1603,-6.1586,-6.1607,-6.1607,-6.1315,-6.0945,-6.0945,-6.0672,-6.0224,-5.9795,-5.9639,-5.9561,-5.9133,-5.8704,-5.8353,-5.8353,-5.8061,-5.7652,-5.7204,-5.7107,-5.699,-5.66,-5.6503,-5.6503,-5.6503,-5.6503,-5.6366,-5.5937,-5.584,-5.5567,-5.4707,-5.42,-5.3459,-5.2149,-5.1973,-5.183,-5.1355,-5.1296,-5.114,-5.075,-5.0665,-5.0307,-4.9464,-4.8626,-4.7788,-4.6911,-4.6443,-4.6014,-4.5572,-4.5975,-4.6001,-4.5559,-4.5975,-4.6209,-4.6203,-4.6612,-4.7198,-4.7971,-4.7106,-4.6911,0.0,0.0,0.0,0.0,0.0,0.0,0.0,0.0,-3.9493,-4.1409,-4.4085,-4.6583,-4.819,-5.0302,-5.2368,-5.411,-5.5736,-5.7042,-5.7836,-5.871,-5.9011,-5.8367,-5.9482,-6.0369,-6.0543,-6.1186,-6.1595,-6.1595,-6.1595,-6.1606,-6.1607,-6.1607,-6.1588,-6.1597,-6.1588,-6.1588,-6.1597,-6.1588,-6.1607,-6.1607,-6.1607,-6.1607,-6.1607,-6.1607,-6.1607,-6.1607,-6.1607,-6.1607,-6.1607,-6.1606,-6.1595,-6.1595,-6.16,-6.1603,-6.1597,-6.1597,-6.1606,-6.1606,-6.1597,-6.1597,-6.148,-6.0769,-6.0555,-6.0419,-5.9717,-5.9386,-5.925,-5.925,-5.9133,-5.8841,-5.812,-5.7944,-5.7788,-5.7145,-5.699,-5.6931,-5.6775,-5.6717,-5.6678,-5.6522,-5.6503,-5.6277,-5.5572,-5.5439,-5.4855,-5.3104,-5.2855,-5.2536,-5.1661,-5.1549,-5.1483,-5.1328,-5.1308,-5.0957,-5.0073,-4.9406,-4.8672,-4.7814,-4.7756,-4.7437,-4.6722,-4.6716,-4.6709,-4.6708,-4.7384,-4.7749,-4.7723,-4.8382,-4.873,-4.8829,-4.8817,-4.881,-3.2444,-3.4184,-3.6011,-3.7644,-3.8078,-3.9487,0.0,0.0,-4.5903,-4.8425,-4.9855,-5.0947,-5.1856,-5.2896,-5.419,-5.5931,-5.7017,-5.7934,-5.8738,-5.9596,-6.0122,-6.0024,-6.02,-6.0601,-6.1383,-6.1529,-6.1588,-6.1588,-6.1588,-6.1588,-6.1607,-6.1607,-6.1597,-6.1595,-6.1597,-6.1597,-6.1595,-6.1597,-6.1607,-6.1607,-6.1607,-6.1607,-6.1607,-6.1607,-6.1607,-6.1607,-6.1607,-6.1607,-6.1607,-6.1588,-6.1588,-6.1588,-6.1597,-6.1606,-6.1603,-6.16,-6.1607,-6.1607,-6.1603,-6.1595,-6.1576,-6.15,-6.1451,-6.1432,-6.1334,-6.0769,-6.0146,-6.0146,-5.96,-5.8977,-5.888,-5.8841,-5.8821,-5.8743,-5.8724,-5.8509,-5.773,-5.7574,-5.734,-5.6639,-5.6503,-5.6464,-5.6375,-5.6355,-5.5751,-5.402,-5.3752,-5.3432,-5.2577,-5.246,-5.2168,-5.1388,-5.131,-5.0952,-5.0073,-4.9917,-4.9508,-4.8716,-4.8658,-4.8612,-4.8514,-4.8514,-4.8522,-4.8502,-4.8599,-4.8635,-4.8574,-4.8603,-4.8965,-4.9666,-4.9611,-4.9577,-3.8521,-3.9546,0.0,0.0,-4.3738,-4.5156,-4.7683,-4.8724,-4.9627,-5.1225,-5.2648,-5.372,-5.4059,-5.4833,-5.5815,0.0,-5.7992,-5.8831,-5.9638,-6.0066,-6.03,-6.03,-6.03,-6.064,-6.1514,-6.1595,-6.1595,-6.1612,-6.1595,-6.1606,-6.1606,-6.1606,-6.1595,-6.1603,-6.1595,-6.184,-6.2347,-6.2357,-6.2581,-6.3049,-6.3049,-6.2805,-6.2366,-6.2366,-6.2074,-6.1606,-6.1606,-6.1597,-6.1588,-6.1595,-6.1592,-6.1592,-6.1639,-6.166,-6.1648,-6.1607,-6.1607,-6.1595,-6.1592,-6.1603,-6.1595,-6.1597,-6.1607,-6.1607,-6.1607,-6.1354,-6.1062,-6.1062,-6.0789,-6.0399,-5.9893,-5.9756,-5.962,-5.9113,-5.9005,-5.8897,-5.8527,-5.8094,-5.7666,-5.7326,-5.6851,-5.65,-5.6511,-5.6503,-5.6258,-5.5525,-5.4991,-5.4348,-5.3474,-5.3369,-5.3031,-5.2154,-5.1596,-5.1147,-5.0794,-5.0755,-5.0404,-4.9547,-4.9508,-4.9294,-4.8826,-4.8801,-4.8801,-4.8801,-4.9262,-4.9465,-4.9401,-4.9826,-5.0202,-5.0497,-5.099,-5.1188,-4.1891,0.0,0.0,-4.603,-4.8053,-4.9582,-4.9789,-5.1154,-5.2555,-5.3187,-5.4309,-5.5194,-5.519,-5.5718,0.0,-5.7622,-5.8526,-5.9455,-6.0506,-6.0458,-6.0302,-6.0302,-6.0097,-6.0289,-6.1159,-6.1456,-6.1612,-6.1607,-6.16,-6.1612,-6.1603,-6.1603,-6.172,-6.1954,-6.1965,-6.2386,-6.3253,-6.3244,-6.3517,-6.4101,-6.4101,-6.3799,-6.3232,-6.2999,-6.257,-6.1946,-6.1693,-6.1595,-6.1597,-6.16,-6.1595,-6.1595,-6.1648,-6.1679,-6.1691,-6.1654,-6.1634,-6.1628,-6.16,-6.1592,-6.1612,-6.1606,-6.1597,-6.1607,-6.1597,-6.1597,-6.1597,-6.1606,-6.1606,-6.145,-6.0826,-6.0651,-6.0495,-5.9871,-5.9712,-5.9662,-5.9428,-5.8936,-5.8455,-5.8207,-5.7459,-5.6866,-5.687,-5.6647,-5.6492,-5.6503,-5.5957,-5.5244,-5.4371,-5.4044,-5.3666,-5.3023,-5.2173,-5.1666,-5.1651,-5.1437,-5.1028,-5.0404,-5.0365,-5.0092,-4.9508,-4.9484,-4.9491,-4.9491,-5.0068,-5.033,-5.0267,-5.1081,-5.1406,-5.1373,-5.2229,-5.2601,0.0,0.0,-4.6306,-4.722,-4.9405,-5.1531,-5.2311,-5.3839,-5.5085,-5.5119,-5.5155,-5.5197,-5.5191,-5.5229,-5.5801,-5.7519,-5.8533,-5.9689,-6.1324,-6.0828,-6.0302,-6.0302,-5.954,-5.9381,0.0,-6.1097,-6.1603,-6.1603,-6.16,-6.1607,-6.1603,-6.1603,-6.1993,-6.2832,-6.2864,-6.3273,-6.4157,-6.4091,-6.4082,-6.4101,-6.4101,-6.4082,-6.4043,-6.3263,-6.2893,-6.2815,-6.1965,-6.1603,-6.1603,-6.1607,-6.1595,-6.1595,-6.1595,-6.1648,-6.1699,-6.1699,-6.1705,-6.1696,-6.1628,-6.1595,-6.1595,-6.1612,-6.1606,-6.1597,-6.1595,-6.1603,-6.1603,-6.1607,-6.1595,-6.1595,-6.1576,-6.1556,-6.1556,-6.1537,-6.1517,-6.1302,-6.0522,-6.0327,-6.0074,-5.9215,-5.8357,-5.7765,-5.7771,-5.7061,-5.6508,-5.6511,-5.6483,-5.6141,-5.5268,-5.4429,-5.3884,-5.3864,-5.3089,-5.2567,-5.2567,-5.1787,-5.13,-5.1261,-5.1261,-5.1242,-5.1222,-5.1222,-5.1222,-5.1222,-5.1245,-5.1234,-5.115,-5.1967,-5.2324,-5.2283,-5.3085,-5.3456,0.0,0.0,-4.8935,-4.9795,-5.1963,-5.3933,-5.4195,-5.471,-5.5119,-5.5121,-5.4258,-5.3468,-5.3468,-5.3507,-5.4293,-5.6569,-5.7661,-5.9026,-6.1285,-6.0846,-6.0094,-5.9509,-5.9685,0.0,0.0,0.0,0.0,-6.1568,-6.16,-6.16,-6.1607,-6.2153,-6.2594,-6.289,-6.3466,-6.4159,-6.4988,-6.4958,-6.5251,-6.5816,-6.5289,-6.5026,-6.5006,-6.4138,-6.3748,-6.372,-6.284,-6.245,-6.2422,-6.1895,-6.1673,-6.1673,-6.1673,-6.1673,-6.1699,-6.1648,-6.1654,-6.1705,-6.1673,-6.1673,-6.1667,-6.1615,-6.16,-6.16,-6.16,-6.1607,-6.1607,-6.1595,-6.1595,-6.1595,-6.1595,-6.1595,-6.1595,-6.1595,-6.1621,-6.1595,-6.1322,-6.0801,-6.0319,-6.0015,-5.9254,-5.8663,-5.8663,-5.7946,-5.717,-5.6589,-5.6503,-5.6394,-5.6102,-5.5299,-5.4753,-5.4757,-5.3986,-5.3459,-5.3463,-5.319,-5.3034,-5.3034,-5.3034,-5.2781,-5.2197,-5.2158,-5.2158,-5.2158,-5.215,-5.2387,-5.2858,-5.3086,-5.3164,-5.3108,-5.3978,-5.4349,0.0,-4.9145,-5.043,-5.2219,-5.3896,-5.5103,-5.5093,-5.485,-5.4547,-5.4237,-5.2586,-5.1291,-5.1603,-5.1472,-5.2342,-5.5509,-5.6764,-5.8324,-6.1197,-6.0846,-6.0094,-5.9564,-5.972,0.0,0.0,0.0,0.0,-6.1537,-6.1615,-6.1751,-6.2044,-6.2609,-6.316,-6.3769,-6.4334,-6.5036,-6.5855,-6.5855,-6.6147,-6.6692,-6.6186,-6.5933,-6.5903,-6.5035,-6.4625,-6.4577,-6.3717,-6.3199,-6.2867,-6.2369,-6.1972,-6.1705,-6.1705,-6.1705,-6.1685,-6.1654,-6.166,-6.1705,-6.1699,-6.1699,-6.1699,-6.1648,-6.1621,-6.1595,-6.1621,-6.1648,-6.1648,-6.1634,-6.1648,-6.1648,-6.1634,-6.1648,-6.1648,-6.1634,-6.166,-6.1705,-6.1705,-6.1266,-6.0856,-6.0851,-6.0163,-5.9558,-5.956,-5.8819,-5.7938,-5.7092,-5.6948,-5.6814,-5.6541,-5.6012,-5.5662,-5.5665,-5.4874,-5.4356,-5.4359,-5.4087,-5.3911,-5.3911,-5.3875,-5.3613,-5.3048,-5.3028,-5.3028,-5.3028,-5.3037,-5.3283,-5.3713,-5.398,-5.4056,-5.3978,-5.4832,-5.5238,-4.9353,-5.015,-5.1025,-5.4285,-5.5093,-5.5074,-5.5045,-5.4324,-5.339,-5.2446,-5.0246,-4.874,0.0,0.0,-5.0034,-5.4255,-5.5815,-5.768,-6.1058,-6.0865,-6.0367,0.0,0.0,0.0,0.0,0.0,0.0,-6.1543,0.0,-6.2056,-6.2863,-6.2941,-6.3698,-6.5348,-6.5446,-6.5855,-6.6692,-6.6712,-6.6712,-6.6712,-6.6712,-6.6712,-6.6673,-6.5835,-6.5465,-6.5426,-6.4616,-6.3803,-6.3038,-6.302,-6.2505,-6.1754,-6.172,-6.1701,-6.1696,-6.1701,-6.1701,-6.1696,-6.1705,-6.1699,-6.1699,-6.1699,-6.1654,-6.1621,-6.1673,-6.1699,-6.1705,-6.1696,-6.1691,-6.1705,-6.1696,-6.171,-6.1705,-6.1696,-6.1701,-6.1701,-6.1701,-6.1701,-6.1701,-6.1701,-6.1037,-6.0447,-6.0417,-5.9664,-5.8804,-5.7987,-5.7802,-5.7466,-5.6608,-5.6503,-5.6503,-5.6503,-5.5762,-5.5275,-5.5275,-5.4515,-5.4028,-5.4028,-5.3964,-5.3915,-5.3866,-5.3876,-5.3876,-5.3876,-5.3922,-5.3914,-5.3833,-5.4657,-5.499,-5.4881,-5.5642,-5.6012,-5.0195,-5.2278,-5.3922,-5.4813,-5.5027,-5.4852,-5.421,-5.2921,-5.1269,-4.9148,-4.7189,-4.5553,-4.446,0.0,0.0,-5.0842,-5.4234,0.0,-6.032,-6.1034,0.0,0.0,0.0,-6.0873,-6.0444,-6.0996,0.0,0.0,-6.1679,-6.2044,-6.2863,-6.3526,-6.4341,-6.5368,-6.603,-6.6478,-6.6712,-6.6712,-6.6712,-6.6712,-6.6712,-6.6712,-6.6692,-6.6478,-6.6381,-6.6322,-6.5513,-6.5035,-6.4731,-6.352,-6.287,-6.2602,-6.1949,-6.1696,-6.1705,-6.1696,-6.1691,-6.1705,-6.1691,-6.1696,-6.1696,-6.1696,-6.1691,-6.1671,-6.1696,-6.1696,-6.1696,-6.1696,-6.1696,-6.1696,-6.1701,-6.1696,-6.1696,-6.1701,-6.1701,-6.1701,-6.1701,-6.1701,-6.1701,-6.1701,-6.1525,-6.1169,-6.0514,-6.0191,-5.9755,-5.8903,-5.8706,-5.8145,-5.6683,-5.6492,-5.6503,-5.6503,-5.6288,-5.6171,-5.6171,-5.5957,-5.584,-5.584,-5.5812,-5.5492,-5.4791,-5.4771,-5.4771,-5.4771,-5.473,-5.4999,-5.5566,-5.5747,-5.5777,-5.57,-5.5896,-5.6012,-5.2173,-5.3914,-5.4995,-5.499,-5.4718,-5.3902,-5.1921,-5.0148,-4.8078,-4.5153,-4.3517,0.0,0.0,0.0,0.0,0.0,0.0,0.0,-5.9918,-6.1081,-6.1439,0.0,-6.1392,0.0,-6.1027,-6.1417,-6.171,0.0,-6.205,-6.2629,-6.3428,-6.4299,-6.5132,-6.5952,-6.6439,-6.6712,-6.6712,-6.6712,-6.6712,-6.6712,-6.6712,-6.6712,-6.6712,-6.6712,-6.6712,-6.6673,0.0,-6.5825,-6.5405,-6.4072,-6.3293,-6.287,-6.2027,-6.1696,-6.171,-6.1696,-6.1696,-6.171,-6.1696,-6.1701,-6.1701,-6.1701,-6.1701,-6.1701,-6.1701,-6.1701,-6.1701,-6.1701,-6.1696,-6.1691,-6.1691,-6.1685,-6.1666,-6.1691,-6.1691,-6.1691,-6.1696,-6.1701,-6.1701,-6.1701,-6.1701,-6.154,-6.1047,-6.0963,-6.0665,-5.9806,-5.9599,-5.9089,-5.781,-5.7287,-5.6901,-5.6539,-5.6492,-5.6503,-5.6503,-5.6503,-5.6503,-5.6503,-5.6446,-5.6154,-5.5614,-5.5594,-5.5571,-5.5546,-5.5534,-5.5735,-5.616,-5.6117,-5.6075,-5.6012,-5.6012,-5.6012,-5.4194,-5.5009,-5.5145,-5.5029,-5.4252,-5.262,-4.9202,-4.7007,-4.4676,-4.1121,0.0,0.0,-3.8035,0.0,-4.3371,-4.7669,0.0,-5.5243,-5.9612,-6.0937,-6.151,-6.1676,-6.171,-6.1705,-6.1696,-6.1701,-6.1701,-6.1701,-6.2602,-6.3462,-6.417,-6.5024,-6.5864,-6.6673,-6.6712,-6.6712,-6.6712,-6.6712,-6.6712,-6.6712,-6.6712,-6.6712,-6.6712,-6.6712,-6.6712,-6.6712,-6.6712,0.0,-6.5424,-6.4572,-6.3689,-6.2831,-6.2027,-6.1701,-6.1701,-6.1696,-6.1696,-6.1701,-6.1696,-6.1696,-6.1701,-6.1701,-6.1701,-6.1701,-6.1701,-6.1701,-6.1701,-6.1701,-6.1691,-6.1699,-6.1699,-6.1667,-6.1621,-6.1673,-6.1699,-6.1705,-6.1696,-6.1696,-6.1701,-6.1701,-6.1701,-6.1701,-6.1701,-6.171,-6.1431,-6.0686,-6.051,-6.0169,-5.9372,-5.8445,-5.7563,-5.6761,-5.6675,-5.6628,-5.6511,-5.6492,-5.6511,-5.6503,-5.6388,-5.6297,-5.6207,-5.6194,-5.6168,-5.6117,-5.6141,-5.616,-5.6102,-5.6087,-5.6059,-5.6012,-5.6012,-5.607,-5.3611,-5.4971,-5.5903,-5.5184,-5.3805,-5.1727,-4.8308,-4.5666,0.0,0.0,0.0,-3.6209,-3.5341,-3.7902,0.0,-4.5928,0.0,0.0,0.0,0.0,-6.0887,0.0,0.0,0.0,0.0,0.0,0.0,0.0,0.0,-6.4053,-6.4189,-6.5024,-6.5864,-6.6673,-6.6712,-6.6712,-6.6712,-6.6712,-6.6712,-6.6712,-6.6712,-6.6712,-6.6712,-6.6712,-6.6712,-6.6712,-6.6712,0.0,-6.5424,-6.4572,-6.3709,-6.2909,-6.2047,-6.1701,-6.1696,-6.1705,-6.171,-6.1696,-6.1705,-6.1691,-6.1701,-6.1701,-6.1701,-6.1701,-6.1701,-6.1701,-6.1701,-6.1701,-6.1696,-6.1696,-6.1699,-6.1699,-6.1673,-6.1621,-6.1648,-6.1699,-6.1705,-6.1691,-6.1701,-6.1701,-6.1701,-6.1701,-6.1701,-6.1696,-6.1657,-6.1505,-6.142,-6.1068,-6.0288,-5.9369,-5.846,-5.7666,-5.7568,-5.7268,-5.6566,-5.6508,-5.65,-5.6511,-5.6483,-5.6417,-5.6297,-5.6219,-5.6194,-5.6181,-5.6087,-5.6059,-5.6102,-5.6043,-5.601,-5.6012,-5.6012,-5.6399,-5.4019,-5.499,-5.5417,-5.4543,-5.2698,-4.9959,-4.5627,0.0,0.0,0.0,0.0,-3.3494,-3.2632,0.0,0.0,0.0,0.0,0.0,0.0,0.0,0.0,0.0,0.0,0.0,0.0,0.0,0.0,0.0,0.0,-6.4209,-6.4209,-6.5424,-6.6293,-6.6692,-6.6712,-6.6712,-6.6712,-6.6712,-6.6712,-6.6712,-6.6712,-6.6712,-6.6712,-6.6712,-6.6712,-6.6673,-6.6254,0.0,-6.5405,-6.4072,-6.3325,-6.2909,-6.2047,-6.1696,-6.171,-6.1699,-6.1705,-6.1705,-6.1654,-6.166,-6.1696,-6.1691,-6.1696,-6.1701,-6.1701,-6.1701,-6.1701,-6.1701,-6.1701,-6.1696,-6.1654,-6.1648,-6.1648,-6.1615,-6.1654,-6.171,-6.171,-6.1696,-6.1701,-6.1701,-6.1696,-6.171,-6.171,-6.1666,-6.166,-6.166,-6.1615,-6.1463,-6.1068,-6.0621,-5.9863,-5.8562,-5.8418,-5.8254,-5.7844,-5.7396,-5.7115,-5.7126,-5.6717,-5.6446,-5.6308,-5.6267,-5.6219,-5.616,-5.6087,-5.6059,-5.6059,-5.601,-5.6244,-5.6689,-5.6689,-5.7153,-5.3805,-5.4446,-5.4465,-5.3436,-5.1377,-4.8269,-4.3102,-3.98,0.0,0.0,-3.1612,-3.1255,-3.0942,0.0,0.0,0.0,0.0,0.0,0.0,0.0,0.0,0.0,0.0,0.0,0.0,0.0,0.0,0.0,0.0,0.0,-6.47,-6.5972,-6.6712,-6.6712,-6.6712,-6.6712,-6.6712,-6.6712,-6.6712,-6.6712,-6.6712,-6.6712,-6.6692,-6.6517,-6.6449,-6.641,-6.558,0.0,0.0,-6.3481,-6.2831,-6.2661,-6.1969,-6.1691,-6.1699,-6.1673,-6.1693,-6.1699,-6.1621,-6.1634,-6.1696,-6.1705,-6.1691,-6.1701,-6.1701,-6.1701,-6.1701,-6.1701,-6.1701,-6.1676,-6.1628,-6.1621,-6.1621,-6.1621,-6.166,-6.1696,-6.1701,-6.1701,-6.1701,-6.1701,-6.1691,-6.1705,-6.1699,-6.1667,-6.1621,-6.1595,-6.16,-6.1603,-6.1603,-6.1606,-6.109,-5.9704,-5.9384,-5.92,-5.9025,-5.8362,-5.7972,-5.7983,-5.7204,-5.6699,-5.6602,-5.6416,-5.6244,-5.6141,-5.6306,-5.6378,-5.63,-5.6507,-5.6953,-5.7596,-5.7596,-5.8078,-5.1513,-5.2659,-5.3436,-5.1824,-5.0056,-4.7376,-4.2209,0.0,0.0,0.0,-3.07,-3.0071,-3.1502,-3.2751,0.0,0.0,0.0,0.0,0.0,0.0,0.0,0.0,0.0,0.0,0.0,0.0,0.0,0.0,0.0,0.0,-6.6352,-6.6615,-6.6712,-6.6712,-6.6712,-6.6712,-6.6712,-6.6712,-6.6712,-6.6712,-6.6712,-6.6712,-6.6673,-6.5933,-6.5619,-6.5561,-6.47,0.0,0.0,-6.302,-6.2524,-6.1813,-6.174,-6.1691,-6.1699,-6.1621,-6.1648,-6.1699,-6.1621,-6.1634,-6.1701,-6.1696,-6.1696,-6.1701,-6.1701,-6.1701,-6.1701,-6.1701,-6.1701,-6.1676,-6.1628,-6.1648,-6.1699,-6.1699,-6.1699,-6.1705,-6.1696,-6.1701,-6.1701,-6.1701,-6.1696,-6.1696,-6.1699,-6.1699,-6.1673,-6.1621,-6.16,-6.1603,-6.1603,-6.1606,-6.1529,-6.1373,-6.0651,-5.9868,-5.9069,-5.8933,-5.8886,-5.888,-5.8061,-5.7574,-5.7574,-5.6748,-5.6289,-5.6278,-5.6997,-5.7338,-5.7269,-5.812,-5.8547,-5.8568,-5.8568,-5.9033,-5.0775,-5.2037,-5.264,-5.1494,-4.9493,-4.6482,-4.1354,0.0,0.0,-3.1717,-2.9814,-2.9135,-3.0867,-3.1883,-3.3499,-3.665,-3.8544,-4.1719,0.0,0.0,0.0,0.0,0.0,0.0,0.0,0.0,0.0,0.0,0.0,0.0,-6.5121,-6.5688,-6.5747,-6.521,-6.5708,-6.5727,-6.5191,-6.5191,-6.5191,-6.5191,-6.5191,-6.5191,-6.518,-6.4856,-6.472,-6.4661,-6.3845,0.0,0.0,-6.2427,-6.2008,-6.1701,-6.1691,-6.1679,-6.1648,-6.1621,-6.1621,-6.1648,-6.1621,-6.1634,-6.1696,-6.1691,-6.1691,-6.1701,-6.1701,-6.1701,-6.1701,-6.1701,-6.1701,-6.1676,-6.1628,-6.1621,-6.1648,-6.1648,-6.1679,-6.1691,-6.1696,-6.1701,-6.1696,-6.171,-6.166,-6.1648,-6.1634,-6.1639,-6.1623,-6.1595,-6.1606,-6.1606,-6.1606,-6.1597,-6.1607,-6.1607,-6.1285,-6.0943,-6.0593,-6.0086,-5.9785,-5.9776,-5.8957,-5.847,-5.847,-5.8121,-5.7907,-5.7865,-5.8173,-5.8311,-5.8231,-5.8609,-5.9055,-5.9532,-5.9532,-6.0017,-4.9027,-5.0445,-5.1086,-5.025,-4.8094,-4.4967,0.0,0.0,-3.348,-3.1181,-2.9511,-2.8935,-3.0443,-3.1207,-3.2259,-3.4264,-3.6021,-3.8935,-4.4169,0.0,0.0,0.0,0.0,0.0,0.0,0.0,0.0,0.0,0.0,0.0,0.0,-6.4287,-6.4591,-6.4209,-6.4798,-6.4817,-6.4209,-6.4209,-6.4209,-6.4209,-6.4209,-6.4209,-6.4189,-6.3962,-6.3845,-6.3806,-6.2967,0.0,0.0,-6.1949,-6.1696,-6.1691,-6.1705,-6.1667,-6.1607,-6.1595,-6.1595,-6.1595,-6.1621,-6.166,-6.1696,-6.1705,-6.1705,-6.1691,-6.1691,-6.1671,-6.1696,-6.1696,-6.1685,-6.166,-6.1648,-6.1602,-6.1602,-6.1628,-6.1666,-6.1701,-6.1701,-6.1696,-6.1691,-6.1699,-6.1648,-6.1607,-6.1603,-6.1606,-6.1597,-6.1607,-6.1607,-6.1607,-6.1607,-6.1607,-6.1607,-6.1607,-6.1607,-6.1607,-6.1607,-6.1042,-6.0672,-6.0672,-5.9873,-5.9386,-5.9386,-5.9133,-5.8978,-5.8928,-5.9182,-5.9285,-5.9206,-5.949,-5.9918,-6.0495,-6.0495,-6.0825,-4.5589,-4.7317,-4.8425,-4.757,-4.5414,-4.2636,0.0,-3.5724,-3.2745,-3.1059,-2.9991,-2.9661,-3.0535,-3.0704,-3.1579,-3.4186,-3.6002,-3.8942,-4.4169,0.0,0.0,0.0,0.0,0.0,0.0,0.0,0.0,0.0,0.0,0.0,0.0,-6.2544,-6.3384,-6.4189,-6.4209,-6.4209,-6.4209,-6.4209,-6.4209,-6.4209,-6.4209,-6.4209,-6.417,-6.3384,-6.3006,0.0,0.0,0.0,0.0,-6.1701,-6.1691,-6.1699,-6.1699,-6.166,-6.1603,-6.1607,-6.1595,-6.1621,-6.1673,-6.171,-6.1696,-6.1705,-6.1699,-6.1699,-6.1621,-6.1648,-6.1699,-6.1699,-6.1654,-6.1612,-6.1673,-6.1648,-6.1621,-6.1671,-6.1701,-6.1701,-6.1701,-6.171,-6.1699,-6.1699,-6.1648,-6.1607,-6.1603,-6.1603,-6.1595,-6.1588,-6.1607,-6.1607,-6.1607,-6.1607,-6.1607,-6.1607,-6.1607,-6.1607,-6.1607,-6.1588,-6.1588,-6.1588,-6.0769,-6.0282,-6.0282,-5.9464,-5.8996,-5.8996,-5.9854,-6.0253,-6.02,-6.111,-6.1539,-6.1484,-6.1484,-6.1447,-4.1238,-4.2928,-4.3889,-4.2451,-4.1496,-3.9999,-3.6572,-3.4036,-3.2065,-3.0918,-2.9563,-2.9024,-3.0489,-3.0773,-3.1991,-3.578,-3.7319,0.0,0.0,0.0,0.0,0.0,0.0,0.0,0.0,0.0,0.0,0.0,0.0,0.0,0.0,-6.1969,-6.2237,-6.2485,-6.3059,-6.3098,-6.2505,-6.2485,-6.2485,-6.2485,-6.2485,-6.2485,-6.2485,-6.2237,0.0,0.0,0.0,0.0,0.0,-6.1701,-6.1696,-6.1691,-6.1654,-6.1615,-6.1607,-6.1595,-6.1595,-6.1602,-6.1685,-6.1696,-6.1701,-6.1696,-6.1691,-6.1691,-6.1671,-6.1654,-6.1648,-6.1693,-6.1654,-6.1612,-6.1673,-6.1648,-6.1621,-6.1679,-6.1691,-6.1696,-6.1705,-6.1705,-6.1693,-6.1646,-6.1619,-6.1603,-6.1606,-6.1597,-6.1597,-6.1607,-6.1607,-6.1607,-6.1607,-6.1607,-6.1607,-6.1607,-6.1607,-6.1607,-6.1607,-6.1607,-6.1607,-6.1607,-6.1334,-6.1198,-6.1198,-6.0925,-6.0769,-6.0769,-6.1042,-6.1169,-6.1149,-6.1461,-6.1598,-6.1558,-6.1558,-6.1558,0.0,-3.9228,-4.0092,-3.9388,-3.8723,-3.7506,-3.4737,-3.2765,-3.1189,-2.9994,-2.9196,-2.9021,-3.0112,-3.0585,-3.1895,-3.5226,-3.7038,0.0,0.0,0.0,0.0,0.0,0.0,0.0,0.0,0.0,0.0,0.0,0.0,0.0,0.0,-6.1701,-6.1701,-6.1701,-6.2232,-6.2251,-6.172,-6.1696,-6.1696,-6.1701,-6.1696,-6.1696,-6.1701,-6.1671,0.0,0.0,0.0,0.0,0.0,-6.1701,-6.1696,-6.1691,-6.1654,-6.1621,-6.1595,-6.1621,-6.1648,-6.1648,-6.1691,-6.1701,-6.1701,-6.1696,-6.1691,-6.1666,-6.1666,-6.1634,-6.1615,-6.166,-6.1619,-6.1612,-6.1673,-6.1673,-6.1648,-6.1685,-6.1696,-6.1696,-6.171,-6.1705,-6.1673,-6.16,-6.1612,-6.1595,-6.1588,-6.1607,-6.1607,-6.1607,-6.1607,-6.1607,-6.1607,-6.1607,-6.1607,-6.1607,-6.1607,-6.1607,-6.1607,-6.1607,-6.1607,-6.1607,-6.1607,-6.1607,-6.1607,-6.1607,-6.1607,-6.1607,-6.1607,-6.1607,-6.1607,-6.1607,-6.1607,-6.1607,-6.1607,-6.1607,0.0,-3.584,-3.6723,-3.7486,-3.6511,-3.4924,-3.3304,-3.1683,0.0,-2.8515,-2.8832,-2.9469,-2.9721,-3.038,-3.1583,-3.3687,-3.5967,0.0,0.0,0.0,0.0,0.0,0.0,0.0,0.0,0.0,0.0,0.0,0.0,0.0,0.0,-6.1701,-6.1701,-6.1701,-6.1705,-6.1705,-6.1696,-6.1705,-6.1705,-6.1696,-6.1705,-6.1705,-6.1696,-6.1628,-6.1634,0.0,0.0,0.0,0.0,-6.1701,-6.1691,-6.1699,-6.1699,-6.1654,-6.1602,-6.1673,-6.1699,-6.1699,-6.1696,-6.1701,-6.1696,-6.1705,-6.1654,-6.1621,-6.1621,-6.1595,-6.1595,-6.1612,-6.1603,-6.1612,-6.1673,-6.1699,-6.1705,-6.1696,-6.1696,-6.1696,-6.1696,-6.1685,-6.1673,-6.1615,-6.1592,-6.1595,-6.1588,-6.1607,-6.1607,-6.1607,-6.1607,-6.1607,-6.1607,-6.1607,-6.1607,-6.1607,-6.1607,-6.1607,-6.1607,-6.1607,-6.1607,-6.1607,-6.1607,-6.1607,-6.1607,-6.1607,-6.1607,-6.1607,-6.1607,-6.1607,-6.1607,-6.1607,-6.1607,-6.1607,-6.1607,-6.1607,-2.8463,0.0,-3.1119,-3.0703,-3.0778,-3.0697,0.0,-2.9085,-2.8671,0.0,0.0,-2.9328,-3.1997,-3.2114,-3.3648,-3.9298,0.0,0.0,0.0,0.0,0.0,0.0,0.0,0.0,0.0,0.0,0.0,0.0,0.0,0.0,0.0,-6.1696,-6.1701,-6.1701,-6.1705,-6.1699,-6.1705,-6.1691,-6.1691,-6.1705,-6.1699,-6.1699,-6.1705,-6.1628,-6.1602,0.0,0.0,0.0,-6.1705,-6.1696,-6.1696,-6.1696,-6.1705,-6.1699,-6.1673,-6.1699,-6.1699,-6.1699,-6.1696,-6.1701,-6.1701,-6.1696,-6.1691,-6.1691,-6.1679,-6.1648,-6.1615,-6.1667,-6.1641,-6.1615,-6.1685,-6.1705,-6.1699,-6.1705,-6.1705,-6.1699,-6.1627,-6.1619,-6.1612,-6.1586,-6.1597,-6.1597,-6.1607,-6.1607,-6.1607,-6.1607,-6.1607,-6.1607,-6.1607,-6.1607,-6.1607,-6.1607,-6.1607,-6.1607,-6.1607,-6.1607,-6.1607,-6.1607,-6.1607,-6.1607,-6.1607,-6.1607,-6.1607,-6.1607,-6.1607,-6.1607,-6.1607,-6.1607,-6.1607,-6.1607,-6.1607,-6.1607,-2.6162,-2.8112,-3.0004,-3.0,-3.0346,-3.0468,-2.9581,0.0,0.0,0.0,0.0,0.0,-3.1705,0.0,0.0,0.0,0.0,0.0,0.0,0.0,0.0,0.0,0.0,0.0,0.0,0.0,0.0,0.0,0.0,0.0,0.0,-6.1696,-6.1701,-6.1701,-6.1691,-6.171,-6.171,-6.171,-6.171,-6.171,-6.1699,-6.1705,-6.171,-6.1628,-6.1621,0.0,0.0,0.0,-6.171,-6.1696,-6.1701,-6.1701,-6.1691,-6.171,-6.171,-6.171,-6.171,-6.171,-6.1696,-6.1701,-6.1701,-6.1701,-6.1696,-6.171,-6.1699,-6.1648,-6.1621,-6.1673,-6.1673,-6.1654,-6.1696,-6.171,-6.1699,-6.1705,-6.1679,-6.1648,-6.1654,-6.1627,-6.1592,-6.1606,-6.1606,-6.1597,-6.1588,-6.1607,-6.1607,-6.1607,-6.1607,-6.1607,-6.1607,-6.1607,-6.1607,-6.1607,-6.1607,-6.1607,-6.1607,-6.1607,-6.1607,-6.1607,-6.1607,-6.1607,-6.1607,-6.1607,-6.1607,-6.1607,-6.1607,-6.1607,-6.1607,-6.1607,-6.1607,-6.1607,-6.1607,-6.1607,-2.6096,-2.859,-3.1131,-3.127,-3.1704,-3.184,-3.0838,0.0,0.0,0.0,0.0,0.0,0.0,0.0,0.0,0.0,0.0,0.0,0.0,0.0,0.0,0.0,0.0,0.0,0.0,0.0,0.0,0.0,0.0,0.0,0.0,-6.1696,-6.1701,-6.1701,-6.1701,-6.1701,-6.1701,-6.171,-6.1705,-6.1696,-6.1705,-6.1705,-6.1696,-6.1628,-6.1634,-6.1691,0.0,0.0,-6.1696,-6.1701,-6.1701,-6.1701,-6.1701,-6.1701,-6.1701,-6.1701,-6.1701,-6.1701,-6.1696,-6.1696,-6.1696,-6.1696,-6.1685,-6.1673,-6.1673,-6.1648,-6.1621,-6.1673,-6.1673,-6.1679,-6.1671,-6.1685,-6.1679,-6.1685,-6.1634,-6.1615,-6.1667,-6.1634,-6.16,-6.1603,-6.1595,-6.1595,-6.1588,-6.1607,-6.1607,-6.1607,-6.1607,-6.1607,-6.1607,-6.1607,-6.1607,-6.1607,-6.1607,-6.1607,-6.1607,-6.1607,-6.1607,-6.1607,-6.1607,-6.1607,-6.1607,-6.1607,-6.1607,-6.1607,-6.1607,-6.1607,-6.1607,-6.1607,-6.1607,-6.1607,-6.1607,-6.1607,-2.8296,-3.0901,-3.2133,-2.8569,-2.9917,-3.168,-3.0063,0.0,0.0,0.0,0.0,0.0,0.0,0.0,0.0,0.0,0.0,0.0,0.0,0.0,0.0,0.0,0.0,0.0,0.0,0.0,0.0,0.0,0.0,0.0,0.0,-6.1696,-6.1701,-6.1701,-6.1701,-6.1701,-6.1701,-6.1696,-6.1691,-6.1705,-6.1699,-6.1699,-6.1699,-6.1628,-6.1621,-6.1621,0.0,-6.1699,-6.1705,-6.1696,-6.1701,-6.1701,-6.1701,-6.1701,-6.1701,-6.1701,-6.1701,-6.1696,-6.1705,-6.1705,-6.1679,-6.1628,-6.1621,-6.1621,-6.1621,-6.1621,-6.1595,-6.1621,-6.1621,-6.1621,-6.1621,-6.1621,-6.1615,-6.1619,-6.1612,-6.1603,-6.1606,-6.1606,-6.1597,-6.1597,-6.1597,-6.1588,-6.1607,-6.1607,-6.1607,-6.1607,-6.1607,-6.1607,-6.1607,-6.1607,-6.1607,-6.1607,-6.1607,-6.1607,-6.1607,-6.1607,-6.1607,-6.1607,-6.1607,-6.1607,-6.1607,-6.1607,-6.1607,-6.1607,-6.1607,-6.1607,-6.1607,-6.1607,-6.1607,-6.1607,-6.1607,-6.1607,-2.7117,-2.9678,-3.1514,-2.9507,-3.2313,-3.5354,-3.4544,0.0,0.0,0.0,0.0,0.0,0.0,0.0,0.0,0.0,0.0,0.0,0.0,0.0,0.0,0.0,0.0,0.0,0.0,0.0,0.0,0.0,0.0,0.0,0.0,0.0,-6.1701,-6.1701,-6.1701,-6.1701,-6.1701,-6.1701,-6.1696,-6.1691,-6.1691,-6.1691,-6.1691,-6.1666,-6.164,-6.166,0.0,-6.1691,-6.1691,-6.1696,-6.1701,-6.1701,-6.1701,-6.1696,-6.1705,-6.166,-6.166,-6.1654,-6.1648,-6.1648,-6.1648,-6.1621,-6.1607,-6.16,-6.16,-6.1592,-6.1603,-6.1603,-6.16,-6.1595,-6.1595,-6.1607,-6.16,-6.1654,-6.1631,-6.1606,-6.1603,-6.1606,-6.1607,-6.1607,-6.1607,-6.1607,-6.1607,-6.1607,-6.1607,-6.1607,-6.1607,-6.1607,-6.1607,-6.1607,-6.1607,-6.1607,-6.1607,-6.1607,-6.1607,-6.1607,-6.1607,-6.1607,-6.1607,-6.1607,-6.1607,-6.1607,-6.1607,-6.1607,-6.1607,-6.1607,-6.1607,-6.1607,-6.1607,-6.1607,-6.1607,-6.1607,-2.6439,-2.8641,-3.0945,-3.1538,0.0,-3.7756,-3.835,0.0,0.0,0.0,0.0,0.0,0.0,0.0,0.0,0.0,0.0,0.0,0.0,0.0,0.0,0.0,0.0,0.0,0.0,0.0,0.0,0.0,0.0,0.0,0.0,0.0,-6.1671,-6.1671,-6.1671,-6.1671,-6.1671,-6.1671,-6.1671,-6.1696,-6.1696,-6.1696,-6.1696,-6.1696,-6.1696,-6.1701,-6.1671,-6.1691,-6.1696,-6.1671,-6.1671,-6.1671,-6.1671,-6.1685,-6.1673,-6.1621,-6.1595,-6.1595,-6.1588,-6.1607,-6.1607,-6.16,-6.1612,-6.1595,-6.1595,-6.1606,-6.1607,-6.1607,-6.1595,-6.16,-6.1607,-6.1592,-6.1603,-6.166,-6.1631,-6.1597,-6.1592,-6.1595,-6.1607,-6.1597,-6.1597,-6.1597,-6.1597,-6.1597,-6.1597,-6.1607,-6.1607,-6.1607,-6.1607,-6.1607,-6.1607,-6.1607,-6.1607,-6.1607,-6.1607,-6.1607,-6.1607,-6.1607,-6.1607,-6.1607,-6.1607,-6.1607,-6.1607,-6.1607,-6.1607,-6.1607,-6.1607,-6.1607,-6.1607,-6.1607,-6.1607,-6.1607,-2.8582,-2.9994,-3.1367,-3.3731,-3.4608,0.0,-3.7956,0.0,0.0,0.0,0.0,0.0,0.0,0.0,0.0,0.0,0.0,0.0,0.0,0.0,0.0,0.0,0.0,0.0,0.0,0.0,0.0,0.0,0.0,0.0,0.0,0.0,0.0,-6.1602,-6.1602,-6.1602,-6.1602,-6.1602,-6.1648,-6.1699,-6.1696,-6.1691,-6.1699,-6.1699,-6.1705,-6.1696,-6.1634,-6.1648,-6.1699,-6.1628,-6.1602,-6.1602,-6.1602,-6.1621,-6.1615,-6.1595,-6.1595,-6.1595,-6.1592,-6.1603,-6.1603,-6.1597,-6.1588,-6.1588,-6.1588,-6.1607,-6.1607,-6.1607,-6.1588,-6.1597,-6.1595,-6.1606,-6.1597,-6.1603,-6.1606,-6.1607,-6.1597,-6.1588,-6.1597,-6.1595,-6.1595,-6.1595,-6.1595,-6.1595,-6.1595,-6.1588,-6.1607,-6.1607,-6.1607,-6.1607,-6.1607,-6.1607,-6.1607,-6.1607,-6.1607,-6.1607,-6.1607,-6.1607,-6.1607,-6.1607,-6.1607,-6.1607,-6.1607,-6.1607,-6.1607,-6.1607,-6.1607,-6.1607,-6.1607,-6.1607,-6.1607,-6.1607,-2.6887,-2.9327,-3.1963,-3.3487,0.0,0.0,0.0,0.0,0.0,0.0,0.0,0.0,0.0,0.0,0.0,0.0,0.0,0.0,0.0,0.0,0.0,0.0,0.0,0.0,0.0,0.0,0.0,0.0,0.0,0.0,0.0,0.0,0.0,-6.1595,-6.1595,-6.1595,-6.1595,-6.1595,-6.1615,-6.1646,-6.1648,-6.1634,-6.1648,-6.1648,-6.1648,-6.1634,-6.1602,-6.1602,-6.1648,-6.1621,-6.1595,-6.1595,-6.16,-6.1592,-6.1592,-6.1603,-6.1595,-6.1595,-6.1606,-6.1597,-6.1597,-6.1588,-6.1607,-6.1607,-6.1607,-6.1607,-6.1607,-6.1607,-6.1607,-6.1588,-6.1597,-6.1597,-6.1597,-6.1595,-6.1606,-6.1588,-6.1606,-6.1597,-6.1597,-6.1595,-6.1603,-6.1603,-6.16,-6.1592,-6.1595,-6.1595,-6.1597,-6.1607,-6.1607,-6.1607,-6.1607,-6.1607,-6.1607,-6.1607,-6.1607,-6.1607,-6.1607,-6.1607,-6.1607,-6.1607,-6.1607,-6.1607,-6.1607,-6.1607,-6.1607,-6.1607,-6.1607,-6.1607,-6.1607,-6.1607,-6.1607,-6.1607,-2.6482,-2.9245,-3.2367,0.0,0.0,0.0,0.0,0.0,0.0,0.0,0.0,0.0,0.0,0.0,0.0,0.0,0.0,0.0,0.0,0.0,0.0,0.0,0.0,0.0,0.0,0.0,0.0,0.0,0.0,0.0,0.0,0.0,0.0,0.0,-6.16,-6.16,-6.16,-6.16,-6.1612,-6.1595,-6.1612,-6.16,-6.1607,-6.1607,-6.1588,-6.1595,-6.16,-6.16,-6.1607,-6.16,-6.16,-6.1592,-6.1595,-6.1595,-6.1606,-6.1597,-6.1607,-6.1607,-6.1607,-6.1607,-6.1607,-6.1607,-6.1607,-6.1607,-6.1607,-6.1607,-6.1607,-6.1607,-6.1607,-6.1607,-6.1607,-6.1607,-6.1597,-6.1595,-6.1606,-6.1597,-6.1606,-6.1597,-6.1597,-6.1595,-6.1612,-6.16,-6.1595,-6.1627,-6.1619,-6.1592,-6.1595,-6.1597,-6.1597,-6.1597,-6.1607,-6.1607,-6.1607,-6.1578,-6.1568,-6.1598,-6.1578,-6.1568,-6.1598,-6.1607,-6.1607,-6.1607,-6.1607,-6.1607,-6.1607,-6.1607,-6.1607,-6.1607,-6.1607,-6.1607,-6.1607,-6.1607,-2.8193,-3.0102,0.0,0.0,0.0,0.0,0.0,0.0,0.0,0.0,0.0,0.0,0.0,0.0,0.0,0.0,0.0,0.0,0.0,0.0,0.0,0.0,0.0,0.0,0.0,0.0,0.0,0.0,0.0,0.0,0.0,0.0,0.0,0.0,-6.1607,-6.1607,-6.1607,-6.1607,-6.1607,-6.1607,-6.1607,-6.1597,-6.1603,-6.1603,-6.1592,-6.1595,-6.1606,-6.1597,-6.1603,-6.1597,-6.1607,-6.1607,-6.1607,-6.1607,-6.1607,-6.1607,-6.1607,-6.1607,-6.1607,-6.1607,-6.1607,-6.1607,-6.1607,-6.1607,-6.1607,-6.1607,-6.1607,-6.1607,-6.1607,-6.1607,-6.1607,-6.1607,-6.1597,-6.1595,-6.1606,-6.1607,-6.1607,-6.1607,-6.1597,-6.1595,-6.16,-6.1595,-6.1595,-6.1667,-6.1673,-6.1621,-6.16,-6.1603,-6.1603,-6.1606,-6.1607,-6.1607,-6.1607,-6.1568,-6.1503,-6.1558,-6.1568,-6.1503,-6.1558,-6.1607,-6.1607,-6.1607,-6.1607,-6.1607,-6.1607,-6.1607,-6.1607,-6.1607,-6.1607,-6.1607,-6.1607,-6.1607,-2.7301,-3.0492,0.0,0.0,0.0,0.0,0.0,0.0,0.0,0.0,0.0,0.0,0.0,0.0,0.0,0.0,0.0,0.0,0.0,0.0,0.0,0.0,0.0,0.0,0.0,0.0,0.0,0.0,0.0,0.0,0.0,0.0,0.0,0.0,-6.1285,-6.1607,-6.1607,-6.1607,-6.1607,-6.1607,-6.1607,-6.1588,-6.1597,-6.1597,-6.1606,-6.1606,-6.1597,-6.1588,-6.1597,-6.1588,-6.1607,-6.1607,-6.1607,-6.1607,-6.1607,-6.1607,-6.1607,-6.1607,-6.1607,-6.1607,-6.1607,-6.1607,-6.1607,-6.1607,-6.1607,-6.1607,-6.1607,-6.1607,-6.1607,-6.1607,-6.1607,-6.1607,-6.1607,-6.1597,-6.1597,-6.1607,-6.1607,-6.1607,-6.1597,-6.1595,-6.16,-6.1602,-6.1654,-6.1693,-6.1699,-6.1673,-6.1641,-6.1607,-6.1607,-6.1558,-6.1559,-6.1586,-6.1568,-6.1537,-6.1558,-6.1548,-6.1526,-6.1503,-6.1515,-6.1548,-6.1607,-6.1607,-6.1607,-6.1607,-6.1607,-6.1607,-6.1607,-6.1607,-6.1607,-6.1607,-6.1607,-6.1607,-2.9113,0.0,0.0,0.0,0.0,0.0,0.0,0.0,0.0,0.0,0.0,0.0,0.0,0.0,0.0,0.0,0.0,0.0,0.0,0.0,0.0,0.0,0.0,0.0,0.0,0.0,0.0,0.0,0.0,0.0,0.0,0.0,0.0,0.0,-6.0281,-6.0573,-6.0601,-6.0601,-6.0601,-6.0601,-6.0601,-6.0776,-6.1099,-6.1441,-6.1607,-6.1607,-6.1607,-6.1607,-6.1607,-6.1607,-6.1607,-6.1607,-6.1607,-6.1607,-6.1607,-6.1607,-6.1607,-6.1607,-6.1607,-6.1607,-6.1607,-6.1607,-6.1607,-6.1607,-6.1607,-6.1607,-6.1607,-6.1607,-6.1607,-6.1607,-6.1607,-6.1607,-6.1607,-6.1607,-6.1607,-6.1607,-6.1607,-6.1607,-6.1588,-6.1606,-6.1612,-6.1607,-6.1646,-6.1687,-6.1699,-6.1654,-6.1634,-6.1607,-6.1595,-6.1567,-6.1559,-6.1558,-6.1509,-6.1476,-6.1452,-6.146,-6.1434,-6.1389,-6.1434,-6.1491,-6.1558,-6.1598,-6.1607,-6.1607,-6.1607,-6.1607,-6.1607,-6.1607,-6.1607,-6.1607,-6.1607,-6.1607,0.0,0.0,0.0,0.0,0.0,0.0,0.0,0.0,0.0,0.0,0.0,0.0,0.0,0.0,0.0,0.0,0.0,0.0,0.0,0.0,0.0,0.0,0.0,0.0,0.0,0.0,0.0,0.0,0.0,0.0,0.0,0.0,0.0,-5.8894,-5.8952,-5.9038,-5.9092,-5.9092,-5.9092,-5.9092,-5.9092,-5.9474,-6.0219,-6.1071,-6.151,-6.1607,-6.1607,-6.1607,-6.1607,-6.1607,-6.1607,-6.1607,-6.1607,-6.1607,-6.1607,-6.1607,-6.1607,-6.1607,-6.1607,-6.1607,-6.1607,-6.1607,-6.1607,-6.1607,-6.1607,-6.1607,-6.1607,-6.1607,-6.1607,-6.1607,-6.1607,-6.1607,-6.1607,-6.1607,-6.1607,-6.1607,-6.1607,-6.1607,-6.1607,-6.1607,-6.1606,-6.1595,-6.1597,-6.1639,-6.1667,-6.1595,-6.1592,-6.1584,-6.1588,-6.1586,-6.1549,-6.1509,-6.1479,-6.1401,-6.1233,-6.1318,-6.1318,-6.12,-6.1318,-6.1408,-6.146,-6.1548,-6.1588,-6.1607,-6.1607,-6.1607,-6.1607,-6.1607,-6.1607,-6.1607,-6.1607,-6.1607,0.0,0.0,0.0,0.0,0.0,0.0,0.0,0.0,0.0,0.0,0.0,0.0,0.0,0.0,0.0,0.0,0.0,0.0,0.0,0.0,0.0,0.0,0.0,0.0,0.0,0.0,0.0,0.0,0.0,0.0,0.0,0.0,0.0,-5.8055,-5.8663,-5.9005,-5.9014,-5.9014,-5.9014,0.0,-5.9014,-5.912,-5.9303,-6.0172,-6.0943,-6.1607,-6.1607,-6.1607,-6.1607,-6.1607,-6.1607,-6.1607,-6.1607,-6.1607,-6.1607,-6.1607,-6.1607,-6.1607,-6.1607,-6.1607,-6.1607,-6.1607,-6.1607,-6.1607,-6.1607,-6.1607,-6.1607,-6.1607,-6.1607,-6.1607,-6.1607,-6.1607,-6.1607,-6.1607,-6.1607,-6.1607,-6.1607,-6.1607,-6.1607,-6.1607,-6.1606,-6.1603,-6.1595,-6.1603,-6.1612,-6.1528,-6.1519,-6.1519,-6.1528,-6.1479,-6.1464,-6.1509,-6.1408,-6.1342,-6.1356,-6.1298,-6.1217,-6.12,-6.1217,-6.1252,-6.1248,-6.1428,-6.1548,-6.1607,-6.1607,-6.1607,-6.1607,-6.1607,-6.1607,-6.1607,-6.1607,-6.1607,0.0,0.0,0.0,0.0,0.0,0.0,0.0,0.0,0.0,0.0,0.0,0.0,0.0,0.0,0.0,0.0,0.0,0.0,0.0,0.0,0.0,0.0,0.0,0.0,0.0,0.0,0.0,0.0,0.0,0.0,0.0,-5.6937,-5.719,-5.7178,-5.758,-5.7806,-5.7802,-5.7802,-5.7802,-5.7802,-5.7802,-5.8016,-5.8465,-5.933,-6.018,-6.0982,-6.0982,-6.1207,-6.1607,-6.1607,-6.1607,-6.1607,-6.1607,-6.1607,-6.1607,-6.1607,-6.1607,-6.1607,-6.1607,-6.1607,-6.1607,-6.1607,-6.1607,-6.1607,-6.1607,-6.1607,-6.1607,-6.1607,-6.1607,-6.1607,-6.1607,-6.1607,-6.1607,-6.1607,-6.1607,-6.1607,-6.1607,-6.1578,-6.1549,-6.1549,-6.1549,-6.1549,-6.1509,-6.1519,-6.1529,-6.151,-6.151,-6.15,-6.151,-6.1468,-6.1452,-6.1445,-6.1383,-6.1347,-6.1302,-6.1239,-6.1206,-6.1206,-6.1206,-6.1203,-6.1252,-6.1347,-6.1447,-6.1548,-6.1526,-6.1537,-6.1607,-6.1568,-6.1568,-6.1607,-6.1607,-6.1607,0.0,0.0,0.0,0.0,0.0,0.0,0.0,0.0,0.0,0.0,0.0,0.0,0.0,0.0,0.0,0.0,0.0,0.0,0.0,0.0,0.0,0.0,0.0,0.0,0.0,0.0,0.0,0.0,0.0,0.0,-5.6277,-5.6414,-5.6492,-5.6508,-5.6508,-5.6496,-5.6491,-5.6491,-5.6491,-5.6491,-5.6498,-5.6881,-5.7607,-5.8331,-5.9162,-6.0075,-6.0083,-6.0484,-6.1168,-6.1305,-6.1383,-6.1402,-6.1529,-6.1607,-6.1607,-6.1607,-6.1607,-6.1607,-6.1607,-6.1607,-6.1607,-6.1607,-6.1607,-6.1607,-6.1607,-6.1607,-6.1607,-6.1607,-6.1607,-6.1607,-6.1607,-6.1607,-6.1607,-6.1607,-6.1607,-6.1607,-6.1607,-6.1549,-6.1519,-6.1489,-6.1507,-6.1472,-6.1408,-6.146,-6.1476,-6.148,-6.1476,-6.1484,-6.148,-6.1476,-6.146,-6.1415,-6.1383,-6.1347,-6.1225,-6.1227,-6.121,-6.121,-6.121,-6.1225,-6.1306,-6.1287,-6.1366,-6.1479,-6.1428,-6.1454,-6.1567,-6.151,-6.151,-6.1558,-6.1578,-6.1567,0.0,0.0,0.0,0.0,0.0,0.0,0.0,0.0,0.0,0.0,0.0,0.0,0.0,0.0,0.0,0.0,0.0,0.0,0.0,0.0,0.0,0.0,0.0,0.0,0.0,0.0,0.0,0.0,0.0,0.0,-5.5358,-5.6082,-5.6511,-5.6511,-5.6492,-5.6492,-5.6492,-5.6492,-5.6492,-5.6492,-5.6488,-5.6554,-5.6691,-5.679,-5.7693,-5.9181,-5.9178,-5.9245,-5.942,-6.0153,-6.0465,-6.0543,-6.1305,-6.1607,-6.1607,-6.1607,-6.1607,-6.1607,-6.1607,-6.1607,-6.1607,-6.1607,-6.1607,-6.1607,-6.1607,-6.1607,-6.1607,-6.1607,-6.1607,-6.1607,-6.1607,-6.1607,-6.1607,-6.1607,-6.1607,-6.1607,-6.1607,-6.1588,-6.1578,-6.1519,-6.1507,-6.1472,-6.1408,-6.1396,-6.1415,-6.1408,-6.1414,-6.1414,-6.1408,-6.1414,-6.1414,-6.14,-6.1352,-6.1302,-6.1287,-6.1294,-6.1297,-6.1297,-6.1297,-6.1297,-6.1314,-6.1314,-6.1345,-6.1414,-6.1414,-6.1405,-6.1415,-6.1415,-6.1408,-6.1428,-6.1425,-6.1434,0.0,0.0,0.0,0.0,0.0,0.0,0.0,0.0,0.0,0.0,0.0,0.0,0.0,0.0,0.0,0.0,0.0,0.0,0.0,0.0,0.0,0.0,0.0,0.0,0.0,0.0,0.0,0.0,0.0,-5.4473,-5.4468,-5.4831,-5.5046,-5.5034,-5.5034,-5.5034,-5.5034,-5.5533,-5.6032,-5.6503,-5.6492,-5.65,-5.65,-5.6508,-5.717,-5.834,-5.8328,-5.8574,-5.9033,-5.9404,-5.9568,-5.9654,-6.0525,-6.0876,-6.0924,-6.1422,-6.1607,-6.1607,-6.1607,-6.1607,-6.1607,-6.1607,-6.1607,-6.1607,-6.1607,-6.1607,-6.1607,-6.1607,-6.1607,-6.1607,-6.1607,-6.1607,-6.1607,-6.1607,-6.1607,-6.1607,-6.1607,-6.1578,-6.1519,-6.1456,-6.1452,-6.1428,-6.1408,-6.1408,-6.1394,-6.14,-6.14,-6.14,-6.14,-6.14,-6.14,-6.14,-6.1366,-6.1337,-6.1302,-6.1306,-6.1291,-6.1291,-6.1291,-6.1291,-6.1291,-6.1291,-6.1306,-6.1337,-6.1341,-6.1391,-6.1466,-6.141,-6.1405,-6.1389,-6.1405,-6.141,0.0,0.0,0.0,0.0,0.0,0.0,0.0,0.0,0.0,0.0,0.0,0.0,0.0,0.0,0.0,0.0,0.0,0.0,0.0,0.0,0.0,0.0,0.0,0.0,0.0,0.0,0.0,0.0,0.0,-5.3576,-5.3579,-5.3786,-5.391,-5.3897,-5.3897,-5.3897,-5.3897,-5.4534,-5.5307,-5.616,-5.616,-5.6297,-5.6503,-5.6503,-5.6842,-5.7463,-5.7471,-5.7814,-5.8382,-5.8596,-5.8702,-5.8777,-5.9638,-5.9969,-6.0083,-6.0943,-6.1266,-6.1305,-6.151,-6.1607,-6.1607,-6.1607,-6.1607,-6.1607,-6.1607,-6.1607,-6.1607,-6.1607,-6.1607,-6.1607,-6.1607,-6.1588,-6.1578,-6.1607,-6.1588,-6.1578,-6.1607,-6.1539,-6.1487,-6.144,-6.1415,-6.1389,-6.14,-6.14,-6.14,-6.14,-6.14,-6.14,-6.14,-6.14,-6.14,-6.14,-6.14,-6.1386,-6.1337,-6.1337,-6.1337,-6.1337,-6.1337,-6.1337,-6.1337,-6.1337,-6.1337,-6.1337,-6.1326,-6.1371,-6.1447,-6.1403,-6.1372,-6.1361,-6.1352,-6.1337,0.0,0.0,0.0,0.0,0.0,0.0,0.0,0.0,0.0,0.0,0.0,0.0,0.0,0.0,0.0,0.0,0.0,0.0,0.0,0.0,0.0,0.0,0.0,0.0,0.0,0.0,0.0,0.0,0.0,-5.2662,-5.2675,-5.3442,-5.3903,-5.3903,-5.3903,-5.3903,-5.3903,-5.3936,-5.4404,-5.5268,-5.5268,-5.5701,-5.6503,-5.6503,-5.6522,-5.6569,-5.6566,-5.6593,-5.6683,-5.7529,-5.786,-5.7938,-5.8757,-5.9069,-5.9167,-6.0044,-6.0375,-6.0484,-6.1305,-6.1607,-6.1607,-6.1607,-6.1607,-6.1607,-6.1607,-6.1607,-6.1607,-6.1607,-6.1607,-6.1607,-6.1607,-6.1549,-6.1519,-6.1578,-6.1549,-6.1519,-6.1588,-6.1548,-6.1503,-6.1503,-6.1441,-6.14,-6.14,-6.14,-6.14,-6.14,-6.14,-6.14,-6.14,-6.14,-6.14,-6.14,-6.14,-6.14,-6.1386,-6.1386,-6.1386,-6.1386,-6.1386,-6.1386,-6.1386,-6.1386,-6.1386,-6.1386,-6.1386,-6.1371,-6.1302,-6.131,-6.1281,-6.1227,-6.121,-6.1173,0.0,0.0,0.0,0.0,0.0,0.0,0.0,0.0,0.0,0.0,0.0,0.0,0.0,0.0,0.0,0.0,0.0,0.0,0.0,0.0,0.0,0.0,0.0,0.0,0.0,0.0,0.0,0.0,0.0,0.0,-5.1765,-5.2058,-5.2253,-5.2279,-5.2298,-5.2532,-5.3065,-5.3059,-5.3507,-5.4351,-5.4275,-5.4665,-5.5472,-5.5384,-5.5644,-5.6121,-5.6263,-5.6378,-5.6519,-5.6851,-5.6975,-5.7061,-5.7844,-5.8184,-5.8328,-5.915,-5.9832,-6.033,-6.0653,-6.112,-6.1607,-6.1607,-6.1607,-6.1607,-6.1607,-6.1607,-6.1607,-6.1607,-6.1607,-6.1588,-6.1549,-6.1519,-6.1519,-6.1519,-6.1519,-6.1519,-6.1519,-6.1528,-6.1498,-6.1498,-6.144,-6.1408,-6.14,-6.14,-6.14,-6.14,-6.14,-6.14,-6.14,-6.14,-6.14,-6.14,-6.14,-6.14,-6.14,-6.14,-6.14,-6.14,-6.14,-6.14,-6.14,-6.14,-6.14,-6.14,-6.14,-6.1386,-6.1352,-6.1356,-6.1341,-6.1255,-6.1261,-6.1227,0.0,0.0,0.0,0.0,0.0,0.0,0.0,0.0,0.0,0.0,0.0,0.0,0.0,0.0,0.0,0.0,0.0,0.0,0.0,0.0,0.0,0.0,0.0,0.0,0.0,0.0,0.0,0.0,0.0,0.0,-5.1291,-5.1291,-5.1317,-5.1369,-5.1369,-5.1616,-5.2168,-5.2188,-5.261,-5.3455,-5.3379,-5.373,-5.4471,-5.4685,-5.501,-5.549,-5.5893,-5.6207,-5.6398,-5.6474,-5.6492,-5.6539,-5.7084,-5.7318,-5.7463,-5.8218,-5.8909,-5.9531,-6.0029,-6.0623,-6.1218,-6.149,-6.1607,-6.1607,-6.1607,-6.1578,-6.1578,-6.1578,-6.1568,-6.1558,-6.1498,-6.1498,-6.1498,-6.1468,-6.1487,-6.1498,-6.1489,-6.1479,-6.1468,-6.1468,-6.144,-6.1408,-6.14,-6.14,-6.14,-6.14,-6.14,-6.14,-6.14,-6.14,-6.14,-6.14,-6.14,-6.14,-6.14,-6.14,-6.14,-6.14,-6.14,-6.14,-6.14,-6.14,-6.14,-6.14,-6.14,-6.14,-6.14,-6.14,-6.1371,-6.1302,-6.1294,-6.1245,0.0,0.0,0.0,0.0,0.0,0.0,0.0,0.0,0.0,0.0,0.0,0.0,0.0,0.0,0.0,0.0,0.0,0.0,0.0,0.0,0.0,0.0,0.0,0.0,0.0,0.0,0.0,0.0,0.0,-5.0394,-5.1174,-5.1252,-5.1271,-5.1291,-5.1291,-5.1291,-5.1291,-5.1369,-5.1798,-5.2558,-5.2558,-5.2912,-5.3584,-5.4427,-5.4735,-5.46,-5.549,-5.5959,-5.6155,-5.6398,-5.6474,-5.6483,-5.648,-5.648,-5.655,-5.7212,-5.7594,-5.8,-5.9425,-6.0091,-6.0438,-6.1276,-6.1588,-6.1607,-6.1607,-6.1549,-6.1489,-6.1489,-6.1507,-6.1503,-6.1503,-6.1503,-6.1472,-6.1428,-6.146,-6.1515,-6.1498,-6.1445,-6.1396,-6.1396,-6.1408,-6.14,-6.14,-6.14,-6.14,-6.14,-6.14,-6.14,-6.14,-6.14,-6.14,-6.14,-6.14,-6.14,-6.14,-6.14,-6.14,-6.14,-6.14,-6.14,-6.14,-6.14,-6.14,-6.14,-6.14,-6.14,-6.14,-6.14,-6.1371,-6.1302,-6.1294,-6.1227,-2.2915,0.0,0.0,0.0,0.0,0.0,0.0,0.0,0.0,0.0,0.0,0.0,0.0,0.0,0.0,0.0,0.0,0.0,0.0,0.0,0.0,0.0,0.0,0.0,0.0,0.0,0.0,0.0,-4.9165,-4.9269,-4.9478,-5.0082,-5.0699,-5.1269,-5.1303,-5.1303,-5.1308,-5.133,-5.1434,-5.1661,-5.1598,-5.1988,-5.2741,-5.2733,-5.3047,-5.3629,-5.4477,-5.4805,-5.49,-5.5711,-5.6078,-5.6059,-5.6024,-5.599,-5.6009,-5.6162,-5.6726,-5.7515,-5.7906,-5.8998,-6.0272,-6.0505,-6.1001,-6.1526,-6.1526,-6.1507,-6.1495,-6.1495,-6.1503,-6.1491,-6.144,-6.1428,-6.1428,-6.1396,-6.1408,-6.1428,-6.1421,-6.1402,-6.1408,-6.146,-6.1421,-6.14,-6.14,-6.14,-6.14,-6.14,-6.14,-6.14,-6.14,-6.14,-6.14,-6.14,-6.14,-6.14,-6.14,-6.14,-6.14,-6.14,-6.14,-6.14,-6.14,-6.14,-6.14,-6.14,-6.14,-6.14,-6.14,-6.14,-6.1386,-6.1386,-6.1322,-6.1275,-2.3985,0.0,0.0,0.0,0.0,0.0,0.0,0.0,0.0,0.0,0.0,0.0,0.0,0.0,0.0,0.0,0.0,0.0,0.0,0.0,0.0,0.0,0.0,0.0,0.0,0.0,0.0,-4.8236,-4.8256,-4.8412,-4.8782,-4.9269,-4.9925,-5.0735,-5.077,-5.0926,-5.13,-5.1296,-5.1296,-5.1296,-5.1258,-5.1433,-5.1824,-5.1962,-5.224,-5.2604,-5.3409,-5.39,-5.4173,-5.4811,-5.5364,-5.5806,-5.5768,-5.5768,-5.575,-5.5633,-5.602,-5.6667,-5.6964,-5.7896,-5.9057,-5.9406,-6.0183,-6.0958,-6.0958,-6.118,-6.146,-6.146,-6.1447,-6.1454,-6.1421,-6.1389,-6.1389,-6.1389,-6.1389,-6.1389,-6.1389,-6.1394,-6.1414,-6.1454,-6.1428,-6.14,-6.14,-6.14,-6.14,-6.14,-6.14,-6.14,-6.14,-6.14,-6.14,-6.14,-6.14,-6.14,-6.14,-6.14,-6.14,-6.14,-6.14,-6.14,-6.14,-6.14,-6.14,-6.14,-6.14,-6.14,-6.14,-6.14,-6.1386,-6.1352,-6.1318,-6.1291,-2.5558,-2.6236,0.0,0.0,0.0,0.0,-3.1778,-3.1563,0.0,0.0,0.0,0.0,0.0,0.0,0.0,0.0,0.0,0.0,0.0,0.0,0.0,0.0,0.0,0.0,0.0,-4.6201,-4.6527,-4.7294,-4.7359,-4.7743,-4.8619,-4.8658,-4.9028,-4.9839,-4.9878,-5.0248,-5.1008,-5.1106,-5.1164,-5.1156,-5.1256,-5.1201,-5.1049,-5.1754,-5.1901,-5.1677,-5.2439,-5.3102,-5.3682,-5.3819,-5.456,-5.5633,-5.5633,-5.5613,-5.5593,-5.5412,-5.5481,-5.5729,-5.6341,-5.6867,-5.7389,-5.8164,-5.9144,-6.004,-6.0137,-6.0669,-6.1279,-6.1376,-6.1408,-6.14,-6.14,-6.14,-6.14,-6.14,-6.14,-6.14,-6.14,-6.14,-6.14,-6.14,-6.14,-6.14,-6.14,-6.14,-6.14,-6.14,-6.14,-6.14,-6.14,-6.14,-6.14,-6.14,-6.14,-6.14,-6.14,-6.14,-6.14,-6.14,-6.14,-6.14,-6.14,-6.14,-6.14,-6.14,-6.14,-6.14,-6.14,-6.14,-6.1386,-6.1302,-6.1302,-6.1291,-2.9823,-2.9799,-2.9795,-2.8712,0.0,0.0,-2.7803,-2.8524,0.0,0.0,0.0,0.0,0.0,0.0,0.0,0.0,0.0,0.0,0.0,0.0,0.0,0.0,0.0,0.0,0.0,-4.6209,-4.6274,-4.6437,-4.6499,-4.6889,-4.7704,-4.7749,-4.8152,-4.9001,-4.9021,-4.9118,-4.9294,-4.9921,-5.0244,-5.0263,-5.0918,-5.1211,-5.1161,-5.1212,-5.1242,-5.1237,-5.1662,-5.1966,-5.2231,-5.3278,-5.4324,-5.5198,-5.5164,-5.5138,-5.5138,-5.5019,-5.5164,-5.5413,-5.5536,-5.6188,-5.7022,-5.7176,-5.7969,-5.8958,-5.9658,-6.0104,-6.0501,-6.12,-6.14,-6.14,-6.14,-6.14,-6.14,-6.14,-6.14,-6.14,-6.14,-6.14,-6.14,-6.14,-6.14,-6.14,-6.14,-6.14,-6.14,-6.14,-6.14,-6.14,-6.14,-6.14,-6.14,-6.14,-6.14,-6.14,-6.14,-6.14,-6.14,-6.14,-6.14,-6.14,-6.14,-6.14,-6.14,-6.14,-6.14,-6.14,-6.14,-6.14,-6.1386,-6.1386,-6.1386,-6.1371,-3.1807,-3.1451,-3.133,-3.091,0.0,0.0,0.0,0.0,0.0,0.0,0.0,0.0,0.0,0.0,0.0,0.0,0.0,0.0,0.0,0.0,0.0,0.0,0.0,0.0,0.0,-4.5942,-4.6203,-4.6203,-4.6226,-4.6426,-4.6819,-4.6844,-4.7248,-4.8125,-4.8046,-4.8185,-4.8594,-4.9011,-4.9429,-4.9856,-5.0324,-5.0782,-5.121,-5.1132,-5.1069,-5.1015,-5.1178,-5.1452,-5.1811,-5.2475,-5.3461,-5.4585,-5.4829,-5.4941,-5.496,-5.4901,-5.4971,-5.5094,-5.5094,-5.5556,-5.6126,-5.622,-5.6985,-5.7962,-5.8529,-5.9362,-6.0196,-6.0623,-6.107,-6.14,-6.14,-6.14,-6.14,-6.14,-6.14,-6.14,-6.14,-6.14,-6.14,-6.14,-6.14,-6.14,-6.14,-6.14,-6.14,-6.14,-6.14,-6.14,-6.14,-6.14,-6.14,-6.14,-6.14,-6.14,-6.14,-6.14,-6.14,-6.14,-6.14,-6.14,-6.14,-6.14,-6.14,-6.14,-6.14,-6.14,-6.14,-6.14,-6.14,-6.14,-6.14,-6.1386,0.0,0.0,0.0,0.0,0.0,-3.2129,0.0,0.0,0.0,-3.2752,0.0,0.0,0.0,0.0,0.0,0.0,0.0,0.0,0.0,0.0,0.0,0.0,0.0,0.0,0.0,-4.4741,-4.5313,-4.6144,-4.5585,-4.5493,-4.6162,-4.617,-4.6489,-4.7202,-4.7067,-4.7298,-4.7951,-4.8102,-4.8516,-4.9271,-4.9656,-5.0234,-5.0964,-5.1117,-5.1102,-5.0952,-5.0902,-5.1153,-5.1626,-5.1741,-5.25,-5.3651,-5.4474,-5.4876,-5.4971,-5.5009,-5.5038,-5.5038,-5.5038,-5.5183,-5.5375,-5.5542,-5.6348,-5.7246,-5.7513,-5.8642,-5.9885,-6.004,-6.0604,-6.1186,-6.1361,-6.14,-6.14,-6.14,-6.14,-6.14,-6.14,-6.14,-6.14,-6.14,-6.14,-6.14,-6.14,-6.14,-6.14,-6.14,-6.14,-6.14,-6.14,-6.14,-6.14,-6.14,-6.14,-6.14,-6.14,-6.14,-6.14,-6.14,-6.14,-6.14,-6.14,-6.14,-6.14,-6.14,-6.14,-6.14,-6.14,-6.14,-6.14,-6.14,-6.14,-6.1386,0.0,0.0,0.0,0.0,-3.5538,0.0,0.0,0.0,-3.1135,-2.9303,0.0,0.0,0.0,0.0,0.0,0.0,0.0,0.0,0.0,0.0,0.0,0.0,0.0,0.0,0.0,0.0,-4.2109,-4.591,-4.3332,-4.2948,-4.6027,-4.6091,-4.6104,-4.6258,-4.6249,-4.626,-4.6357,-4.695,-4.7391,-4.7669,-4.8987,-4.9782,-5.0068,-5.0853,-5.119,-5.1146,-5.0859,-5.0819,-5.1032,-5.153,-5.1851,-5.2199,-5.3772,-5.4728,-5.5288,-5.5451,-5.5519,-5.5519,-5.5519,-5.5542,-5.5564,-5.5607,-5.6348,-5.7246,-5.7513,-5.8234,-5.9108,-5.9885,-6.0176,-6.0429,-6.1206,-6.14,-6.14,-6.14,-6.14,-6.14,-6.14,-6.14,-6.14,-6.14,-6.14,-6.14,-6.14,-6.14,-6.14,-6.14,-6.14,-6.14,-6.14,-6.14,-6.14,-6.14,-6.14,-6.14,-6.14,-6.14,-6.14,-6.14,-6.14,-6.14,-6.14,-6.14,-6.14,-6.14,-6.14,-6.14,-6.14,-6.14,-6.14,-6.14,-6.14,-6.14,0.0,0.0,0.0,0.0,0.0,0.0,-3.2109,0.0,-3.0706,0.0,0.0,0.0,0.0,0.0,0.0,0.0,0.0,0.0,0.0,0.0,0.0,0.0,0.0,0.0,0.0,0.0,0.0,0.0,0.0,-4.1505,-4.4355,-4.5023,-4.5492,-4.5908,-4.5928,-4.5936,-4.5929,-4.6216,-4.6588,-4.7062,-4.7753,-4.8667,-4.9744,-5.0112,-5.0617,-5.1202,-5.105,-5.1023,-5.1095,-5.1319,-5.1631,-5.2064,-5.2882,-5.3822,-5.4779,-5.5371,-5.5607,-5.5607,-5.5607,-5.5607,-5.5628,-5.5731,-5.6184,-5.6694,-5.6803,-5.7418,-5.8176,-5.8545,-5.9341,-6.0176,-6.0545,-6.1031,-6.14,-6.14,-6.14,-6.14,-6.14,-6.14,-6.14,-6.14,-6.14,-6.14,-6.14,-6.14,-6.14,-6.14,-6.14,-6.14,-6.14,-6.14,-6.14,-6.14,-6.14,-6.14,-6.14,-6.14,-6.14,-6.14,-6.14,-6.14,-6.14,-6.14,-6.14,-6.14,-6.14,-6.14,-6.14,-6.14,-6.14,-6.14,-6.14,-6.14,-3.9441,0.0,0.0,0.0,0.0,0.0,0.0,0.0,0.0,0.0,0.0,0.0,0.0,0.0,0.0,0.0,0.0,0.0,0.0,0.0,0.0,0.0,0.0,0.0,0.0,0.0,0.0,0.0,0.0,0.0,-4.316,-4.3976,-4.4801,-4.5832,-4.5815,-4.5822,-4.5848,-4.5827,-4.6061,-4.6584,-4.6828,-4.7728,-4.9223,-4.9409,-5.007,-5.105,-5.105,-5.1114,-5.1202,-5.1202,-5.147,-5.1896,-5.2272,-5.3107,-5.4246,-5.5094,-5.5596,-5.5789,-5.5789,-5.5789,-5.5827,-5.5968,-5.6151,-5.6291,-5.6291,-5.6738,-5.7282,-5.7515,-5.8642,-5.9807,-6.004,-6.0759,-6.14,-6.14,-6.14,-6.14,-6.14,-6.14,-6.14,-6.14,-6.14,-6.14,-6.14,-6.14,-6.14,-6.14,-6.14,-6.14,-6.14,-6.14,-6.14,-6.14,-6.14,-6.14,-6.14,-6.14,-6.14,-6.14,-6.14,-6.14,-6.14,-6.14,-6.14,-6.14,-6.14,-6.14,-6.14,-6.14,-6.14,-6.14,-6.14,-6.14,0.0,0.0,0.0,-3.72,0.0,0.0,0.0,0.0,-3.3999,0.0,0.0,0.0,0.0,0.0,-3.1427,-2.9771,0.0,0.0,0.0,0.0,0.0,0.0,0.0,0.0,0.0,0.0,0.0,0.0,0.0,0.0,-4.3131,-4.3278,-4.4023,-4.5933,-4.5867,-4.5861,-4.5997,-4.5861,-4.5867,-4.6025,-4.6577,-4.7309,-4.8276,-4.8931,-4.9758,-5.0706,-5.0706,-5.0908,-5.1202,-5.1202,-5.1222,-5.1307,-5.2096,-5.295,-5.3812,-5.4705,-5.556,-5.6278,-5.6278,-5.6278,-5.6278,-5.6291,-5.6291,-5.6291,-5.6291,-5.6311,-5.6524,-5.736,-5.8195,-5.905,-5.9885,-6.0759,-6.14,-6.14,-6.14,-6.14,-6.14,-6.14,-6.14,-6.14,-6.14,-6.14,-6.14,-6.14,-6.14,-6.14,-6.14,-6.14,-6.14,-6.14,-6.14,-6.14,-6.14,-6.14,-6.14,-6.14,-6.14,-6.14,-6.14,-6.14,-6.14,-6.14,-6.14,-6.14,-6.14,-6.14,-6.14,-6.14,-6.14,-6.14,-6.14,-6.14,0.0,0.0,-4.3228,-3.9274,0.0,0.0,0.0,0.0,0.0,0.0,0.0,0.0,0.0,0.0,-3.1719,-3.0546,-2.9387,0.0,0.0,0.0,0.0,0.0,0.0,0.0,0.0,0.0,0.0,0.0,0.0,0.0,0.0,-4.2356,-4.375,-4.477,-4.5538,-4.5898,-4.588,-4.5898,-4.5898,-4.588,-4.6042,-4.6572,-4.7434,-4.8065,-4.8912,-4.9934,-5.0474,-5.0758,-5.0894,-5.1114,-5.1202,-5.1241,-5.1494,-5.2115,-5.3009,-5.4465,-5.5553,-5.6291,-5.6291,-5.6291,-5.6291,-5.6291,-5.6291,-5.6291,-5.6291,-5.6291,-5.635,-5.666,-5.734,-5.8195,-5.9011,-5.9885,-6.0701,-6.1264,-6.14,-6.14,-6.14,-6.14,-6.14,-6.14,-6.14,-6.14,-6.14,-6.14,-6.14,-6.14,-6.14,-6.14,-6.14,-6.14,-6.14,-6.14,-6.14,-6.14,-6.14,-6.14,-6.14,-6.14,-6.14,-6.14,-6.14,-6.14,-6.14,-6.14,-6.14,-6.14,-6.14,-6.14,-6.14,-6.14,-6.14,-6.14,-4.3294,-4.3808,0.0,-4.0721,-3.9558,0.0,-3.5003,0.0,0.0,0.0,0.0,0.0,0.0,0.0,0.0,-3.1835,-2.9994,0.0,0.0,0.0,0.0,0.0,0.0,0.0,0.0,0.0,-3.0665,-3.2474,0.0,0.0,0.0,0.0,-4.2976,-4.4326,-4.537,-4.5886,-4.5861,-4.5964,-4.5964,-4.5861,-4.5808,-4.6225,-4.6989,-4.7296,-4.8125,-4.9351,-4.9872,-5.0331,-5.0706,-5.0923,-5.1095,-5.1202,-5.1202,-5.1688,-5.2562,-5.4019,-5.5281,-5.6291,-5.6291,-5.6291,-5.6291,-5.6291,-5.6291,-5.6291,-5.6291,-5.6291,-5.6291,-5.6291,-5.6932,-5.7709,-5.8234,-5.9224,-6.0234,-6.0798,-6.1167,-6.14,-6.14,-6.14,-6.14,-6.14,-6.14,-6.14,-6.14,-6.14,-6.14,-6.14,-6.14,-6.14,-6.14,-6.14,-6.14,-6.14,-6.14,-6.14,-6.14,-6.14,-6.14,-6.14,-6.14,-6.14,-6.14,-6.14,-6.14,-6.14,-6.14,-6.14,-6.14,-6.14,-6.14,-6.14,-6.14,-6.14]}]]